GFSMA_prec_radar_000.txt.gz
Reflectivity
-20 -20 -20 -20 -20 -20 -16 -20 -20 -20 -20 -20 -20 -20 -20 -20 -20 -20 -20 -20 -20 -20 -20 -20 -20 -20 -20 -8 -4 1 19 -20 -13 -12 -6 5 -4 8 18 -4 -20 -20 19
-20 -20 -11 -3 -10 -20 -20 -20 -20 -20 -20 -20 -20 -20 -20 -20 -20 -20 -20 -20 -20 -20 -20 -20 -20 -20 -20 -20 -18 10 -7 6 -20 13 -3 25 16 -8 -6 21 17 -6 -3
-9 -0 -18 -19 -20 -20 -20 -20 -20 -20 -20 -20 -20 -20 -20 -20 -20 -20 -20 -20 -20 -20 -20 -20 -20 -20 -20 -20 -20 -20 -20 -19 -20 -20 -20 -20 -20 -18 -20 -20 20 24 -1
-20 -20 -20 -20 -20 -20 -20 -20 -20 -20 -20 -20 -20 -20 -20 -20 -20 -20 -20 -20 -20 -20 -20 -20 -20 -20 -20 -20 -20 -20 -20 -20 -20 -20 -20 -20 -20 -20 -20 -20 -20 -20 12
-20 -20 -20 -20 -20 -20 -20 -20 -20 -20 -20 -20 -20 -20 -20 -20 -20 -20 -20 -20 -20 -20 -20 -20 -20 -20 -20 -20 -20 -20 -20 -20 -20 -20 -20 -20 -20 -20 -20 -20 -20 -20 -20
-20 -20 -20 -20 -20 -20 -20 -20 -20 -20 -20 -20 -20 -20 -20 -20 -20 -20 -20 -20 -20 -20 -20 -20 -20 -20 -20 -20 -20 -20 -20 -20 -20 -20 -20 -20 -20 -20 -20 -20 -20 -20 -17
-20 -20 -20 -20 -20 -20 -20 -20 -20 -20 -20 -20 -20 -20 -20 -20 -20 -20 -20 -20 -20 -20 -20 -20 -20 -20 -20 -20 -20 -20 -20 -20 -20 -20 -20 -20 -20 -20 -20 -20 -20 -20 -20
-20 -20 -20 -20 -20 -20 -20 -20 -20 -20 -20 -20 -20 -20 -20 -20 -20 -20 -20 -20 -20 -20 -20 -20 -20 -20 -20 -20 -20 -20 -20 -20 -20 -20 -20 -20 -20 -20 -20 -20 -20 -17 10
-20 -20 -20 -20 -20 -20 -20 -20 -20 -20 -20 -20 -20 -20 -20 -20 -20 -20 -20 -20 -20 -20 -20 -20 -20 -20 -20 -20 -20 -20 -20 -20 -20 -20 -20 -20 -20 -20 -20 -2 10 15 20
-20 -20 -20 -20 -20 -20 -20 -20 -20 -20 -20 -20 -20 -20 -20 -20 -20 -20 -20 -20 -20 -20 -20 -20 -20 -20 -20 -20 -20 -20 -20 -20 -20 -20 -20 -20 -20 -20 -20 -9 10 6 15
-20 -20 -20 -20 -20 -20 -20 -20 -20 -20 -20 -20 -20 -20 -20 -20 -20 -20 -20 -20 -20 -20 -20 -20 -20 -20 -20 -20 -20 -20 -20 -20 -20 -20 -20 -20 -8 -20 -10 15 -20 -20 -20
-20 -20 -20 -20 -20 -20 -20 -20 -20 -20 -20 -20 -20 -20 -20 -20 -20 -20 -20 -20 -20 -20 -20 -20 -20 -20 -20 -20 -20 -20 -20 -20 -20 -20 -20 -20 -20 -20 -20 -20 -20 -20 -20
-20 -20 -20 -20 -20 -20 -20 -20 -20 -20 -20 -20 -20 -20 -20 -20 -20 -20 -20 -20 -20 -20 -20 -20 -20 -20 -20 -20 -20 -20 -20 -20 -20 -20 -20 -20 -0 -13 -20 -20 -20 -19 -4
-20 -20 -20 -20 -20 -20 -20 -20 -20 -20 -20 -20 -20 -20 -20 -20 -20 -20 -20 -20 -20 -20 -20 -20 -20 -20 -20 -20 -20 -20 -20 -20 -20 -20 -20 -20 -20 -20 -20 -20 -20 -19 -10
-20 -20 -20 -20 -20 -20 -20 -20 -20 -20 -20 -20 -20 -20 -20 -20 -20 -20 -20 -20 -20 -20 -20 -20 -20 -20 -20 -20 -20 -20 -20 -20 -20 -20 -20 -20 -20 -16 -20 6 -18 -15 -9
-20 -20 -20 -20 -20 -20 -20 -20 -20 -20 -20 -20 -20 -20 -20 -20 -20 -20 -20 -20 -20 -20 -20 -20 -20 -20 -20 -20 -20 -20 -20 -20 -20 -20 -20 -20 -20 -20 5 -16 -7 12 16
-20 -20 -20 -20 -20 -20 -20 -20 -20 -20 -20 -20 -20 -20 -20 -20 -20 -20 -20 -20 -20 -20 -20 -20 -20 -20 -20 -20 -20 -20 -20 2 2 -20 -20 -20 -1 2 -17 -4 -16 -18 -20
-20 -20 -20 -20 -20 -20 -20 -20 -20 -20 -20 -20 -20 -20 -20 -20 -20 -20 -20 -20 -20 -20 -9 -20 -20 -20 -20 -20 -20 -20 -20 -20 -20 -20 -20 -9 -16 -20 -20 -20 -20 -3 23
-20 -20 -20 -20 -20 -20 -20 -20 -20 -20 -20 -20 -20 -20 -20 -20 -20 -20 -20 -20 -20 -20 -20 -5 -20 -20 -20 1 -9 -20 -20 -20 -20 -20 -20 -20 -20 -19 -2 10 23 15 -7
-20 -20 -20 -20 -20 -20 -20 -20 -20 -20 -20 -20 -20 -20 -20 -20 -20 -20 -20 -10 -20 -20 -20 -20 4 -19 19 -12 -20 -20 -20 -20 -20 -20 -20 -7 -6 -12 -18 -20 -20 -20 -20
-20 -20 -20 -20 -20 -20 -20 -20 -20 -20 -20 -20 -20 -20 -20 -20 -20 -20 -2 -20 -0 -20 6 12 -20 9 -16 -20 -20 -20 -20 -20 -15 5 -14 -20 -10 -20 -20 -20 -20 -20 -5
-20 -20 -20 -20 -20 -20 -20 -20 -20 -20 -20 -20 -20 -20 -20 -20 -20 -1 -20 -20 9 11 8 8 21 -20 -20 -20 -20 -20 -1 15 -20 -20 -5 -20 -15 -20 -20 -20 -5 5 5
-20 -20 -20 -20 -20 -20 -20 -20 -20 -20 -20 -20 -20 -20 -20 -20 -20 -20 -20 10 -1 1 18 -16 -20 -20 -16 6 11 11 -16 -4 -3 -17 -15 -15 -20 -20 -20 -20 -20 -16 -14
-20 -20 -20 -20 -20 -20 -20 -20 -20 -20 -20 -20 -20 -20 -20 -20 -20 6 2 -15 14 -0 -20 -20 -8 3 7 -11 -4 -9 2 7 -8 -18 -20 -15 -20 -20 -20 -20 -20 -20 -15
-20 -20 -20 -20 -20 -20 -20 -20 -20 -20 -20 -20 -20 -20 -20 -20 -20 -19 12 13 -20 -20 -20 -3 12 -6 -20 -17 -14 12 -4 4 -20 -20 -20 -20 -20 -20 -20 -20 -20 -20 -5
-20 -20 -20 -20 -20 -20 -20 -20 -20 -20 -20 -20 -20 -20 -20 -20 11 22 -8 -20 -20 -20 -4 -20 -20 -20 -20 -20 -5 -9 -1 9 -17 -19 -20 -3 -19 -20 3 -20 -20 -20 -20

GFSMA_prec_radar_003.txt.gz
Reflectivity
-20 -20 -15 9 -20 -20 -20 -20 -20 -20 -20 -20 -20 -20 -20 -20 -20 -20 -20 -20 -20 -20 -20 -20 -20 -20 -20 -20 -20 -20 10 -2 4 4 1 1 -7 -17 -20 2 0 21 20
-20 -20 -20 -20 -20 -20 -20 -20 -20 -20 -20 -20 -20 -20 -20 -20 -20 -20 -20 -20 -20 -20 -20 -20 -20 -20 -20 -20 -20 -20 -20 -20 -20 -20 -20 -20 -20 -20 -20 -20 -20 -20 3
-7 -20 -20 -20 -20 -20 -20 -20 -20 -20 -20 -20 -20 -20 -20 -20 -20 -20 -20 -20 -20 -20 -20 -20 -20 -20 -20 -20 -20 -20 -20 -20 -20 -20 -20 -20 -20 -20 -20 -20 -20 -20 -20
-20 -20 -20 -20 -20 -20 -20 -20 -20 -20 -20 -20 -20 -20 -20 -20 -20 -20 -20 -20 -20 -20 -20 -20 -20 -20 -20 -20 -20 -20 -20 -20 -20 -20 -20 -20 -20 -20 -20 -20 -20 -20 -20
-13 -20 -20 -20 -20 -20 -20 -20 -20 -20 -20 -20 -20 -20 -20 -20 -20 -20 -20 -20 -20 -20 -20 -20 -20 -20 -20 -20 -20 -20 -20 -20 -20 -20 -20 -20 -20 -20 -20 -20 -20 -20 -20
-20 -20 -20 -20 -20 -20 -20 -20 -20 -20 -20 -20 -20 -20 -20 -20 -20 -20 -20 -20 -20 -20 -20 -20 -20 -20 -20 -20 -20 -20 -20 -20 -20 -20 -20 -20 -20 -20 -20 -20 -20 -20 -20
-20 -20 -20 -20 -20 -20 -20 -20 -20 -20 -20 -20 -20 -20 -20 -20 -20 -20 -20 -20 -20 -20 -20 -20 -20 -20 -20 -20 -20 -20 -20 -20 -20 -20 -20 -20 -20 -20 -20 -20 -20 -20 -20
-20 -20 -20 -20 -20 -20 -20 -20 -20 -20 -20 -20 -20 -20 -20 -20 -20 -20 -20 -20 -20 -20 -20 -20 -20 -20 -20 -20 -20 -20 -20 -20 -20 -20 -20 -20 -20 -20 -20 -20 -20 -20 -20
-20 -20 -20 -20 -20 -20 -20 -20 -20 -20 -20 -20 -20 -20 -20 -20 -20 -20 -20 -20 -20 -20 -20 -20 -20 -20 -20 -20 -20 -20 -20 -20 -20 -20 -20 -20 -20 -20 -20 -20 -20 -20 -20
-20 -20 -20 -20 -20 -20 -20 -20 -20 -20 -20 -20 -20 -20 -20 -20 -20 -20 -20 -20 -20 -20 -20 -20 -20 -20 -20 -20 -20 -20 -20 -20 -20 -20 -20 -20 -20 -20 -20 -20 -20 -20 -20
-20 -20 -20 -20 -20 -20 -20 -20 -20 -20 -20 -20 -20 -20 -20 -20 -20 -20 -20 -20 -20 -20 -20 -20 -20 -20 -20 -20 -20 -20 -20 -20 -20 -20 -20 -20 -20 -20 -20 -18 -0 -12 -20
-20 -20 -20 -20 -20 -20 -20 -20 -20 -20 -20 -20 -20 -20 -20 -20 -20 -20 -20 -20 -20 -20 -20 -20 -20 -20 -20 -20 -20 -20 -20 -20 -20 -20 -20 -20 -11 -0 -13 -0 -8 -20 -20
-20 -20 -20 -20 -20 -20 -20 -20 -20 -20 -20 -20 -20 -20 -20 -20 -20 -20 -20 -20 -20 -20 -20 -20 -20 -20 -20 -20 -20 -20 -20 -20 -20 -20 -20 -19 -20 -20 -10 -10 -12 -20 -20
-20 -20 -20 -20 -20 -20 -20 -20 -20 -20 -20 -20 -20 -20 -20 -20 -20 -20 -20 -20 -20 -20 -20 -20 -20 -20 -20 -20 -20 -20 -20 -20 -20 -20 -20 -18 -20 -20 -20 -20 -20 -20 -17
-20 -20 -20 -20 -20 -20 -20 -20 -20 -20 -20 -20 -20 -20 -20 -20 -20 -20 -20 -20 -20 -20 -20 -20 -20 -20 -20 -20 -20 -20 -20 -20 -20 -20 -20 -20 -20 -20 -20 -20 -20 -20 -19
-20 -20 -20 -20 -20 -20 -20 -20 -20 -20 -20 -20 -20 -20 -20 -20 -20 -20 -20 -20 -20 -20 -20 -20 -20 -20 -20 -20 -20 -20 -20 -20 -20 -20 -20 -20 -20 -20 -20 -20 -20 -16 23
-20 -20 -20 -20 -20 -20 -20 -20 -20 -20 -20 -20 -20 -20 -20 -20 -20 -20 -20 -20 -20 -20 -20 -20 -20 -20 -20 -20 -20 -20 -7 3 -19 -20 -20 -20 -20 -20 -20 8 18 -15 17
-20 -20 -20 -20 -20 -20 -20 -20 -20 -20 -20 -20 -20 -20 -20 -20 -20 -20 -20 -20 -20 -20 -4 2 -20 -20 -20 -20 -20 -20 -19 -20 -20 -20 -20 -20 -20 -19 6 -17 -14 1 -18
-20 -20 -20 -20 -20 -20 -20 -20 -20 -20 -20 -20 -20 -20 -20 -20 -20 -20 -20 -20 -20 -1 -12 -20 -20 -20 -20 -20 -19 -9 -20 -20 -20 -20 -20 -20 -18 -14 2 -3 5 13 17
-20 -20 -20 -20 -20 -20 -20 -20 -20 -20 -20 -20 -20 -20 -20 -20 -20 -20 -20 -14 -1 -20 -20 -20 6 4 -20 -9 -19 -20 -20 -20 -20 -20 -20 -5 -8 -20 -20 -20 -20 -19 -20
-20 -20 -20 -20 -20 -20 -20 -20 -20 -20 -20 -20 -20 -20 -20 -20 -20 -20 -5 -12 -8 -5 -12 14 -20 4 -17 -20 -20 -20 -20 -20 -10 5 -20 -20 -20 -20 -20 -20 -20 -20 -14
-20 -20 -20 -20 -20 -20 -20 -20 -20 -20 -20 -20 -20 -20 -20 -20 -20 -20 -20 -20 8 9 8 10 14 -20 -20 -20 -20 -2 5 5 -20 -20 -2 -20 -20 -20 -20 -20 -20 6 6
-20 -20 -20 -20 -20 -20 -20 -20 -20 -20 -20 -20 -20 -20 -20 -20 -20 -20 -20 -15 17 22 -3 -5 -20 -20 -20 2 11 -9 -20 -1 2 -20 -16 -20 -20 -20 -20 -20 -20 -20 5
-20 -20 -20 -20 -20 -20 -20 -20 -20 -20 -20 -20 -20 -20 -20 -20 -20 0 17 -1 -20 -20 -20 -20 -14 -3 5 -11 -15 -16 -10 -4 -11 -17 1 -2 -20 -20 -20 -20 -20 -20 -2
-20 -20 -20 -20 -20 -20 -20 -20 -20 -20 -20 -20 -20 -20 -20 1 -20 13 -2 -20 -20 -20 -20 -20 9 -6 -20 -20 -2 10 -8 -20 -20 -20 -20 -20 -20 -20 -20 -20 -20 -20 -1
-20 -20 -20 -20 -20 -20 -20 -20 -20 -20 -20 -20 -20 -20 -20 6 3 13 -0 -20 -20 -20 4 -19 -20 -20 -20 -20 -20 -20 3 11 -16 -19 -20 2 -16 -19 -1 -20 -20 -20 -20

GFSMA_prec_radar_006.txt.gz
Reflectivity
-20 -20 -11 -5 -5 -20 -20 -20 -20 -20 -20 -20 -20 -20 -20 -20 -20 -20 -20 -20 -20 -20 -20 -20 -20 -20 -20 -20 -20 -20 -20 -20 -20 -20 -20 -20 -20 -20 -20 -20 -20 -6 5
-10 -20 9 -20 -20 -20 -20 -20 -20 -20 -20 -20 -20 -20 -20 -20 -20 -20 -20 -20 -20 -20 -20 -20 -20 -20 -20 -20 -20 -20 -20 -20 -20 -20 -20 -20 -20 -20 -20 -20 -20 -20 -20
13 -19 -20 -20 -20 -20 -20 -20 -20 -20 -20 -20 -20 -20 -20 -20 -20 -20 -20 -20 -20 -20 -20 -20 -20 -20 -20 -20 -20 -20 -20 -20 -20 -20 -20 -20 -20 -20 -20 -20 -20 -20 -20
-4 5 -20 -20 -20 -20 -20 -20 -20 -20 -20 -20 -20 -20 -20 -20 -20 -20 -20 -20 -20 -20 -20 -20 -20 -20 -20 -20 -20 -20 -20 -20 -20 -20 -20 -20 -20 -20 -20 -20 -20 -20 -20
-20 -20 -20 -20 -20 -20 -20 -20 -20 -20 -20 -20 -20 -20 -20 -20 -20 -20 -20 -20 -20 -20 -20 -20 -20 -20 -20 -20 -20 -20 -20 -20 -20 -20 -20 -20 -20 -20 -20 -20 -20 -20 -20
-20 -20 -20 -20 -20 -20 -20 -20 -20 -20 -20 -20 -20 -20 -20 -20 -20 -20 -20 -20 -20 -20 -20 -20 -20 -20 -20 -20 -20 -20 -20 -20 -20 -20 -20 -20 -20 -20 -20 -20 -20 -20 -20
-20 -20 -20 -20 -20 -20 -20 -20 -20 -20 -20 -20 -20 -20 -20 -20 -20 -20 -20 -20 -20 -20 -20 -20 -20 -20 -20 -20 -20 -20 -20 -20 -20 -20 -20 -20 -20 -20 -20 -20 -20 -20 -20
-20 -20 -20 -20 -20 -20 -20 -20 -20 -20 -20 -20 -20 -20 -20 -20 -20 -20 -20 -20 -20 -20 -20 -20 -20 -20 -20 -20 -20 -20 -20 -20 -20 -20 -20 -20 -20 -20 -20 -20 -20 -20 -20
-20 -20 -20 -20 -20 -20 -20 -20 -20 -20 -20 -20 -20 -20 -20 -20 -20 -20 -20 -20 -20 -20 -20 -20 -20 -20 -20 -20 -20 -20 -20 -20 -20 -20 -20 -20 -20 -20 -20 -20 -20 -20 -20
-20 -20 -20 -20 -20 -20 -20 -20 -20 -20 -20 -20 -20 -20 -20 -20 -20 -20 -20 -20 -20 -20 -20 -20 -20 -20 -20 -20 -20 -20 -20 -20 -20 -20 -20 -20 -3 -20 -20 -20 -2 -16 -20
-20 -20 -20 -20 -20 -20 -20 -20 -20 -20 -20 -20 -20 -20 -20 -20 -20 -20 -20 -20 -20 -20 -20 -20 -20 -20 -20 -20 -20 -20 -20 -20 -20 -20 -20 -17 -0 -20 -19 -1 -13 -10 -3
-20 -20 -20 -20 -20 -20 -20 -20 -20 -20 -20 -20 -20 -20 -20 -20 -20 -20 -20 -20 -20 -20 -20 -20 -20 -20 -20 -20 -20 -20 -20 -20 -20 -20 -20 -20 -0 -20 -20 -20 -20 -15 3
-20 -20 -20 -20 -20 -20 -20 -20 -20 -20 -20 -20 -20 -20 -20 -20 -20 -20 -20 -20 -20 -20 -20 -20 -20 -20 -20 -20 -20 -20 -20 -20 -20 -20 -20 -20 -17 -7 -20 -20 -12 -20 -20
-20 -20 -20 -20 -20 -20 -20 -20 -20 -20 -20 -20 -20 -20 -20 -20 -20 -20 -20 -20 -20 -20 -20 -20 -20 -20 -20 -20 -20 -20 -20 -20 -20 -20 -20 -20 -20 1 -15 -20 -12 -13 -9
-20 -20 -20 -20 -20 -20 -20 -20 -20 -20 -20 -20 -20 -20 -20 -20 -20 -20 -20 -20 -20 -20 -20 -20 -20 -20 -20 -20 -20 -20 -20 -20 -20 -20 -20 1 -7 -20 -20 -20 -20 -20 -20
-20 -20 -20 -20 -20 -20 -20 -20 -20 -20 -20 -20 -20 -20 -20 -20 -20 -20 -20 -20 -20 -20 -20 -20 -20 -20 -20 -20 -20 -20 -20 -20 -20 -20 6 -20 -20 -20 -20 -20 -20 -20 -12
-20 -20 -20 -20 -20 -20 -20 -20 -20 -20 -20 -20 -20 -20 -20 -20 -20 -20 -20 -20 -20 -20 -20 -20 -20 -20 -20 -20 -20 -20 -20 -20 -5 18 -18 -20 -20 -20 -20 -20 -4 3 5
-20 -20 -20 -20 -20 -20 -20 -20 -20 -20 -20 -20 -20 -20 -20 -20 -20 -20 -20 -20 -20 -20 -20 -20 -20 -20 -20 -20 -20 -20 -20 -20 -20 -20 -20 -20 -4 -19 -17 3 19 18 18
-20 -20 -20 -20 -20 -20 -20 -20 -20 -20 -20 -20 -20 -20 -20 -20 -20 -20 -20 -20 -20 -20 -6 -17 -20 -20 -20 -20 -20 -20 -20 -20 -20 -20 -20 -20 -20 -19 5 6 5 7 4
-20 -20 -20 -20 -20 -20 -20 -20 -20 -20 -20 -20 -20 -20 -20 -20 -20 -20 -20 -20 -20 -20 -20 -20 -20 -14 -4 -20 -20 -20 -20 -20 -20 -20 -20 -2 -7 -20 -20 -20 -20 -20 -19
-20 -20 -20 -20 -20 -20 -20 -20 -20 -20 -20 -20 -20 -20 -20 -20 -20 -20 -20 -20 -20 -20 -10 14 13 -14 -20 -20 -20 -20 -20 -20 -20 -15 -20 -20 -20 -20 -20 -20 -20 -20 -5
-20 -20 -20 -20 -20 -20 -20 -20 -20 -20 -20 -20 -20 -20 -20 -20 -20 -20 -20 -20 5 20 -19 -20 -20 -20 -20 -20 -20 -19 4 -20 -20 -20 -20 -20 -20 -20 -20 -20 -20 -3 6
-20 -20 -20 -20 -20 -20 -20 -20 -20 -20 -20 -20 -20 -20 -20 -20 -20 -20 -20 -15 17 -20 -20 -20 -20 -20 -20 -14 4 -20 -20 -14 -20 -20 -18 -17 -20 -20 -20 -20 -20 -20 -1
-20 -20 -20 -20 -20 -20 -20 -20 -20 -20 -20 -20 -20 -20 -20 -20 -20 1 1 0 -20 -20 -20 -20 -20 -13 3 -19 -20 -17 -19 -2 -20 -20 -20 -2 -20 -20 -20 -20 -20 -20 -2
-20 -20 -20 -20 -20 -20 -20 -20 -20 -20 -20 -20 -20 -20 -20 -5 -3 10 10 -19 -20 -20 -20 -20 10 -8 -20 -20 -14 5 -11 -20 -20 -20 -20 -20 -20 -20 -20 -20 -20 -20 -16
-20 -20 -20 -20 -20 -20 -20 -20 -20 -20 -20 -20 -20 -20 -20 3 7 15 3 -20 -20 -20 -3 -18 -20 -20 -20 -20 -20 -20 -20 6 -18 -14 -20 2 -17 -18 7 -2 -20 -20 -20

GFSMA_prec_radar_009.txt.gz
Reflectivity
-20 -20 -13 -17 -20 -20 -20 -20 -20 -20 -20 -20 -20 -20 -20 -20 -20 -20 -20 -20 -20 -20 -20 -20 -20 -20 -20 -20 -20 -20 -20 -20 -20 -20 -20 -20 -20 -20 -20 -20 -20 -20 -6
-11 -16 -7 -13 -20 -20 -20 -20 -20 -20 -20 -20 -20 -20 -20 -20 -20 -20 -20 -20 -20 -20 -20 -20 -20 -20 -20 -20 -20 -20 -20 -20 -20 -20 -20 -20 -20 -20 -20 -20 -20 -20 -20
2 -9 -19 -20 -20 -20 -20 -20 -20 -20 -20 -20 -20 -20 -20 -20 -20 -20 -20 -20 -20 -20 -20 -20 -20 -20 -20 -20 -20 -20 -20 -20 -20 -20 -20 -20 -20 -20 -20 -20 -20 -20 -20
-1 -12 -20 -20 -20 -20 -20 -20 -20 -20 -20 -20 -20 -20 -20 -20 -20 -20 -20 -20 -20 -20 -20 -20 -20 -20 -20 -20 -20 -20 -20 -20 -20 -20 -20 -20 -20 -20 -20 -20 -20 -20 -20
-20 -20 -20 -20 -20 -20 -20 -20 -20 -20 -20 -20 -20 -20 -20 -20 -20 -20 -20 -20 -20 -20 -20 -20 -20 -20 -20 -20 -20 -20 -20 -20 -20 -20 -20 -20 -20 -20 -20 -20 -20 -20 -20
-20 -20 -20 -20 -20 -20 -20 -20 -20 -20 -20 -20 -20 -20 -20 -20 -20 -20 -20 -20 -20 -20 -20 -20 -20 -20 -20 -20 -20 -20 -20 -20 -20 -20 -20 -20 -20 -20 -20 -20 -20 -20 -20
-20 -20 -20 -20 -20 -20 -20 -20 -20 -20 -20 -20 -20 -20 -20 -20 -20 -20 -20 -20 -20 -20 -20 -20 -20 -20 -20 -20 -20 -20 -20 -20 -20 -20 -20 -20 -20 -20 -20 -20 -20 -20 -20
-20 -20 -20 -20 -20 -20 -20 -20 -20 -20 -20 -20 -20 -20 -20 -20 -20 -20 -20 -20 -20 -20 -20 -20 -20 -20 -20 -20 -20 -20 -20 -20 -20 -20 -20 -20 -20 -20 -20 -20 -20 -20 -20
-20 -20 -20 -20 -20 -20 -20 -20 -20 -20 -20 -20 -20 -20 -20 -20 -20 -20 -20 -20 -20 -20 -20 -20 -20 -20 -20 -20 -20 -20 -20 -20 -20 -20 -20 -20 -20 -20 -20 -20 -20 -13 -20
-20 -20 -20 -20 -20 -20 -20 -20 -20 -20 -20 -20 -20 -20 -20 -20 -20 -20 -20 -20 -20 -20 -20 -20 -20 -20 -20 -20 -20 -20 -20 -20 -20 -20 -20 -20 -20 -20 -20 -20 -0 -19 -5
-20 -20 -20 -20 -20 -20 -20 -20 -20 -20 -20 -20 -20 -20 -20 -20 -20 -20 -20 -20 -20 -20 -20 -20 -20 -20 -20 -20 -20 -20 -20 -20 -20 -20 -20 -20 -20 -20 -20 -4 -19 9 14
-20 -20 -20 -20 -20 -20 -20 -20 -20 -20 -20 -20 -20 -20 -20 -20 -20 -20 -20 -20 -20 -20 -20 -20 -20 -20 -20 -20 -20 -20 -20 -20 -20 -20 -20 -0 -12 6 14 13 15 -3 20
-20 -20 -20 -20 -20 -20 -20 -20 -20 -20 -20 -20 -20 -20 -20 -20 -20 -20 -20 -20 -20 -20 -20 -20 -20 -20 -20 -20 -20 -20 -20 -20 -20 -20 -20 -1 -6 -7 9 3 2 16 20
-20 -20 -20 -20 -20 -20 -20 -20 -20 -20 -20 -20 -20 -20 -20 -20 -20 -20 -20 -20 -20 -20 -20 -20 -20 -20 -20 -20 -20 -20 -20 -20 -20 -20 -20 -17 -20 -20 -20 7 19 19 18
-20 -20 -20 -20 -20 -20 -20 -20 -20 -20 -20 -20 -20 -20 -20 -20 -20 -20 -20 -20 -20 -20 -20 -20 -20 -20 -20 -20 -20 -20 -20 -20 -20 -20 -20 -20 -20 5 10 10 -20 -19 -5
-20 -20 -20 -20 -20 -20 -20 -20 -20 -20 -20 -20 -20 -20 -20 -20 -20 -20 -20 -20 -20 -20 -20 -20 -20 -20 -20 -20 -20 -20 -20 -20 -20 -20 -20 -20 -20 -20 -20 -20 -20 -18 -1
-20 -20 -20 -20 -20 -20 -20 -20 -20 -20 -20 -20 -20 -20 -20 -20 -20 -20 -20 -20 -20 -20 -20 -20 -20 -20 -20 -20 -20 -20 -20 -20 -16 -20 -20 -19 2 -17 -0 -2 -9 -8 -4
-20 -20 -20 -20 -20 -20 -20 -20 -20 -20 -20 -20 -20 -20 -20 -20 -20 -20 -20 -20 -20 -20 -20 -20 -20 -20 -20 -20 -20 -11 7 -3 -20 -20 -20 -20 -20 -13 1 6 10 14 18
-20 -20 -20 -20 -20 -20 -20 -20 -20 -20 -20 -20 -20 -20 -20 -20 -20 -20 -20 -20 -20 -20 -20 4 -20 -20 -17 6 2 -17 -20 -20 -20 -20 -20 -20 -20 -20 -20 -16 8 6 5
-20 -20 -20 -20 -20 -20 -20 -20 -20 -20 -20 -20 -20 -20 -20 -20 -20 -20 -20 -20 -20 -20 -20 -20 -4 4 -14 -20 -20 -20 -20 -20 -13 -20 -20 -16 -20 -20 -20 -20 -16 -20 -20
-20 -20 -20 -20 -20 -20 -20 -20 -20 -20 -20 -20 -20 -20 -20 -20 -20 -20 -3 -11 -7 4 11 11 8 -20 -20 -20 -20 -20 -4 -1 -0 -3 -20 -20 -20 -20 -20 -20 -20 -20 -15
-20 -20 -20 -20 -20 -20 -20 -20 -20 -20 -20 -20 -20 -20 -20 -20 -20 -16 -20 -3 9 14 12 9 6 -9 -20 -20 -20 7 11 6 -20 -20 -20 -20 -20 -20 -20 -20 -20 -5 -0
-20 -20 -20 -20 -20 -20 -20 -20 -20 -20 -20 -20 -20 -20 -20 -20 -20 -20 -20 2 20 -20 -20 -20 -20 -20 -20 -20 11 7 7 8 7 -20 -7 -20 -20 -20 -20 -20 -20 -20 -3
-20 -20 -20 -20 -20 -20 -20 -20 -20 -20 -20 -20 -20 -20 -20 -20 -20 2 5 17 -20 -20 -20 -20 -20 -7 12 3 3 6 7 10 -3 -20 -20 -19 -20 -20 -20 -20 -20 -20 -20
-20 -20 -20 -20 -20 -20 -20 -20 -20 -20 -20 -20 -20 -20 -20 -7 3 5 10 -19 -20 -20 -20 -20 8 -2 -20 -20 -14 4 3 -20 -20 -20 -20 -20 -20 -20 -20 -20 -20 -20 -20
-20 -20 -20 -20 -20 -20 -20 -20 -20 -20 -20 -20 -20 -20 -20 3 5 11 4 -16 -20 -20 -18 8 -20 -20 -20 -20 -20 -20 -5 1 -20 -13 -20 -6 -18 -13 -1 -19 -5 -18 -13

GFSMA_prec_radar_012.txt.gz
Reflectivity
-20 -20 -20 -20 -20 -20 -20 -20 -20 -20 -20 -20 -20 -20 -20 -20 -20 -20 -20 -20 -20 -20 -20 -20 -20 -20 -20 -20 -20 -20 -20 -20 -20 -20 -20 -20 -20 -20 -20 -20 -20 -20 -20
-13 -20 -20 -20 -20 -20 -20 -20 -20 -20 -20 -20 -20 -20 -20 -20 -20 -20 -20 -20 -20 -20 -20 -20 -20 -20 -20 -20 -20 -20 -20 -20 -20 -20 -20 -20 -20 -20 -20 -20 -20 -20 -20
-20 -20 -20 -20 -20 -20 -20 -20 -20 -20 -20 -20 -20 -20 -20 -20 -20 -20 -20 -20 -20 -20 -20 -20 -20 -20 -20 -20 -20 -20 -20 -20 -20 -20 -20 -20 -20 -20 -20 -20 -20 -20 -20
-20 -20 -20 -20 -20 -20 -20 -20 -20 -20 -20 -20 -20 -20 -20 -20 -20 -20 -20 -20 -20 -20 -20 -20 -20 -20 -20 -20 -20 -20 -20 -20 -20 -20 -20 -20 -20 -20 -20 -20 -20 -20 -20
-20 -20 -20 -20 -20 -20 -20 -20 -20 -20 -20 -20 -20 -20 -20 -20 -20 -20 -20 -20 -20 -20 -20 -20 -20 -20 -20 -20 -20 -20 -20 -20 -20 -20 -20 -20 -20 -20 -20 -20 -20 -20 -20
-20 -20 -20 -20 -20 -20 -20 -20 -20 -20 -20 -20 -20 -20 -20 -20 -20 -20 -20 -20 -20 -20 -20 -20 -20 -20 -20 -20 -20 -20 -20 -20 -20 -20 -20 -20 -20 -20 -20 -20 -20 -20 -20
-20 -20 -20 -20 -20 -20 -20 -20 -20 -20 -20 -20 -20 -20 -20 -20 -20 -20 -20 -20 -20 -20 -20 -20 -20 -20 -20 -20 -20 -20 -20 -20 -20 -20 -20 -20 -20 -20 -20 -20 -20 -20 -20
-3 -20 -20 -20 -20 -20 -20 -20 -20 -20 -20 -20 -20 -20 -20 -20 -20 -20 -20 -20 -20 -20 -20 -20 -20 -20 -20 -20 -20 -20 -20 -20 -20 -20 -20 -20 -20 -20 -20 -20 -20 -20 -20
4 -20 -20 -20 -20 -20 -20 -20 -20 -20 -20 -20 -20 -20 -20 -20 -20 -20 -20 -20 -20 -20 -20 -20 -20 -20 -20 -20 -20 -20 -20 -20 -20 -20 -20 -20 -20 -20 -20 -20 -20 -20 -20
-17 -20 -20 -20 -20 -20 -20 -20 -20 -20 -20 -20 -20 -20 -20 -20 -20 -20 -20 -20 -20 -20 -20 -20 -20 -20 -20 -20 -20 -20 -20 -20 -20 -20 -20 -20 -20 -20 -20 -19 -9 -14 18
-20 -20 -20 -20 -20 -20 -20 -20 -20 -20 -20 -20 -20 -20 -20 -20 -20 -20 -20 -20 -20 -20 -20 -20 -20 -20 -20 -20 -20 -20 -20 -20 -20 -20 -20 -20 -20 -20 -17 -20 -18 2 13
-20 -20 -20 -20 -20 -20 -20 -20 -20 -20 -20 -20 -20 -20 -20 -20 -20 -20 -20 -20 -20 -20 -20 -20 -20 -20 -20 -20 -20 -20 -20 -20 -20 -20 -20 -20 -20 -12 -20 -7 -9 12 10
-20 -20 -20 -20 -20 -20 -20 -20 -20 -20 -20 -20 -20 -20 -20 -20 -20 -20 -20 -20 -20 -20 -20 -20 -20 -20 -20 -20 -20 -20 -20 -20 -20 -20 -20 -20 -3 -17 -20 -20 -18 -15 -20
-20 -20 -20 -20 -20 -20 -20 -20 -20 -20 -20 -20 -20 -20 -20 -20 -20 -20 -20 -20 -20 -20 -20 -20 -20 -20 -20 -20 -20 -20 -20 -20 -20 -11 -20 -20 -19 -20 -20 -20 -20 6 19
-20 -20 -20 -20 -20 -20 -20 -20 -20 -20 -20 -20 -20 -20 -20 -20 -20 -20 -20 -20 -20 -20 -20 -20 -20 -20 -20 -20 -20 -20 -20 -20 -20 -12 -20 -20 -20 -18 -13 -13 -17 -12 -17
-20 -20 -20 -20 -20 -20 -20 -20 -20 -20 -20 -20 -20 -20 -20 -20 -20 -20 -20 -20 -20 -20 -20 -20 -20 -20 -20 -20 -20 -20 -20 -20 -20 -17 -20 -20 -2 -20 -20 -20 -19 -17 -19
-20 -20 -20 -20 -20 -20 -20 -20 -20 -20 -20 -20 -20 -20 -20 -20 -20 -20 -20 -20 -20 -20 -20 -20 -20 -20 -20 -20 -20 -20 -20 -20 -20 -20 -20 -20 -20 -20 -20 1 -4 -10 -8
-20 -20 -20 -20 -20 -20 -20 -20 -20 -20 -20 -20 -20 -20 -20 -20 -20 -20 -20 -20 -20 -20 -20 -20 -20 -20 -20 -20 -20 -20 -20 -20 -20 -20 -20 -20 -20 -2 -20 -19 -19 -17 9
-20 -20 -20 -20 -20 -20 -20 -20 -20 -20 -20 -20 -20 -20 -20 -20 -20 -20 -20 -20 -20 -20 -20 -20 -20 -20 1 -15 -5 -20 -20 -20 -20 -20 -20 -20 -20 -20 -20 -20 -20 -20 -20
-20 -20 -20 -20 -20 -20 -20 -20 -20 -20 -20 -20 -20 -20 -20 -20 -20 -20 -20 -20 -20 -20 -20 -10 -3 10 4 -20 -20 -20 -20 -20 -20 -20 -20 -20 -20 -20 -20 -20 -20 -20 -1
-20 -14 -20 -20 -20 -20 -20 -20 -20 -20 -20 -20 -20 -20 -20 -20 -20 -20 -20 -20 -19 -10 8 12 17 8 -3 -20 -20 -20 -9 1 -11 -20 -20 -20 -20 -20 -20 -20 -20 -20 -20
-0 -20 -20 -20 -20 -20 -20 -20 -20 -20 -20 -20 -20 -20 -20 -20 -20 -20 -20 -20 2 5 16 17 11 6 -20 -20 -20 -0 10 9 0 -20 -20 -20 -20 -20 -20 -20 -20 -20 -10
-20 -20 -20 -20 -20 -20 -20 -20 -20 -20 -20 -20 -20 -20 -20 -20 -20 -20 -20 1 10 16 14 6 4 -20 -19 -12 -9 14 8 10 7 -18 -1 -8 -20 -20 -20 -20 -20 -20 -20
-20 -20 -20 -20 -20 -20 -20 -20 -20 -20 -20 -20 -20 -20 -20 -20 -20 1 6 15 10 -13 -20 -20 -20 -20 2 9 6 3 8 5 -2 -16 -20 -20 -20 -20 -20 -20 -20 -20 -20
-20 -20 -20 -20 -20 -20 -20 -20 -20 -20 -20 -20 -20 -20 -20 -8 -20 6 14 8 -3 -20 -20 -20 1 7 -7 -17 -4 -0 7 9 -20 -20 -20 -17 -20 -20 -20 -20 -20 -20 -17
-20 -20 -20 -20 -20 -20 -20 -20 -20 -20 -20 -20 -20 -20 -20 -1 4 13 2 -4 -7 -20 -18 6 -20 -20 -20 -20 -20 -20 1 8 5 -8 -20 -11 -19 -12 -13 -20 -20 -20 -20

GFSMA_prec_radar_015.txt.gz
Reflectivity
-20 -20 -20 -20 -20 -20 -20 -20 -20 -20 -20 -20 -20 -20 -20 -20 -20 -20 -20 -20 -20 -20 -20 -20 -20 -20 -20 -20 -20 -20 -20 -20 -20 -20 -20 -20 -20 -20 -20 -20 -20 -20 -20
-20 -20 -20 -20 -20 -20 -20 -20 -20 -20 -20 -20 -20 -20 -20 -20 -20 -20 -20 -20 -20 -20 -20 -20 -20 -20 -20 -20 -20 -20 -20 -20 -20 -20 -20 -20 -20 -20 -20 -20 -20 -20 -20
-20 -20 -20 -20 -20 -20 -20 -20 -20 -20 -20 -20 -20 -20 -20 -20 -20 -20 -20 -20 -20 -20 -20 -20 -20 -20 -20 -20 -20 -20 -20 -20 -20 -20 -20 -20 -20 -20 -20 -20 -20 -20 -20
-20 -20 -20 -20 -20 -20 -20 -20 -20 -20 -20 -20 -20 -20 -20 -20 -20 -20 -20 -20 -20 -20 -20 -20 -20 -20 -20 -20 -20 -20 -20 -20 -20 -20 -20 -20 -20 -20 -20 -20 -20 -20 -20
-20 -20 -20 -20 -20 -20 -20 -20 -20 -20 -20 -20 -20 -20 -20 -20 -20 -20 -20 -20 -20 -20 -20 -20 -20 -20 -20 -20 -20 -20 -20 -20 -20 -20 -20 -20 -20 -20 -20 -20 -20 -20 -20
-20 -20 -20 -20 -20 -20 -20 -20 -20 -20 -20 -20 -20 -20 -20 -20 -20 -20 -20 -20 -20 -20 -20 -20 -20 -20 -20 -20 -20 -20 -20 -20 -20 -20 -20 -20 -20 -20 -20 -20 -20 -20 -20
-20 -20 -20 -20 -20 -20 -20 -20 -20 -20 -20 -20 -20 -20 -20 -20 -20 -20 -20 -20 -20 -20 -20 -20 -20 -20 -20 -20 -20 -20 -20 -20 -20 -20 -20 -20 -20 -20 -20 -20 -20 -20 -20
-11 -0 -20 -20 -20 -20 -20 -20 -20 -20 -20 -20 -20 -20 -20 -20 -20 -20 -20 -20 -20 -20 -20 -20 -20 -20 -20 -20 -20 -20 -20 -20 -20 -20 -20 -20 -20 -20 -20 -20 -20 -20 -20
-10 -12 -19 -20 -20 -20 -20 -20 -20 -20 -20 -20 -20 -20 -20 -20 -20 -20 -20 -20 -20 -20 -20 -20 -20 -20 -20 -20 -20 -20 -20 -20 -20 -20 -20 -20 -20 -20 -20 -20 -20 -20 -20
-18 -0 -20 -20 -20 -20 -20 -20 -20 -20 -20 -20 -20 -20 -20 -20 -20 -20 -20 -20 -20 -20 -20 -20 -20 -20 -20 -20 -20 -20 -20 -20 -20 -20 -20 -20 -20 -20 -20 -20 -20 -15 -20
-1 8 -18 -20 -20 -20 -20 -20 -20 -20 -20 -20 -20 -20 -20 -20 -20 -20 -20 -20 -20 -20 -20 -20 -20 -20 -20 -20 -20 -20 -20 -20 -20 -20 -20 -20 -20 -20 -20 -20 -1 -1 -14
17 -9 -20 -20 -20 -20 -20 -20 -20 -20 -20 -20 -20 -20 -20 -20 -20 -20 -20 -20 -20 -20 -20 -20 -20 -20 -20 -20 -20 -20 -20 -20 -20 -20 -20 -20 -1 -7 -1 -20 -20 -2 -18
10 -20 -20 -20 -20 -20 -20 -20 -20 -20 -20 -20 -20 -20 -20 -20 -20 -20 -20 -20 -20 -20 -20 -20 -20 -20 -20 -20 -20 -20 -20 -20 -20 -20 -20 -19 -14 -18 -20 -20 -20 4 9
-14 -20 -20 -20 -20 -20 -20 -20 -20 -20 -20 -20 -20 -20 -20 -20 -20 -20 -20 -20 -20 -20 -20 -20 -20 -20 -20 -20 -20 -20 -20 -20 -20 -20 -20 -1 -20 -20 -20 -20 -18 -13 -20
-20 -20 -20 -20 -20 -20 -20 -20 -20 -20 -20 -20 -20 -20 -20 -20 -20 -20 -20 -20 -20 -20 -20 -20 -20 -20 -20 -20 -20 -20 -20 -20 -20 -20 -20 -20 -20 -20 -20 -20 -12 -20 -20
-20 -20 -20 -20 -20 -20 -20 -20 -20 -20 -20 -20 -20 -20 -20 -20 -20 -20 -20 -20 -20 -20 -20 -20 -20 -20 -20 -20 -20 -20 -20 -20 -20 -20 -20 -20 -15 -20 -20 -20 -20 -20 0
-20 -20 -20 -20 -20 -20 -20 -20 -20 -20 -20 -20 -20 -20 -20 -20 -20 -20 -20 -20 -20 -20 -20 -20 -20 -20 -20 -20 -20 -20 -20 -20 -20 -20 -20 -20 -20 -20 -20 -7 2 -17 -20
-20 -20 -20 -20 -20 -20 -20 -20 -20 -20 -20 -20 -20 -20 -20 -20 -20 -20 -20 -20 -20 -20 -20 -20 -20 -20 -20 -20 -20 -20 -20 -20 -20 -20 -20 -20 -20 0 -20 -20 -8 -4 -18
-20 -20 -20 -20 -20 -20 -20 -20 -20 -20 -20 -20 -20 -20 -20 -20 -20 -20 -20 -20 -20 -20 -20 -20 -20 -20 -20 -20 -12 -20 -20 -20 -20 -20 -20 -20 -20 -20 -20 -1 -20 -20 -9
-20 -20 -20 -20 -20 -20 -20 -20 -20 -20 -20 -20 -20 -20 -20 -20 -20 -20 -20 -20 -20 -20 -20 -20 -20 -20 1 8 -20 -20 -20 -20 -20 -20 -20 -20 -20 -20 -20 -20 -20 -20 -12
-20 -20 -20 -20 -20 -3 -20 -20 -20 -20 -20 -20 -20 -20 -20 -20 -20 -20 -20 -20 -19 -20 -7 -14 -2 11 -4 -20 -20 -20 -20 -20 -20 -13 -20 -20 -20 -20 -20 -20 -20 -20 -20
-20 -20 -20 -20 -20 -20 -20 -20 -20 -20 -20 -20 -20 -20 -20 -20 -20 -20 -20 -20 -2 2 7 11 12 -5 -20 -20 -20 -16 -20 -4 -19 -20 -20 -20 -20 -20 -20 -20 -20 -20 -20
-20 -20 -20 -19 -20 -20 -20 -20 -20 -20 -20 -20 -20 -20 -20 -20 -20 -20 -20 -19 -7 8 14 5 2 -6 -20 -20 -20 -20 4 3 -20 -20 -20 -20 -20 -20 -20 -20 -20 -20 -20
-20 -20 -16 -5 -20 -20 -20 -20 -20 -20 -20 -20 -20 -20 -20 -20 -20 -20 -20 -8 5 -13 -13 -20 -20 -20 -20 -17 13 11 -11 -20 -20 -20 -4 -18 -20 -20 -20 -20 -20 -20 -20
-19 3 -16 -20 -20 -20 -20 -20 -20 -20 -20 -20 -20 -20 -20 -20 -20 -20 1 2 -20 -20 -20 -20 -20 -13 0 -15 -17 -20 -20 1 -20 -20 -20 -20 -20 -20 -20 -20 -20 -20 -20
-18 -20 -20 -20 -20 -20 -20 -20 -20 -20 -20 -20 -20 -20 -20 -20 -0 -20 -4 -20 -20 -20 -20 -19 -20 -20 -20 -20 -20 -20 -13 1 -20 -20 -20 -4 -17 -19 -12 -20 -20 -20 -20

GFSMA_prec_radar_018.txt.gz
Reflectivity
-20 -20 -20 -20 -20 -20 -20 -20 -20 -20 -20 -20 -20 -20 -20 -20 -20 -20 -20 -20 -20 -20 -20 -20 -20 -20 -20 -20 -20 -20 -20 -20 -20 -20 -20 -20 -20 -20 -20 -20 -20 -20 -20
-20 -20 -20 -20 -20 -20 -20 -20 -20 -20 -20 -20 -20 -20 -20 -20 -20 -20 -20 -20 -20 -20 -20 -20 -20 -20 -20 -20 -20 -20 -20 -20 -20 -20 -20 -20 -20 -20 -20 -20 -20 -20 -20
-20 -20 -20 -20 -20 -20 -20 -20 -20 -20 -20 -20 -20 -20 -20 -20 -20 -20 -20 -20 -20 -20 -20 -20 -20 -20 -20 -20 -20 -20 -20 -20 -20 -20 -20 -20 -20 -20 -20 -20 -20 -20 -20
-20 -20 -20 -20 -20 -20 -20 -20 -20 -20 -20 -20 -20 -20 -20 -20 -20 -20 -20 -20 -20 -20 -20 -20 -20 -20 -20 -20 -20 -20 -20 -20 -20 -20 -20 -20 -20 -20 -20 -20 -20 -20 -20
-20 -20 -20 -20 -20 -20 -20 -20 -20 -20 -20 -20 -20 -20 -20 -20 -20 -20 -20 -20 -20 -20 -20 -20 -20 -20 -20 -20 -20 -20 -20 -20 -20 -20 -20 -20 -20 -20 -20 -20 -20 -20 -20
-20 -20 -20 -20 -20 -20 -20 -20 -20 -20 -20 -20 -20 -20 -20 -20 -20 -20 -20 -20 -20 -20 -20 -20 -20 -20 -20 -20 -20 -20 -20 -20 -20 -20 -20 -20 -20 -20 -20 -20 -20 -20 -20
-20 -20 -20 -20 -20 -20 -20 -20 -20 -20 -20 -20 -20 -20 -20 -20 -20 -20 -20 -20 -20 -20 -20 -20 -20 -20 -20 -20 -20 -20 -20 -20 -20 -20 -20 -20 -20 -20 -20 -20 -20 -20 -20
-20 -20 -20 -20 -20 -20 -20 -20 -20 -20 -20 -20 -20 -20 -20 -20 -20 -20 -20 -20 -20 -20 -20 -20 -20 -20 -20 -20 -20 -20 -20 -20 -20 -20 -20 -20 -20 -20 -20 -20 -20 -20 -20
-20 -20 -14 -5 -20 -20 -20 -20 -20 -20 -20 -20 -20 -20 -20 -20 -20 -20 -20 -20 -20 -20 -20 -20 -20 -20 -20 -20 -20 -20 -20 -20 -20 -20 -20 -20 -20 -20 -20 -20 -20 -20 -20
-20 -20 -20 -20 -20 -20 -20 -20 -20 -20 -20 -20 -20 -20 -20 -20 -20 -20 -20 -20 -20 -20 -20 -20 -20 -20 -20 -20 -20 -20 -20 -20 -20 -20 -20 -20 -20 -20 -20 -20 -20 -20 -15
-20 -20 -3 -18 -20 -20 -20 -20 -20 -20 -20 -20 -20 -20 -20 -20 -20 -20 -20 -20 -20 -20 -20 -20 -20 -20 -20 -20 -20 -20 -20 -20 -20 -20 -20 -20 -20 -19 -20 -19 4 16 4
-20 -20 -20 -9 -20 -20 -20 -20 -20 -20 -20 -20 -20 -20 -20 -20 -20 -20 -20 -20 -20 -20 -20 -20 -20 -20 -20 -20 -20 -20 -20 -20 -20 -20 -20 -20 -20 5 2 -20 5 5 -3
-20 -20 -20 12 -20 -20 -20 -20 -20 -20 -20 -20 -20 -20 -20 -20 -20 -20 -20 -20 -20 -20 -20 -20 -20 -20 -20 -20 -20 -20 -20 -20 -20 -20 -20 -19 1 -16 -20 -20 -15 8 11
-20 -20 -15 9 -20 -20 -20 -20 -20 -20 -20 -20 -20 -20 -20 -20 -20 -20 -20 -20 -20 -20 -20 -20 -20 -20 -20 -20 -20 -20 -20 -20 -20 -20 -20 -20 -3 -20 -16 -20 -12 8 7
-20 5 1 -11 -20 -20 -20 -20 -20 -20 -20 -20 -20 -20 -20 -20 -20 -20 -20 -20 -20 -20 -20 -20 -20 -20 -20 -20 -20 -20 -20 -20 -20 -20 -20 -20 -20 -20 -20 -20 -20 -20 2
0 -13 -10 -20 -20 -20 -20 -20 -20 -20 -20 -20 -20 -20 -20 -20 -20 -20 -20 -20 -20 -20 -20 -20 -20 -20 -20 -20 -20 -20 -20 -20 -20 -20 -20 -20 -20 -20 -20 -20 1 0 -7
9 -16 -20 -20 -20 -20 -20 -20 -20 -20 -20 -20 -20 -20 -20 -20 -20 -20 -20 -20 -20 -20 -20 -20 -20 -20 -20 -20 -20 -20 -20 -20 -20 -20 -20 -20 -20 -20 -20 1 -3 -2 4
9 12 -18 -20 -20 -20 -20 -20 -20 -20 -20 -20 -20 -20 -20 -20 -20 -20 -20 -20 -20 -20 -20 -20 -20 -20 -20 -20 -20 -20 -20 -20 -20 -20 -20 -20 -20 -20 -20 -20 -20 1 -2
10 9 -20 -20 -20 -20 -20 -20 -20 -20 -20 -20 -20 -20 -20 -20 -20 -20 -20 -20 -20 -20 -20 -20 -20 -20 -20 -20 -20 -20 -20 -20 -20 -20 -20 -20 -20 -20 -20 -3 -20 1 -8
6 -7 -20 -20 -20 -20 -8 -17 -20 -20 -20 -20 -20 -20 -20 -20 -20 -20 -20 -20 -20 -20 -20 -20 -20 -20 -20 -20 -7 -20 -20 -20 -20 -20 -20 -20 -20 -20 -20 -20 -20 -20 -20
-1 -20 -20 -20 -4 -3 -20 -7 -20 -20 -20 -20 -20 -20 -20 -20 -20 -20 -20 -20 -20 -20 -20 -20 -6 -17 1 -20 -20 -20 -20 -20 -20 -20 -20 -20 -20 -20 -20 -20 -20 -20 -20
-7 -20 -15 17 5 -14 -16 -18 -17 -20 -20 -20 -20 -20 -20 -20 -20 -20 -20 -20 -20 -0 -2 -2 7 -14 -20 -20 -20 -20 -20 -20 -20 -20 -20 -20 -20 -20 -20 -20 -20 -20 -20
-17 14 17 -8 -18 -15 8 -4 -20 -20 -20 -20 -20 -20 -20 -20 -20 -20 -20 -20 -20 -16 4 5 -20 -10 -20 -20 -20 -20 -20 -7 -9 -20 -20 -20 -20 -20 -20 -20 -20 -20 -20
-13 -20 -20 -17 -2 3 -20 -20 -20 -20 -20 -20 -20 -20 -20 -20 -20 -20 -20 -20 -20 -20 -20 -20 -13 -20 -20 -16 6 10 -7 -20 -20 -20 -20 -19 -20 -20 -20 -20 -20 -20 -20
-20 -12 12 13 -16 -20 -20 -20 -20 -20 -20 -20 -20 -20 -20 -20 -20 -20 -15 -20 -20 -20 -20 -20 -20 -12 2 -15 -20 -20 -20 -20 -20 -20 -20 -20 -20 -20 -20 -20 -20 -20 -20
17 8 -20 -20 -20 -20 -20 -20 -20 -20 -20 -20 -20 -20 -20 -20 -20 -10 2 -14 -20 -20 -20 -19 -20 -20 -20 -20 -20 -20 -20 -20 -20 -20 -20 8 -11 -15 -9 -20 -20 -20 -20

GFSMA_prec_radar_021.txt.gz
Reflectivity
-20 -20 -20 -20 -20 -20 -20 -20 -20 -20 -20 -20 -20 -20 -20 -20 -20 -20 -20 -20 -20 -20 -20 -20 -20 -20 -20 -20 -20 -20 -20 -20 -20 -20 -20 -20 -20 -20 -20 -20 -20 -20 -20
-20 -20 -20 -20 -20 -20 -20 -20 -20 -20 -20 -20 -20 -20 -20 -20 -20 -20 -20 -20 -20 -20 -20 -20 -20 -20 -20 -20 -20 -20 -20 -20 -20 -20 -20 -20 -20 -20 -20 -20 -20 -20 -20
-20 -20 -20 -20 -20 -20 -20 -20 -20 -20 -20 -20 -20 -20 -20 -20 -20 -20 -20 -20 -20 -20 -20 -20 -20 -20 -20 -20 -20 -20 -20 -20 -20 -20 -20 -20 -20 -20 -20 -20 -20 -20 -20
-20 -20 -20 -20 -20 -20 -20 -20 -20 -20 -20 -20 -20 -20 -20 -20 -20 -20 -20 -20 -20 -20 -20 -20 -20 -20 -20 -20 -20 -20 -20 -20 -20 -20 -20 -20 -20 -20 -20 -20 -20 -20 -20
-20 -20 -20 -20 -20 -20 -20 -20 -20 -20 -20 -20 -20 -20 -20 -20 -20 -20 -20 -20 -20 -20 -20 -20 -20 -20 -20 -20 -20 -20 -20 -20 -20 -20 -20 -20 -20 -20 -20 -20 -20 -20 -20
-20 -20 -20 -20 -20 -20 -20 -20 -20 -20 -20 -20 -20 -20 -20 -20 -20 -20 -20 -20 -20 -20 -20 -20 -20 -20 -20 -20 -20 -20 -20 -20 -20 -20 -20 -20 -20 -20 -20 -20 -20 -20 -20
-20 -20 -20 -20 -20 -20 -20 -20 -20 -20 -20 -20 -20 -20 -20 -20 -20 -20 -20 -20 -20 -20 -20 -20 -20 -20 -20 -20 -20 -20 -20 -20 -20 -20 -20 -20 -20 -20 -20 -20 -20 -20 -20
-20 -20 -20 -20 -20 -20 -20 -20 -20 -20 -20 -20 -20 -20 -20 -20 -20 -20 -20 -20 -20 -20 -20 -20 -20 -20 -20 -20 -20 -20 -20 -20 -20 -20 -20 -20 -20 -20 -20 -20 -20 -20 -20
-0 -20 -20 -20 -20 -20 -20 -20 -20 -20 -20 -20 -20 -20 -20 -20 -20 -20 -20 -20 -20 -20 -20 -20 -20 -20 -20 -20 -20 -20 -20 -20 -20 -20 -20 -20 -20 -20 -20 -20 -20 -20 -20
8 -20 -20 -20 -20 -20 -20 -20 -20 -20 -20 -20 -20 -20 -20 -20 -20 -20 -20 -20 -20 -20 -20 -20 -20 -20 -20 -20 -20 -20 -20 -20 -20 -20 -20 -20 -20 -20 -20 -20 -20 15 14
11 -20 -20 -20 -20 -19 -20 -20 -20 -20 -20 -20 -20 -20 -20 -20 -20 -20 -20 -20 -20 -20 -20 -20 -20 -20 -20 -20 -20 -20 -20 -20 -20 -20 -20 -20 -20 -20 -17 -16 16 15 10
9 13 -20 -20 -20 -19 -20 -20 -20 -20 -20 -20 -20 -20 -20 -20 -20 -20 -20 -20 -20 -20 -20 -20 -20 -20 -20 -20 -20 -20 -20 -20 -20 -20 -20 -20 -20 -17 -20 10 14 -11 -8
13 -18 7 -20 -20 -20 -20 -20 -20 -20 -20 -20 -20 -20 -20 -20 -20 -20 -20 -20 -20 -20 -20 -20 -20 -20 -20 -20 -20 -20 -20 -20 -20 -20 -20 -20 -13 -3 -20 -20 -16 -6 -20
-10 13 -6 -20 -20 -20 1 -20 -20 -20 -20 -20 -20 -20 -20 -20 -20 -20 -20 -20 -20 -20 -20 -20 -20 -20 -20 -20 -20 -20 -20 -20 -20 -20 -20 -20 -12 -20 -20 -20 -20 -20 -18
6 13 -3 -15 -20 14 15 -20 -20 -20 -20 -20 -20 -20 -20 -20 -20 -20 -20 -20 -20 -20 -20 -20 -20 -20 -20 -20 -20 -20 -20 -20 -20 -20 -20 -20 -20 -20 -18 -20 -19 -1 9
12 -3 17 -7 -6 3 13 -20 -20 -20 -20 -20 -20 -20 -20 -20 -20 -20 -20 -20 -20 -20 -20 -20 -20 -20 -20 -20 -20 -20 -20 -20 -20 -20 -14 -20 -20 -20 -1 -1 -1 -0 -4
8 -20 25 -9 24 -19 8 -20 -20 -20 -20 -20 -20 -20 -20 -20 -20 -20 -20 -20 -20 -20 -20 -20 -20 -20 -20 -20 -20 -20 -20 -20 -20 -20 -20 -20 -20 -20 -20 -20 -20 -20 -10
-10 -15 20 6 -20 12 -20 -20 -20 -20 -20 -20 -20 -20 -20 -20 -20 -20 -20 -20 -20 -20 -20 -20 -20 -20 -20 -20 -20 -20 -20 -20 -20 -20 -20 -20 -20 -20 -20 -20 4 -8 -20
17 18 6 1 15 -19 -20 -20 -20 -20 -20 -20 -20 -20 -20 -20 -20 -20 -20 -20 -20 -20 -20 -20 -20 -20 -20 -20 -20 -20 -20 -20 -20 -20 -20 -20 -20 -20 -10 -6 -20 -20 -19
13 3 21 2 11 -20 -20 -20 -20 -5 15 -20 -20 -20 -20 -20 -20 -20 -20 -20 -20 -20 -20 -20 -20 -20 -20 -20 -20 -20 -20 -20 -20 -20 -20 -20 -20 -20 -20 -20 -20 -20 -20
23 11 22 -4 -10 -20 -20 -20 0 -7 -20 -20 -20 -20 -20 -20 -20 -20 -20 -20 -20 -20 -20 -20 -20 -20 3 -20 -20 -20 -20 -20 -20 -20 -20 -20 -20 -20 -20 -20 -20 -20 -20
-3 15 19 -8 -20 -19 1 -7 -14 -8 -13 -15 -20 -20 -20 -20 -20 -20 -20 -20 -20 -20 -20 -2 4 -11 -20 -20 -20 -20 -20 -20 -20 -20 -20 -20 -20 -20 -20 -20 -20 -20 -20
28 16 20 1 20 -20 -18 -20 -20 -17 -20 -20 -20 -20 -20 -20 -20 -20 -20 -20 -20 -20 -3 5 -20 -20 -20 -20 -20 -20 -15 2 -7 -20 -20 -20 -20 -20 -20 -20 -20 -20 -20
30 31 32 0 4 -15 -20 -15 -20 -20 -20 -20 -20 -20 -20 -20 -20 -20 -20 -20 -20 -20 -20 -20 -20 -20 -20 -15 5 -7 -20 -20 -20 -20 -20 -20 -20 -20 -20 -20 -20 -20 -20
29 20 4 -20 -20 -20 -20 -20 -20 -20 -20 -20 -20 -20 -20 -20 -20 -20 -11 -20 -20 -20 -20 -20 -20 -6 3 -15 -20 -20 -20 -20 -20 -20 -20 -20 -20 -20 -20 -20 -20 -20 -20
6 -19 -9 -13 -20 -20 -20 -20 -20 -20 -20 -20 -20 -20 -20 -20 -20 -14 2 -20 -20 -20 -20 -19 -20 -20 -20 -20 -20 -20 -20 -20 -20 -18 -20 -20 -20 -20 -14 -20 -20 -20 -20

GFSMA_prec_radar_024.txt.gz
Reflectivity
-20 -20 -20 -20 -20 -20 -20 -20 -20 -20 -20 -20 -20 -20 -20 -20 -20 -20 -20 -20 -20 -20 -20 -20 -20 -20 -20 -20 -20 -20 -20 -20 -20 -20 -20 -20 -20 -20 -20 -20 -20 -20 -20
-20 -20 -20 -20 -20 -20 -20 -20 -20 -20 -20 -20 -20 -20 -20 -20 -20 -20 -20 -20 -20 -20 -20 -20 -20 -20 -20 -20 -20 -20 -20 -20 -20 -20 -20 -20 -20 -20 -20 -20 -20 -20 -20
-20 -20 -20 -20 -20 -20 -20 -20 -20 -20 -20 -20 -20 -20 -20 -20 -20 -20 -20 -20 -20 -20 -20 -20 -20 -20 -20 -20 -20 -20 -20 -20 -20 -20 -20 -20 -20 -20 -20 -20 -20 -20 -20
-20 -20 -20 -20 -20 -20 -20 -20 -20 -20 -20 -20 -20 -20 -20 -20 -20 -20 -20 -20 -20 -20 -20 -20 -20 -20 -20 -20 -20 -20 -20 -20 -20 -20 -20 -20 -20 -20 -20 -20 -20 -20 -20
-20 -20 -20 -20 -20 -20 -20 -20 -20 -20 -20 -20 -20 -20 -20 -20 -20 -20 -20 -20 -20 -20 -20 -20 -20 -20 -20 -20 -20 -20 -20 -20 -20 -20 -20 -20 -20 -20 -20 -20 -20 -20 -20
-20 -20 -20 -20 -20 -20 -20 -20 -20 -20 -20 -20 -20 -20 -20 -20 -20 -20 -20 -20 -20 -20 -20 -20 -20 -20 -20 -20 -20 -20 -20 -20 -20 -20 -20 -20 -20 -20 -20 -20 -20 -20 -20
-20 -20 -20 -20 -20 -20 -20 -20 -20 -20 -20 -20 -20 -20 -20 -20 -20 -20 -20 -20 -20 -20 -20 -20 -20 -20 -20 -20 -20 -20 -20 -20 -20 -20 -20 -20 -20 -20 -20 -20 -20 -20 -20
14 3 -20 -20 -20 -20 -20 -20 -20 -20 -20 -20 -20 -20 -20 -20 -20 -20 -20 -20 -20 -20 -20 -20 -20 -20 -20 -20 -20 -20 -20 -20 -20 -20 -20 -20 -20 -20 -20 -20 -20 -20 -20
-10 14 7 -17 -20 -20 -20 -20 -20 -20 -20 -20 -20 -20 -20 -20 -20 -20 -20 -20 -20 -20 -20 -20 -20 -20 -20 -20 -20 -20 -20 -20 -20 -20 -20 -20 -20 -20 -20 -20 -20 -20 -8
3 10 -9 -18 -20 -20 -20 -20 -20 -20 -20 -20 -20 -20 -20 -20 -20 -20 -20 -20 -20 -20 -20 -20 -20 -20 -20 -20 -20 -20 -20 -20 -20 -20 -20 -20 -20 -20 -20 -6 -20 -17 -4
11 -20 -18 -7 7 -20 -20 -20 -20 -20 -20 -20 -20 -20 -20 -20 -20 -20 -20 -20 -20 -20 -20 -20 -20 -20 -20 -20 -20 -20 -20 -20 -20 -20 -20 -20 -20 -20 -20 -20 -1 -1 15
-1 -20 -20 -0 15 -1 -20 -20 -19 -20 -20 -20 -20 -20 -20 -20 -20 -20 -20 -20 -20 -20 -20 -20 -20 -20 -20 -20 -20 -20 -20 -20 -20 -20 -20 -20 -20 -20 -20 -7 -8 -19 -2
-6 -3 5 -13 20 -5 -20 -20 -20 -20 -20 -20 -20 -20 -20 -20 -20 -20 -20 -20 -20 -20 -20 -20 -20 -20 -20 -20 -20 -20 -20 -20 -20 -20 -20 -20 -20 -20 -20 -3 -12 -20 -20
15 16 18 -20 20 14 -20 -10 6 -20 12 -20 -20 -20 -20 -20 -20 -20 -20 -20 -20 -20 -20 -20 -20 -20 -20 -20 -20 -20 -20 -20 -20 -20 -20 -20 -20 -20 -20 -3 -20 -20 -20
13 8 -20 -20 17 17 -7 -18 -20 -12 25 -20 -20 -20 -20 -20 -20 -20 -20 -20 -20 -20 -20 -20 -20 -20 -20 -20 -20 -20 -20 -20 -20 -20 -20 -20 -9 -11 -20 -20 -12 3 -19
13 -20 -20 2 18 2 6 17 -4 9 15 -18 -20 -20 -20 -20 -20 -20 -20 -20 -20 -20 -20 -20 -20 -20 -20 -20 -20 -20 -20 -20 -20 -20 -20 -20 -20 -20 -13 -20 -18 -20 1
-4 -20 16 11 14 18 8 -12 -3 14 -1 -17 -20 -20 -20 -20 -20 -20 -20 -20 -20 -20 -20 -20 -20 -20 -20 -20 -20 -20 -20 -20 -20 -20 -20 -20 -20 -17 -20 -20 -17 -18 -20
-20 -20 -10 13 13 -1 34 22 34 -19 -12 -18 -20 -20 -20 -20 6 -20 -20 -20 -20 -20 -20 -20 -20 -20 -20 -20 -20 -20 -20 -20 -20 -20 -20 -20 -20 -20 -20 -20 -20 7 8
-19 13 -4 11 -4 1 8 8 11 -8 -15 -20 -20 -20 4 9 -20 -20 -20 -20 -20 -20 -20 -20 -20 -20 -20 -20 -20 -20 -20 -20 -20 -20 -20 -20 -20 -20 -20 1 -10 -20 -20
12 22 12 22 36 23 23 13 7 -13 -20 -20 -20 -2 -19 -20 -20 -20 -20 -20 -20 -20 -20 -20 -20 -20 -20 -20 -20 -20 -20 -20 -20 -20 -20 -20 -20 -20 -20 -20 -20 -20 -20
13 10 18 38 25 30 24 26 10 -6 -20 7 -10 -3 -19 -20 -20 -20 -20 -20 -20 -20 -20 -20 -20 -20 -20 -20 -20 -20 -20 -20 -20 -20 -20 -20 -20 -20 -20 -20 -20 -20 -20
19 21 35 21 20 9 13 24 0 -18 12 -18 -20 -20 -20 -20 -20 -20 -20 -20 -20 -20 -20 -20 -20 -20 -20 -20 -20 -20 -20 -20 -20 -20 -20 -20 -20 -20 -20 -20 -20 -20 -20
34 26 21 36 20 -2 -3 17 13 -4 -9 -20 -20 -20 -20 -20 -20 -20 -20 -20 -20 -20 -11 1 -20 -20 -20 -20 -20 -20 -20 -13 -20 -20 -20 -20 -20 -20 -20 -20 -20 -20 -20
11 22 36 38 34 32 28 15 5 -2 -20 -20 -20 -20 -20 -20 -20 -20 -20 -20 -20 -20 -20 -20 -20 -20 -20 -19 2 -7 -20 -20 -20 -20 -20 -20 -20 -20 -20 -20 -20 -20 -20
38 38 29 24 19 17 15 -11 -20 -20 -20 -20 -20 -20 -20 -20 -20 -20 -20 -20 -20 -20 -20 -20 -20 -8 -5 -15 -20 -20 -20 -20 -20 -20 -20 -20 -20 -20 -20 -20 -20 -20 -20
32 26 17 14 8 -20 -20 -20 -20 -20 -20 -20 -20 -20 -20 -20 -20 -20 -1 -20 -20 -20 -20 -20 -20 -20 -20 -20 -20 -20 -20 -20 -20 -20 -20 -20 -20 -20 -20 -20 -20 -20 -20

GFSMA_prec_radar_027.txt.gz
Reflectivity
-20 -20 -20 -20 -20 -20 -20 -20 -20 -20 -20 -20 -20 -20 -20 -20 -20 -20 -20 -20 -20 -20 -20 -20 -20 -20 -20 -20 -20 -20 -20 -20 -20 -20 -20 -20 -20 -20 -20 -20 -20 -20 -20
-20 -20 -20 -20 -20 -20 -20 -20 -20 -20 -20 -20 -20 -20 -20 -20 -20 -20 -20 -20 -20 -20 -20 -20 -20 -20 -20 -20 -20 -20 -20 -20 -20 -20 -20 -20 -20 -20 -20 -20 -20 -20 -20
-20 -20 -20 -20 -20 -20 -20 -20 -20 -20 -20 -20 -20 -20 -20 -20 -20 -20 -20 -20 -20 -20 -20 -20 -20 -20 -20 -20 -20 -20 -20 -20 -20 -20 -20 -20 -20 -20 -20 -20 -20 -20 -20
-20 -20 -20 -20 -20 -20 -20 -20 -20 -20 -20 -20 -20 -20 -20 -20 -20 -20 -20 -20 -20 -20 -20 -20 -20 -20 -20 -20 -20 -20 -20 -20 -20 -20 -20 -20 -20 -20 -20 -20 -20 -20 -20
-20 -20 -20 -20 -20 -20 -20 -20 -20 -20 -20 -20 -20 -20 -20 -20 -20 -20 -20 -20 -20 -20 -20 -20 -20 -20 -20 -20 -20 -20 -20 -20 -20 -20 -20 -20 -20 -20 -20 -20 -20 -20 -20
-20 -20 -20 -20 -20 -20 -20 -20 -20 -20 -20 -20 -20 -20 -20 -20 -20 -20 -20 -20 -20 -20 -20 -20 -20 -20 -20 -20 -20 -20 -20 -20 -20 -20 -20 -20 -20 -20 -20 -20 -20 -20 -20
-20 -20 -20 -20 -20 -20 -20 -20 -20 -20 -20 -20 -20 -20 -20 -20 -20 -20 -20 -20 -20 -20 -20 -20 -20 -20 -20 -20 -20 -20 -20 -20 -20 -20 -20 -20 -20 -20 -20 -20 -20 -20 -20
-20 -20 -9 -20 -20 6 -20 -20 -20 -20 -20 -20 -20 -20 -20 -20 -20 -20 -20 -20 -20 -20 -20 -20 -20 -20 -20 -20 -20 -20 -20 -20 -20 -20 -20 -20 -20 -20 -20 -20 -20 -20 -20
-19 -20 -20 -20 0 -16 -20 -20 -20 -20 -20 -20 -20 -20 -20 -20 -20 -20 -20 -20 -20 -20 -20 -20 -20 -20 -20 -20 -20 -20 -20 -20 -20 -20 -20 -20 -20 -20 -20 -20 -20 -20 -20
9 -10 -20 -18 4 1 5 -20 -20 -20 -20 -20 -20 -20 -20 -20 -20 -20 -20 -20 -20 -20 -20 -20 -20 -20 -20 -20 -20 -20 -20 -20 -20 -20 -20 -20 -20 -20 -20 -20 -4 -20 -6
20 22 -8 22 -19 -20 -20 11 -20 -20 -20 -20 -20 -20 -20 -20 -20 -20 -20 -20 -20 -20 -20 -20 -20 -20 -20 -20 -20 -20 -20 -20 -20 -20 -20 -20 -20 -20 -20 -20 -0 -14 8
7 6 19 -7 -0 -18 -0 15 -1 -20 -20 -20 -20 -20 -20 -20 -20 -20 -20 -20 -20 -20 -20 -20 -20 -20 -20 -20 -20 -20 -20 -20 -20 -20 -20 -20 -20 -20 -14 -20 -13 -0 -20
-20 -20 1 17 21 18 15 -10 17 -20 -20 -18 -20 -20 -20 -20 -20 -20 -20 -20 -20 -20 -20 -20 -20 -20 -20 -20 -20 -20 -20 -20 -20 -20 -20 -20 -20 -20 -20 -10 -13 -13 -9
-20 -15 20 10 16 19 13 12 25 -10 -20 -20 -9 -20 -20 -20 -20 -20 -20 -20 -20 -20 -20 -20 -20 -20 -20 -20 -20 -20 -20 -20 -20 -20 -20 -20 -20 -20 -0 -20 -18 -20 -20
19 15 16 5 17 -20 14 12 21 11 -13 17 -1 -10 14 -15 -20 -20 -20 -20 -20 -20 -20 -20 -20 -20 -20 -20 -20 -20 -20 -20 -20 -20 -20 -20 -20 -13 -5 -0 -20 -17 -19
-12 -6 11 1 6 -19 14 -9 -0 27 9 4 -15 1 -1 -4 -20 -20 -20 -20 -20 -20 -20 -20 -20 -20 -20 -20 -20 -20 -20 -20 -20 -20 -20 -20 -20 -13 -20 -20 -2 -20 -20
8 14 12 13 11 -7 -2 -20 -11 16 0 32 23 -1 -20 -19 -20 -20 -20 -20 -20 -20 -20 -20 -20 -20 -20 -20 -20 -20 -20 -20 -20 -20 -20 -20 -4 -20 -14 -15 -20 -20 -3
13 18 21 5 10 5 -14 12 23 0 18 29 3 32 17 -18 -19 -20 -20 -20 -20 -20 -20 -20 -20 -20 -20 -20 -20 -20 -20 -20 -20 -20 -20 -20 -20 -20 -20 -20 -16 5 9
20 23 7 3 9 16 16 10 21 31 17 16 15 -5 -18 -16 -20 -20 -20 -20 -20 -20 -20 -20 -20 -20 -20 -20 -20 -20 -20 -20 -20 -20 -20 -20 -20 -20 1 2 2 -9 -16
17 20 -18 6 13 3 12 18 32 28 15 29 -1 -11 -17 -20 -20 -19 -20 -20 -20 -20 -20 -20 -20 -20 -20 -20 -20 -20 -20 -20 -20 -20 -20 -20 -20 -20 -20 -20 -20 -20 -20
19 22 -20 21 -17 14 17 12 14 11 18 14 13 4 -7 -17 -20 -20 -20 -20 -20 -20 -20 -20 -20 -20 -20 -20 -20 -20 -20 -20 -20 -20 -20 -20 -20 -20 -20 -20 -20 -20 -20
-14 22 8 19 12 23 32 28 34 28 6 -4 10 12 -6 -20 -20 -20 -20 -20 -20 -20 -20 -20 -20 -20 -20 -20 -20 -20 -20 -20 -20 -20 -20 -20 -20 -20 -20 -20 -20 -20 -20
2 -8 26 8 28 21 23 25 23 24 17 7 2 8 -6 -20 -20 -20 -20 -20 -20 -20 -20 -20 -20 -20 -20 -20 -20 -20 -20 -19 -20 -20 -20 -20 -20 -20 -20 -20 -20 -20 -20
32 9 16 28 34 43 39 36 31 19 18 13 0 -20 -20 -20 -20 -20 -20 -20 -20 -20 -20 -20 -20 -20 -20 -20 -12 0 -13 -20 -20 -20 -20 -20 -20 -20 -20 -20 -20 -20 -20
16 29 33 34 32 28 31 28 18 10 8 -16 -20 -20 -20 -20 -20 -20 -20 -20 -20 -20 -20 -20 -20 -20 -12 -15 -20 -20 -20 -20 -20 -20 -20 -20 -20 -20 -20 -20 -20 -20 -20
39 32 29 26 30 27 16 9 8 -17 -12 -20 -20 -20 -20 -20 -20 -20 -20 -20 -20 -20 -20 -20 -20 -20 -20 -20 -20 -20 -20 -20 -20 -20 -20 -20 -20 -20 -20 -20 -20 -20 -20

GFSMA_prec_radar_030.txt.gz
Reflectivity
-20 -20 -20 -20 -20 -20 -20 -20 -20 -20 -20 -20 -20 -20 -20 -20 -20 -20 -20 -20 -20 -20 -20 -20 -20 -20 -20 -20 -20 -20 -20 -20 -20 -20 -20 -20 -20 -20 -20 -20 -20 -20 -20
-20 -20 -20 -20 -20 -20 -20 -20 -20 -20 -20 -20 -20 -20 -20 -20 -20 -20 -20 -20 -20 -20 -20 -20 -20 -20 -20 -20 -20 -20 -20 -20 -20 -20 -20 -20 -20 -20 -20 -20 -20 -20 -20
-20 -20 -20 -20 -20 -20 -20 -20 -20 -20 -20 -20 -20 -20 -20 -20 -20 -20 -20 -20 -20 -20 -20 -20 -20 -20 -20 -20 -20 -20 -20 -20 -20 -20 -20 -20 -20 -20 -20 -20 -20 -20 -20
-20 -20 -20 -20 -20 -20 -20 -20 -20 -20 -20 -20 -20 -20 -20 -20 -20 -20 -20 -20 -20 -20 -20 -20 -20 -20 -20 -20 -20 -20 -20 -20 -20 -20 -20 -20 -20 -20 -20 -20 -20 -20 -20
-20 -20 -20 -20 -20 -20 -20 -20 -20 -20 -20 -20 -20 -20 -20 -20 -20 -20 -20 -20 -20 -20 -20 -20 -20 -20 -20 -20 -20 -20 -20 -20 -20 -20 -20 -20 -20 -20 -20 -20 -20 -20 -20
-20 -20 -20 -20 -20 -20 -20 -20 -20 -20 -20 -20 -20 -20 -20 -20 -20 -20 -20 -20 -20 -20 -20 -20 -20 -20 -20 -20 -20 -20 -20 -20 -20 -20 -20 -20 -20 -20 -20 -20 -20 -20 -20
-20 -20 28 -20 -20 -20 -20 -20 -20 -20 -20 -20 -20 -20 -20 -20 -20 -20 -20 -20 -20 -20 -20 -20 -20 -20 -20 -20 -20 -20 -20 -20 -20 -20 -20 -20 -20 -20 -20 -20 -20 -20 -20
13 -20 -20 -20 -20 -20 -12 -20 -2 -20 -20 -20 -20 -20 -20 -20 -20 -20 -20 -20 -20 -20 -20 -20 -20 -20 -20 -20 -20 -20 -20 -20 -20 -20 -20 -20 -20 -20 -20 -20 -20 -20 -20
29 -20 -20 -20 -20 -10 -20 -17 -18 -20 -20 -20 -20 -20 -20 -20 -20 -20 -20 -20 -20 -20 -20 -20 -20 -20 -20 -20 -20 -20 -20 -20 -20 -20 -20 -20 -20 -20 -20 -20 -20 -20 -20
10 19 -20 23 -13 -20 -20 -17 -12 -20 -20 -20 -20 -20 -20 -20 -20 -20 -20 -20 -20 -20 -20 -20 -20 -20 -20 -20 -20 -20 -20 -20 -20 -20 -20 -20 -20 -20 -20 -20 -19 -20 -20
-19 23 25 5 -11 26 -16 -17 9 -18 -20 -20 -20 -20 -20 -20 -20 -20 -20 -20 -20 -20 -20 -20 -20 -20 -20 -20 -20 -20 -20 -20 -20 -20 -20 -20 -20 -20 -20 -20 -19 -20 -19
21 21 20 8 -20 -6 19 21 16 11 -20 2 -20 -20 -20 -20 -20 -20 -20 -20 -20 -20 -20 -20 -20 -20 -20 -20 -20 -20 -20 -20 -20 -20 -20 -20 -20 -20 -20 -20 -20 -20 -20
-20 -20 6 22 5 19 19 19 21 12 2 -20 7 -20 -20 -20 -20 -20 -20 -20 -20 -20 -20 -20 -20 -20 -20 -20 -20 -20 -20 -20 -20 -20 -20 -20 -20 -20 -20 -20 -20 -15 -19
-16 15 -20 1 19 20 17 16 19 10 10 11 14 33 20 -20 -13 -20 -20 -11 -20 -20 -20 -20 -20 -20 -20 -20 -20 -20 -20 -20 -20 -20 -20 -20 -20 -20 -20 -20 -20 -19 -20
-20 -20 -10 24 20 15 16 13 -17 -19 -7 -8 14 30 28 -2 -6 -20 -20 8 -20 -20 -20 -20 -20 -20 -20 -20 -20 -20 -20 -20 -20 -20 -20 -20 -20 -20 -20 -20 -17 -17 -20
-0 -20 -6 -13 24 39 12 12 -20 -19 8 -20 -20 24 22 19 18 -20 -2 -3 -19 -20 -20 -20 -20 -20 -20 -20 -20 -20 -20 -20 -20 -20 -20 -20 -20 -13 -1 -20 -20 1 6
-20 -20 4 8 12 22 18 -1 -20 -10 -7 24 -10 19 4 15 7 25 5 -20 -17 -20 -20 -20 -20 -20 -20 -20 -20 -20 -20 -20 -20 -20 -20 -20 -20 -4 -9 -14 -20 -20 -18
-20 -20 -20 -5 3 13 -3 -20 -5 -2 -8 34 -18 20 31 25 10 -15 -5 24 2 -20 -20 -20 -20 -20 -20 -20 -20 -20 -20 -20 -20 -20 -20 -20 -20 -20 -20 -7 -20 -20 -19
-20 -20 -10 5 13 11 -16 -20 -6 11 22 -12 30 4 34 21 15 -11 -0 -19 -20 -20 -20 -20 -20 -20 -20 -20 -20 -20 -20 -20 -20 -20 -20 -20 -20 -20 -20 -11 -5 -19 -20
-20 12 16 9 10 10 -2 -17 -10 -12 27 18 23 22 33 31 15 28 22 8 -3 -20 -20 -20 -20 -20 -20 -20 -20 -20 -20 -20 -20 -20 -20 -20 -20 -20 -20 -20 -20 -20 -20
-20 -12 18 9 4 8 17 -16 23 32 7 11 24 35 28 16 18 12 -5 -20 -20 -20 -20 -20 -20 -20 -20 -20 -20 -20 -20 -20 -20 -20 -20 -20 -20 -20 -20 -20 -20 -20 -20
-18 20 17 11 21 11 23 15 30 1 12 19 28 29 32 26 13 10 12 -15 -20 -20 -20 -20 -20 -20 -20 -20 -20 -20 -20 -20 -20 -20 -20 -20 -20 -20 -20 -20 -20 -20 -20
9 7 26 22 -11 9 18 24 29 13 26 30 26 36 25 22 18 15 -19 -20 -20 -20 -20 -20 -20 -20 -20 -20 -20 -20 -20 -20 -20 -20 -20 -20 -20 -20 -20 -20 -20 -20 -20
30 20 22 26 11 10 36 29 27 28 29 28 25 21 21 17 2 -20 -20 -20 -20 -20 -20 -20 -20 -20 -20 -20 -20 -19 -20 -20 -20 -20 -20 -20 -20 -20 -20 -20 -20 -20 -20
28 35 30 24 30 30 28 26 24 20 16 12 3 -3 -7 -10 -10 0 -20 -20 -20 -20 -20 -20 -20 -20 -16 -18 -20 -20 -20 -20 -20 -20 -20 -20 -20 -20 -20 -20 -20 -20 -20
34 38 35 29 31 29 30 28 22 -1 -6 -11 -19 -20 -20 -20 -20 -20 -14 -20 -20 -20 -20 -20 -20 -20 -20 -20 -20 -20 -20 -20 -20 -20 -20 -20 -20 -20 -20 -20 -20 -20 -20

GFSMA_prec_radar_033.txt.gz
Reflectivity
-20 -20 -20 -20 -20 -20 -20 -20 -20 -20 -20 -20 -20 -20 -20 -20 -20 -20 -20 -20 -20 -20 -20 -20 -20 -20 -20 -20 -20 -20 -20 -20 -20 -20 -20 -20 -20 -20 -20 -20 -20 -20 -20
-20 -20 -20 -20 -20 -20 -20 -20 -20 -20 -20 -20 -20 -20 -20 -20 -20 -20 -20 -20 -20 -20 -20 -20 -20 -20 -20 -20 -20 -20 -20 -20 -20 -20 -20 -20 -20 -20 -20 -20 -20 -20 -20
-20 -20 -20 -20 -20 -20 -20 -20 -20 -20 -20 -20 -20 -20 -20 -20 -20 -20 -20 -20 -20 -20 -20 -20 -20 -20 -20 -20 -20 -20 -20 -20 -20 -20 -20 -20 -20 -20 -20 -20 -20 -20 -20
-20 -20 -20 -20 -20 -20 -20 -20 -20 -20 -20 -20 -20 -20 -20 -20 -20 -20 -20 -20 -20 -20 -20 -20 -20 -20 -20 -20 -20 -20 -20 -20 -20 -20 -20 -20 -20 -20 -20 -20 -20 -20 -20
-20 -20 -20 -20 -20 -20 -20 -20 -20 -20 -20 -20 -20 -20 -20 -20 -20 -20 -20 -20 -20 -20 -20 -20 -20 -20 -20 -20 -20 -20 -20 -20 -20 -20 -20 -20 -20 -20 -20 -20 -20 -20 -20
-20 -20 -20 -20 -20 -20 -20 -20 -20 -20 -20 -20 -20 -20 -20 -20 -20 -20 -20 -20 -20 -20 -20 -20 -20 -20 -20 -20 -20 -20 -20 -20 -20 -20 -20 -20 -20 -20 -20 -20 -20 -20 -20
-20 -20 -20 -20 -20 -20 -20 -20 -20 -20 -20 -20 -20 -20 -20 -20 -20 -20 -20 -20 -20 -20 -20 -20 -20 -20 -20 -20 -20 -20 -20 -20 -20 -20 -20 -20 -20 -20 -20 -20 -20 -20 -20
-20 -20 -20 -20 -20 -20 -20 -20 -20 -20 -20 -20 -20 -20 -20 -20 -20 -20 -20 -20 -20 -20 -20 -20 -20 -20 -20 -20 -20 -20 -20 -20 -20 -20 -20 -20 -20 -20 -20 -20 -20 -7 -20
-20 -20 -14 -7 -15 8 -20 -20 -20 -20 -20 -20 -20 -20 -20 -20 -20 -20 -20 -20 -20 -20 -20 -20 -20 -20 -20 -20 -20 -20 -20 -20 -20 -20 -20 -20 -20 -20 -20 -20 -20 -20 -20
-20 20 -16 -20 19 -18 -20 -20 -20 -20 -20 -20 -20 -20 -20 -20 -20 -20 -20 -20 -20 -20 -20 -20 -20 -20 -20 -20 -20 -20 -20 -20 -20 -20 -20 -20 -20 -20 -20 -20 -20 -20 -20
21 24 -14 -18 -20 27 -20 -19 -20 -17 -20 -20 -20 -20 -20 -20 -20 -20 -20 -20 -20 -20 -20 -20 -20 -20 -20 -20 -20 -20 -20 -20 -20 -20 -20 -20 -20 -20 -20 -20 -20 -20 -20
13 16 22 20 -4 -17 -20 -11 19 17 20 11 -12 1 -18 -20 -20 -20 -20 -20 -20 -20 -20 -20 -20 -20 -20 -20 -20 -20 -20 -20 -20 -20 -20 -20 -20 -20 -20 -20 -20 -20 -20
-20 -20 -3 -20 -17 22 11 23 19 18 18 16 11 3 -20 -20 -20 -20 -20 3 2 -20 -20 -20 -20 -20 -20 -20 -20 -20 -20 -20 -20 -20 -20 -20 -20 -20 -20 -20 -20 -20 -9
-20 -20 8 13 20 -15 23 22 21 20 19 18 13 7 9 -20 -20 14 -0 -17 -20 -20 -20 -20 -20 -20 -20 -20 -20 -20 -20 -20 -20 -20 -20 -20 -20 -20 -20 -20 -20 -20 -20
-20 -20 -19 -4 -9 20 24 26 21 19 -2 2 -14 0 8 -6 -20 34 3 26 -20 -20 -17 -20 -13 -14 -20 -20 -20 -20 -20 -20 -20 -20 -20 -20 -20 -20 -20 -20 -20 -17 -1
-20 -20 -20 -20 -20 14 17 23 25 23 -6 -2 12 -10 -11 14 2 13 -9 23 -12 16 12 17 2 2 -20 -20 -20 -20 -20 -20 -20 -20 -20 -20 -20 -20 -20 -1 -13 -12 -20
-20 -20 -12 -15 -20 -20 -3 17 22 22 22 17 6 -15 -20 12 9 26 7 24 10 13 20 -7 22 26 15 -20 -20 -20 -20 -20 -20 -20 -20 -20 -20 -8 -6 -19 -20 -20 -20
-20 -20 -17 -7 -20 -20 -20 7 -18 20 16 26 -19 -20 4 36 7 27 34 27 16 24 24 15 16 14 -0 -19 -9 -20 -20 -20 -20 -20 -20 -20 -20 -20 -20 -20 -20 -1 -20
-20 -20 -20 -20 -20 -16 -16 -20 -18 14 24 -17 -20 -1 29 15 12 21 39 30 22 29 26 21 11 -6 2 5 -20 -20 -20 -20 -20 -20 -20 -20 -20 -20 -20 -20 -7 -7 -20
19 2 -20 -20 -20 7 -5 -3 8 14 -20 -6 7 12 17 25 33 22 19 31 26 24 19 15 11 5 -14 -20 -20 -20 -20 -20 -20 -20 -20 -20 -20 -20 -20 -20 -20 -20 -20
-3 20 -14 -20 -20 -13 18 18 13 -5 -1 20 25 18 23 26 35 20 19 20 27 21 19 19 6 -20 -20 -20 -20 -20 -20 -20 -20 -20 -20 -20 -20 -20 -20 -20 -20 -20 -20
-7 23 3 -14 -19 17 19 15 18 24 22 20 25 22 24 29 24 22 27 20 16 25 14 7 -15 -20 -20 -20 -20 -20 -20 -20 -20 -20 -20 -20 -20 -20 -20 -20 -20 -20 -20
3 14 -1 20 4 7 23 17 31 27 28 27 20 25 23 21 22 18 24 20 16 -3 -10 -18 -7 -10 -18 -20 -20 -20 -20 3 -20 -20 -20 -20 -20 -20 -20 -20 -20 -20 -20
-1 -2 24 21 23 29 34 26 28 6 12 18 20 22 16 14 14 11 8 5 5 -20 -20 -20 -20 -20 -20 -20 -13 -13 0 -10 -20 -20 -20 -20 -20 -20 -20 -20 -20 -20 -20
-8 27 36 28 30 25 31 12 5 13 14 18 15 12 2 -11 -19 -20 -20 -20 -18 -20 -20 -20 -20 -20 -17 -17 -20 -20 -20 -20 -20 -20 -20 -20 -20 -20 -20 -20 -20 -20 -20
18 9 28 36 40 35 22 7 14 18 15 -1 -20 -20 -20 -20 -20 -20 -3 -20 -20 -20 -20 -20 -20 -20 -20 -20 -20 -20 -20 -20 -4 -20 -20 -20 -20 -20 -20 -20 -20 -20 -20

GFSMA_prec_radar_036.txt.gz
Reflectivity
-20 -20 -16 -13 -4 -20 -20 -20 -20 -20 -20 -20 -20 -20 -20 -20 -20 -20 -20 -20 -20 -20 -20 -20 -20 -20 -20 -20 -20 -20 -20 -20 -20 -20 -20 -20 -20 -20 -20 -20 -20 -20 -20
-20 -20 -3 -17 -12 -20 -20 -20 -20 -20 -20 -20 -20 -20 -20 -20 -20 -20 -20 -20 -20 -20 -20 -20 -20 -20 -20 -20 -20 -20 -20 -20 -20 -20 -20 -20 -20 -20 -20 -20 -20 -20 -20
-20 -20 -2 -7 -3 -20 -20 -20 -20 -20 -20 -20 -20 -20 -20 -20 -20 -20 -20 -20 -20 -20 -20 -20 -20 -20 -20 -20 -20 -20 -20 -20 -20 -20 -20 -20 -20 -20 -20 -20 -20 -20 -20
-20 -20 -20 3 -5 -20 -20 -20 -20 -20 -20 -20 -20 -20 -20 -20 -20 -20 -20 -20 -20 -20 -20 -20 -20 -20 -20 -20 -20 -20 -20 -20 -20 -20 -20 -20 -20 -20 -20 -20 -20 -20 -20
-20 -20 -20 -20 -20 -20 -20 -20 -20 -20 -20 -20 -20 -20 -20 -20 -20 -20 -20 -20 -20 -20 -20 -20 -20 -20 -20 -20 -20 -20 -20 -20 -20 -20 -20 -20 -20 -20 -20 -20 -20 -20 -20
-10 -20 -20 -20 -20 -20 -20 -20 -20 -20 -20 -20 -20 -20 -20 -20 -20 -20 -20 -20 -20 -20 -20 -20 -20 -20 -20 -20 -20 -20 -20 -20 -20 -20 -20 -20 -20 -20 -20 -20 -20 -20 -20
-7 -20 -20 -20 -20 -20 -20 -20 -20 -20 -20 -20 -20 -20 -20 -20 -20 -20 -20 -20 -20 -20 -20 -20 -20 -20 -20 -20 -20 -20 -20 -20 -20 -20 -20 -20 -20 -20 -20 -20 -20 -20 -20
-20 -20 -9 2 -11 -20 -20 -20 -20 -20 -20 -20 -20 -20 -20 -20 -20 -20 -20 -20 -20 -20 -20 -20 -20 -20 -20 -20 -20 -20 -20 -20 -20 -20 -20 -20 -20 -20 -20 -20 -20 -20 -20
-20 -20 17 -20 -16 -20 -20 -20 -17 -20 -20 -20 -20 -20 -20 -20 -20 -20 -20 -20 -20 -20 -20 -20 -20 -20 -20 -20 -20 -20 -20 -20 -20 -20 -20 -20 -20 -20 -20 -20 -20 -20 -20
-20 -12 -11 14 9 25 -19 -20 14 -20 -20 -20 -20 -20 -20 -20 -20 -20 -20 -20 -20 -20 -20 -20 -20 -20 -20 -20 -20 -20 -20 -20 -20 -20 -20 -20 -20 -20 -20 -20 -20 -20 -20
-20 -20 -17 1 -20 -20 -19 -20 14 -17 -20 -20 -20 -20 -20 -19 -8 -0 -6 -19 -20 -20 -20 -20 -20 -20 -20 -20 -20 -20 -20 -20 -20 -20 -20 -20 -20 -20 -20 -20 -20 -20 -20
-20 -18 -20 -4 18 -6 -20 -20 -20 8 -11 -20 -6 -14 -11 24 -10 -12 16 -20 -20 -20 -20 -20 -20 -20 -20 -20 -20 -20 -20 -20 -20 -20 -20 -20 -20 -20 -20 -20 -20 -20 -20
-20 -14 -20 -20 -20 11 21 23 22 2 23 18 15 19 19 11 -20 8 -20 -20 -20 -20 -16 -20 -20 -20 -20 -20 -20 -20 -20 -20 -20 -20 -20 -20 -20 -20 -20 -20 -20 -20 -20
-6 -20 -20 -20 -20 -20 -7 20 -15 23 24 20 19 17 3 13 6 -20 -7 15 -3 4 13 -18 -20 -20 -20 -20 -20 -20 -20 -20 -20 -20 -20 -20 -20 -20 -20 -20 -20 -20 -20
-20 -20 -20 -20 -12 9 -16 -20 -20 20 25 26 22 19 -5 2 2 6 -20 -20 -17 -19 6 18 2 -18 -20 -20 -20 -20 -20 -20 -20 -20 -20 -20 -20 -20 -20 -20 -20 -20 -20
-14 -20 -20 -20 -20 -20 14 15 11 13 21 17 25 25 10 11 -1 -20 -7 -5 29 21 32 3 14 11 1 -1 8 -10 -19 -20 -20 -20 -20 -20 -20 -20 -20 -20 -20 -9 -2
-19 1 2 -20 -20 -20 -20 7 17 17 1 17 19 19 38 32 41 -0 11 3 6 5 18 22 36 21 14 1 23 15 -8 -20 -20 -20 -20 -20 -20 -20 -20 -14 -20 -20 -19
-20 -20 -18 4 21 -13 -20 -2 17 19 22 -18 17 16 14 -20 -20 5 -0 3 8 18 25 26 33 33 29 27 27 18 11 10 -11 -20 -20 -20 -20 -20 -20 -20 -20 -12 -3
-12 -18 -15 -20 15 -18 5 9 18 23 12 -6 -17 17 13 -20 13 36 25 18 30 35 28 30 30 17 17 22 29 24 19 17 6 -17 -20 -20 -20 -20 -20 -20 -20 -20 -20
-0 -7 0 -20 -20 -20 -8 -9 10 18 -20 15 14 10 23 25 17 20 19 21 28 32 28 8 5 -16 -1 10 24 18 5 -13 -7 -19 -20 -20 -20 -20 -20 -20 -20 -20 -20
-20 -20 -20 -19 3 12 12 -20 -6 -19 4 24 13 -4 30 23 26 28 31 24 34 27 32 19 -5 8 21 15 -1 -15 -17 -20 -20 -20 -20 -20 -20 -20 -20 -20 -20 -20 -20
-20 -20 4 4 15 18 17 16 17 20 13 13 4 -4 21 30 26 27 13 6 -4 16 14 10 9 -7 -14 -20 -20 -20 -20 -20 -20 -20 -20 -20 -20 -20 -20 -20 -20 -20 -20
-19 1 -8 -13 -7 0 18 10 26 10 6 16 18 21 24 19 31 23 15 11 22 25 4 -15 -20 -20 -20 -20 -20 -20 -17 -6 -10 -20 -20 -20 -20 -20 -20 -20 -20 -20 -20
11 6 1 -13 7 21 27 16 23 25 15 21 16 -13 -14 6 7 -2 -8 1 4 -2 -16 -20 -20 -20 -20 -20 -19 -14 4 -8 -20 -20 -20 -12 -20 -20 -20 -20 -20 -20 -20
15 10 17 10 17 21 36 30 34 27 19 -2 -20 -20 -20 -14 -18 -20 -20 -20 -20 -20 -20 -20 -20 -20 -20 -20 -20 -20 -20 -3 -7 -20 -20 -20 -20 -20 -20 -20 -20 -20 -20
-3 2 24 31 34 31 32 25 14 -14 -6 -20 -20 -19 -19 -20 -20 -20 -20 -10 -20 -20 -20 -20 -20 -20 -20 -20 -20 -20 -20 -3 -4 -19 -20 -20 -20 -20 -20 -20 -20 -20 -20

GFSMA_prec_radar_039.txt.gz
Reflectivity
-20 -20 -20 -20 -20 -20 -20 -20 -20 -20 -20 -20 -20 -20 -20 -20 -20 -20 -20 -20 -20 -20 -20 -20 -20 -20 -20 -20 -20 -20 -20 -20 -20 -20 -20 -20 -20 -20 -20 -20 -20 -20 -20
-20 -20 -20 -14 -20 -20 -20 -20 -20 -20 -20 -20 -20 -20 -20 -20 -20 -20 -20 -20 -20 -20 -20 -20 -20 -20 -20 -20 -20 -20 -20 -20 -20 -20 -20 -20 -20 -20 -20 -20 -20 -20 -20
-20 -20 -20 -20 -9 -19 -20 -20 -20 -20 -20 -20 -20 -20 -20 -20 -20 -20 -20 -20 -20 -20 -20 -20 -20 -20 -20 -20 -20 -20 -20 -20 -20 -20 -20 -20 -20 -20 -20 -20 -20 -20 -20
-20 -20 -20 -20 -11 5 -20 -20 -20 -20 -20 -20 -20 -20 -20 -20 -20 -20 -20 -20 -20 -20 -20 -20 -20 -20 -20 -20 -20 -20 -20 -20 -20 -20 -20 -20 -20 -20 -20 -20 -20 -20 -20
-20 -20 -20 -20 -20 -20 -20 -20 -20 -20 -20 -20 -20 -20 -20 -20 -20 -20 -20 -20 -20 -20 -20 -20 -20 -20 -20 -20 -20 -20 -20 -20 -20 -20 -20 -20 -20 -20 -20 -20 -20 -20 -20
-20 -20 -20 -20 -20 -20 -20 -20 -20 -20 -20 -20 -20 -20 -20 -20 -20 -20 -20 -20 -20 -20 -20 -20 -20 -20 -20 -20 -20 -20 -20 -20 -20 -20 -20 -20 -20 -20 -20 -20 -20 -20 -20
-20 -20 -20 -20 -20 -20 -20 -20 -20 -20 -20 -20 -20 -20 -20 -20 -20 -20 -20 -20 -20 -20 -20 -20 -20 -20 -20 -20 -20 -20 -20 -20 -20 -20 -20 -20 -20 -20 -20 -20 -20 -20 -20
-20 -20 -20 -20 -20 -20 -20 -20 -20 -20 -20 -20 -20 -20 -20 -20 -20 -20 -20 -20 -20 -20 -20 -20 -20 -20 -20 -20 -20 -20 -20 -20 -20 -20 -20 -20 -20 -20 -20 -20 -20 -20 -20
-20 -20 -20 -20 -20 -20 -20 -20 -20 -20 -20 -20 -20 -20 -20 -20 -20 -20 -20 -20 -20 -20 -20 -20 -20 -20 -20 -20 -20 -20 -20 -20 -20 -20 -20 -20 -20 -20 -20 -20 -20 -20 -20
-20 -1 9 9 -18 -10 -13 -20 -20 -19 -17 5 18 -20 -20 -20 -20 -20 -20 -20 -6 -2 -17 -20 -20 -20 -20 -20 -20 -20 -20 -20 -20 -20 -20 -20 -20 -20 -20 -20 -20 -20 -20
-20 -10 -20 -20 12 22 -3 -3 -20 -20 7 -20 20 -10 -20 -20 -20 -20 -20 -9 -14 11 1 -13 -20 -20 -20 -20 -20 -20 -20 -20 -20 -20 -20 -20 -20 -20 -20 -20 -20 -20 -20
-15 -20 -9 -4 -6 -12 -20 -11 23 3 -4 10 -20 -20 -16 -12 -20 -20 -20 -20 -11 20 -15 9 -11 5 -3 -19 -20 -20 -20 -20 -20 -20 -20 -20 -20 -20 -20 -20 -20 -20 -20
-5 -20 -6 10 11 10 10 5 0 18 20 21 18 6 10 -20 -10 -6 18 -7 -15 -20 -16 -13 -20 -20 -20 -20 -20 -20 -20 -20 -20 -20 -20 -20 -20 -20 -20 -20 -20 -20 -20
-20 -16 -20 -20 10 1 -1 14 10 8 2 0 21 21 24 22 14 5 37 27 -20 -20 -20 -20 -18 -15 10 -4 -20 -20 -14 -20 -20 -20 -20 -20 -20 -20 -20 -20 -20 -20 -20
-20 -20 6 -7 -14 6 5 -0 15 13 18 -3 -20 18 20 20 22 17 11 12 15 -4 29 27 -16 7 16 21 20 -1 1 8 -18 -20 -20 -20 -20 -20 -20 -20 -20 -20 -20
-20 -20 -20 -16 -7 0 9 13 12 24 13 16 20 21 20 22 22 18 15 18 29 27 17 22 21 1 6 4 12 4 11 18 14 -9 -10 9 -6 -20 -20 -20 -20 -20 -20
-20 -20 -18 10 17 -18 14 18 20 19 23 24 18 18 18 21 19 28 41 30 41 41 34 16 33 14 2 15 23 23 16 11 9 13 -20 -16 -0 7 -19 -20 -20 -20 -20
-20 -20 -20 -20 -20 -20 8 14 -4 10 14 19 21 24 17 19 -15 -14 4 36 26 37 -19 16 12 29 22 34 34 19 7 7 -19 -20 -20 -18 -8 -6 -19 -20 -20 -20 -20
-20 -20 -20 -20 7 -5 10 10 13 3 15 15 12 18 9 1 21 13 6 20 17 20 28 32 22 26 19 18 -0 -18 -17 -17 -20 -20 -12 6 -16 -20 -20 -20 -20 -20 -20
-20 -20 -20 -20 -18 23 11 11 11 15 -15 -3 12 11 12 7 19 7 -4 13 19 33 24 30 18 27 15 3 8 15 -0 -19 -19 -20 -20 -20 -20 -20 -20 -20 -20 -20 -20
-20 -20 -20 -20 -20 -20 -20 -20 -8 -14 -20 -5 15 15 19 19 19 14 29 4 5 1 -11 -3 26 11 1 -20 -20 -20 -20 -20 -18 -20 -20 -20 -20 -20 -20 -20 -20 -20 -20
-20 -20 -20 -20 -20 -20 -14 -20 -20 11 5 1 11 20 21 21 42 30 4 6 3 22 8 1 -5 0 -15 -20 -20 -20 -20 -20 -20 -20 -20 -20 -20 -20 -20 -20 -20 -20 -20
-20 -10 -8 -17 -0 -0 11 6 8 -17 12 -3 17 12 12 26 22 1 14 26 16 7 2 -15 -20 -20 -20 -20 -20 -20 -20 -20 -20 -20 -20 -20 -20 -20 -20 -20 -20 -20 -20
-20 -10 -2 -15 -16 11 11 3 19 18 7 14 13 5 9 21 27 20 2 -20 -20 -20 -20 -20 -20 -20 -20 -20 -20 -20 -20 -20 -20 -20 -20 -20 -20 -20 -20 -20 -20 -20 -20
-20 -20 -20 -20 -12 2 10 3 9 4 19 16 18 17 9 10 -20 -20 -20 -20 -20 -20 -20 -20 -20 -20 -20 -20 -20 -20 -20 -20 -20 -20 -20 -20 -20 -20 -20 -20 -20 -20 -20
-20 -20 -20 -20 -7 -10 7 15 8 -1 8 14 -2 7 -9 -20 -20 -20 -20 -20 -20 -20 -20 -20 -20 -20 -20 -20 -20 -20 -20 -20 -9 -20 -20 -20 -20 -20 -20 -20 -20 -20 -20

GFSMA_prec_radar_042.txt.gz
Reflectivity
-20 -20 -20 -20 -20 -20 -20 -20 -20 -20 -20 -20 -20 -20 -20 -20 -20 -20 -20 -20 -20 -20 -20 -20 -20 -20 -20 -20 -20 -20 -20 -20 -20 -20 -20 -20 -20 -20 -20 -20 -20 -20 -20
-20 -20 -20 -20 -20 -20 -20 -20 -20 -20 -20 -20 -20 -20 -20 -20 -20 -20 -20 -20 -20 -20 -20 -20 -20 -20 -20 -20 -20 -20 -20 -20 -20 -20 -20 -20 -20 -20 -20 -20 -20 -20 -20
-20 -20 -20 -20 -20 -20 -20 -20 -20 -20 -20 -20 -20 -20 -20 -20 -20 -20 -20 -20 -20 -20 -20 -20 -20 -20 -20 -20 -20 -20 -20 -20 -20 -20 -20 -20 -20 -20 -20 -20 -20 -20 -20
-20 -20 -20 -20 -20 -20 -20 -20 -20 -20 -20 -20 -20 -20 -20 -20 -20 -20 -20 -20 -20 -20 -20 -20 -20 -20 -20 -20 -20 -20 -20 -20 -20 -20 -20 -20 -20 -20 -20 -20 -20 -20 -20
-20 -20 -20 -20 -20 -20 -20 -20 -20 -20 -20 -20 -20 -20 -20 -20 -20 -20 -20 -20 -20 -20 -20 -20 -20 -20 -20 -20 -20 -20 -20 -20 -20 -20 -20 -20 -20 -20 -20 -20 -20 -20 -20
-20 -20 -20 -20 -20 -20 -20 -20 -20 -20 -20 -20 -20 -20 -20 -20 -20 -20 -20 -20 -20 -20 -20 -20 -20 -20 -20 -20 -20 -20 -20 -20 -20 -20 -20 -20 -20 -20 -20 -20 -20 -20 -20
-20 -20 -20 -20 -20 -20 -20 -20 -20 -20 -20 -20 -20 -20 -20 -20 -20 -20 -20 -20 -20 -20 -20 -20 -20 -20 -20 -20 -20 -20 -20 -20 -20 -20 -20 -20 -20 -20 -20 -20 -20 -20 -20
-20 24 -20 -20 -20 -9 -20 -20 -20 -20 -20 -20 -20 -20 -20 -20 -20 -20 -20 -20 -20 -20 -20 -20 -20 -20 -19 -20 -18 -20 -20 -20 -20 -20 -20 -20 -20 -20 -20 -20 -20 -20 -20
15 24 -9 0 -15 -20 -20 -20 3 4 -5 -20 -20 -20 -20 -20 -20 -20 -20 -20 -20 -20 -20 -20 -20 -13 -20 -6 -20 -20 -20 -20 -20 -20 -20 -20 -20 -20 -20 -20 -20 -20 -20
-20 -20 17 25 9 23 8 7 27 24 -1 -20 5 -20 -20 -20 -20 -20 -20 -20 -13 -14 1 -8 -20 -2 -9 13 -20 -20 -19 -20 -20 -20 -20 -20 -20 -20 -20 -20 -20 -20 -20
-18 -20 -20 -6 12 21 -5 27 -17 -14 6 13 -17 -11 -19 -19 13 4 -20 -20 -20 -19 -19 -20 -20 -20 -10 17 -5 -12 8 -2 -20 -20 -20 -20 -20 -20 -20 -20 -20 -20 -20
-9 11 -20 -20 1 16 20 11 -1 -20 -8 -5 -20 21 19 18 17 17 17 -4 -20 -20 -20 -20 -20 4 20 -0 2 9 3 -20 -20 -20 -20 -20 -20 -20 -20 -20 -20 -20 -20
12 -6 -15 4 -13 -10 13 16 20 18 21 -12 -4 -0 21 19 21 20 20 9 5 11 -20 -17 26 23 13 -13 -12 -20 11 -20 20 -19 -14 -16 -20 -20 -20 -20 -20 -20 -20
-20 -20 14 20 20 -20 6 15 22 17 13 12 12 12 13 20 18 19 26 26 21 17 10 -19 -7 19 14 -20 -20 -7 30 6 -4 -10 9 13 4 -19 -20 -20 -20 -20 -20
-20 -20 -20 -20 -15 11 9 15 11 16 23 12 18 11 18 22 20 16 19 -6 24 22 23 -12 -18 27 35 34 31 32 34 24 5 5 12 18 15 4 9 -4 -20 -20 -20
-20 -20 -20 -20 -20 -20 -19 14 7 -5 13 27 22 25 24 18 21 18 15 21 24 23 19 26 36 38 37 40 33 24 31 12 15 17 20 22 14 1 -20 -20 -13 -20 -20
-20 -20 -20 -20 -20 -20 6 6 19 11 -6 7 17 14 26 18 17 20 17 14 12 17 18 33 42 40 36 29 24 11 12 5 -7 -8 -16 -20 -18 -14 -20 -20 -20 -20 -20
-20 -20 -20 -20 -20 -20 4 -16 -20 -20 -20 -17 12 12 10 8 18 17 16 19 14 17 26 27 34 27 30 34 27 30 5 2 -6 11 -20 -20 -20 -20 -20 -20 -20 -20 -20
-20 -20 -20 -20 -20 -20 -17 -20 -20 -5 4 14 10 6 11 12 13 15 15 19 23 29 23 18 29 24 33 25 29 15 3 -16 -20 -20 -20 -20 -20 -20 -20 -20 -20 -20 -20
-20 -20 -20 -20 -20 -20 -20 -20 -20 -20 -19 -20 -4 -11 -1 11 14 7 20 20 22 19 19 9 1 17 16 29 3 -20 -20 -20 -20 -20 -20 -20 -20 -20 -20 -20 -20 -20 -20
-20 -20 -20 -20 -20 -20 -20 -20 -20 -20 -20 -20 -20 -11 -20 18 17 13 -5 0 16 7 17 25 4 -17 -20 -20 -20 -20 -20 -20 -19 -20 -20 -20 -20 -20 -20 -20 -20 -20 -20
-20 -20 -20 -20 -20 -20 -20 -5 -20 -20 -20 -20 -16 20 22 25 23 12 15 19 17 14 -9 -20 -20 -20 -19 -20 -20 -20 -20 -20 -20 -20 -20 -20 -20 -20 -20 -20 -20 -20 -20
-20 -20 -20 -20 -20 -2 4 0 -20 -16 -14 -4 12 23 23 23 18 5 9 8 20 14 -10 -20 -20 -20 -20 -20 -20 -20 -20 -20 -20 -20 -20 -20 -20 -20 -20 -20 -20 -20 -20
-20 -20 -20 -20 -20 6 7 1 -20 -20 -20 14 22 20 12 14 21 28 17 3 7 -2 -19 -20 -20 -20 -20 -20 -20 -20 -20 -20 -20 -20 -20 -20 -20 -20 -20 -20 -20 -20 -20
-20 -20 -20 -20 -20 -17 4 -20 -20 -20 -20 -20 -18 -10 -8 -15 -12 -16 -20 -20 -20 -20 -20 -20 -20 -20 -20 -20 -20 -20 -20 -20 -20 -20 -20 -20 -20 -20 -20 -20 -20 -20 -20
-20 -20 -20 -20 -20 -20 -20 -20 -20 -20 -20 -19 -11 -20 -20 -20 -20 -20 -20 -20 -20 -20 -20 -20 -20 -20 -20 -20 -20 -20 -20 -20 -20 -19 -20 -20 -20 -20 -20 -20 -20 -20 -20

GFSMA_prec_radar_045.txt.gz
Reflectivity
-20 -20 -20 -20 -20 -20 -20 -20 -20 -20 -20 -20 -20 -20 -20 -20 -20 -20 -20 -20 -20 -20 -20 -20 -20 -20 -20 -20 -20 -20 -20 -20 -20 -20 -20 -20 -20 -20 -20 -20 -20 -20 -20
-20 -20 -20 -20 -20 -20 -20 -20 -20 -20 -20 -20 -20 -20 -20 -20 -20 -20 -20 -20 -20 -20 -20 -20 -20 -20 -20 -20 -20 -20 -20 -20 -20 -20 -20 -20 -20 -20 -20 -20 -20 -20 -20
-20 -20 -20 -20 -20 -20 -20 -20 -20 -20 -20 -20 -20 -20 -20 -20 -20 -20 -20 -20 -20 -20 -20 -20 -20 -20 -20 -20 -20 -20 -20 -20 -20 -20 -20 -20 -20 -20 -20 -20 -20 -20 -20
-20 -20 -20 -20 -20 -20 -20 -20 -20 -20 -20 -20 -20 -20 -20 -20 -20 -20 -20 -20 -20 -20 -20 -20 -20 -20 -20 -20 -20 -20 -20 -20 -20 -20 -20 -20 -20 -20 -20 -20 -20 -20 -20
-20 -20 -20 -20 -20 -20 -20 -20 -20 -20 -20 -20 -20 -20 -20 -20 -20 -20 -20 -20 -20 -20 -20 -20 -20 -20 -20 -20 -20 -20 -20 -20 -20 -20 -20 -20 -20 -20 -20 -20 -20 -20 -20
-20 -20 -20 -20 -20 -20 -20 -20 -20 -20 -20 -20 -20 -20 -20 -20 -20 -20 -20 -20 -20 -20 -20 -20 -20 -20 -20 -20 -20 -20 -20 -20 -20 -20 -20 -20 -20 -20 -20 -20 -20 -20 -20
-20 -20 -20 8 -20 -20 -20 -20 -20 -20 -20 -20 -20 -20 -20 -20 -20 -20 -20 -20 -20 -20 -20 -20 -20 -20 -20 -20 -20 -20 -20 -20 -20 -20 -20 -20 -20 -20 -20 -20 -20 -20 -20
-10 -20 -20 -20 10 -20 -20 -20 -20 -20 -20 -20 -20 -20 -20 -20 -20 -20 -20 -20 -20 -20 -20 -20 -20 -20 -20 -20 -20 -20 -13 -20 -20 -20 -20 -20 -20 -20 -20 -20 -20 -20 -20
-20 -20 -20 -7 11 -2 -20 -11 -20 24 -6 14 -20 22 -20 -20 -20 -20 -20 -20 -20 -20 -20 -20 -20 -13 -20 -20 -20 -1 1 -20 -20 -15 -20 -20 -20 -20 -20 -20 -20 -20 -20
-20 -20 -20 -20 -20 -18 11 -3 12 -19 23 -6 24 -13 -2 -20 -20 -20 -20 -20 -13 1 -13 -20 -20 -20 -8 7 13 -20 -20 10 0 -20 -20 -20 -20 -20 -20 -20 -20 -20 -20
8 4 -20 -20 -10 31 -20 12 19 21 20 27 19 27 -19 -7 -17 -20 -20 -17 16 12 9 6 4 -20 -20 -6 15 8 -19 -17 22 -8 -20 2 -20 -20 -13 -3 -16 -20 -20
-20 0 -11 9 2 30 4 17 22 16 22 20 -6 -9 21 21 18 12 -5 15 22 20 14 5 -11 -20 -20 -20 -18 -8 12 23 28 1 23 19 13 4 -16 -20 -19 -20 -20
-20 -20 -20 -20 -4 14 -7 22 15 15 21 15 13 -0 23 23 21 12 14 10 -7 -17 21 30 31 12 -19 -20 -14 5 25 20 24 18 7 9 2 21 -3 17 -3 9 -19
-20 -20 -20 -20 -20 -20 -20 6 -7 -12 -3 18 22 24 26 26 27 21 27 23 17 17 8 1 -11 7 28 3 28 28 4 15 21 30 29 29 33 29 12 7 11 12 -5
-20 -20 -20 -20 -20 -20 -20 -20 -20 -16 14 -9 -2 -11 22 21 24 -14 2 24 22 20 20 2 -3 -2 30 31 40 41 36 39 40 38 32 36 31 20 0 10 10 10 -20
-20 -20 -20 -20 -20 -20 -20 -20 -20 -20 -9 5 -20 -20 -3 25 8 27 -1 20 21 20 6 3 29 31 24 38 32 33 36 37 34 33 28 32 30 15 15 13 11 -2 -20
-20 -20 -20 -20 -20 -20 -20 -20 -20 -20 -20 -20 -17 -17 4 13 9 0 -4 27 38 26 19 4 17 20 19 25 34 35 24 29 13 30 32 29 23 -2 2 -11 -20 -20 -20
-20 -20 -20 -20 -20 -20 -20 -20 2 -20 -20 -20 -20 -20 -20 -17 -20 -20 -20 -9 23 34 13 19 21 25 10 15 9 30 35 16 21 18 17 19 -2 -16 -20 -20 -20 -20 -20
-20 -20 -20 -20 -20 -20 -20 -20 -20 -20 -20 -20 2 1 -19 -20 -17 -14 2 10 18 20 28 16 24 15 38 40 24 14 4 1 10 13 -11 -20 -20 -20 -20 -20 -20 -20 -20
-20 -20 -20 -20 -20 -20 -20 -20 -20 -20 -20 -20 -20 -2 -4 -20 -20 -20 -4 13 -18 9 19 17 31 34 6 2 7 2 -9 -9 -13 -9 -20 -20 -20 -20 -20 -20 -20 -20 -20
-20 -20 -20 -20 -20 -20 -20 -20 -20 -20 -20 -20 -20 -20 -20 1 -4 -7 -0 25 28 -4 15 11 12 -3 4 1 -16 3 -4 -20 -19 -17 -20 -20 -20 -20 -20 -20 -20 -20 -20
-20 -20 -20 -20 -20 -20 -20 -20 -20 -20 -20 -20 -20 -20 -20 -12 4 16 36 24 15 13 -6 -7 -16 -15 -15 -20 -16 -20 -20 -20 -20 -20 -20 -20 -20 -20 -20 -20 -20 -20 -20
-20 -20 -20 -20 -20 -20 10 -15 -20 -20 -20 -20 -20 -20 -12 -6 13 20 23 11 10 12 -4 -12 -15 -3 -4 -20 -17 -20 -20 -20 -20 -20 -20 -20 -20 -20 -20 -20 -20 -20 -20
-20 -20 -20 -20 -20 1 6 -13 -20 -20 -20 -20 -20 -20 -20 -19 -20 -18 -14 -9 4 0 -18 -20 -20 -20 -20 -20 -20 -20 -20 -20 -20 -20 -20 -20 -20 -20 -20 -20 -20 -20 -20
-20 -20 -20 -20 -20 -20 -20 -20 -20 -20 -20 -20 -20 -20 -20 -20 -20 -20 -20 -20 -20 -20 -20 -20 -20 -20 -20 -20 -20 -20 -20 -20 -20 -20 -20 -20 -20 -20 -20 -20 -20 -20 -20
-20 -20 -20 -20 -20 -20 -20 -20 -20 -20 -20 -20 -20 -20 -20 -20 -20 -20 -20 -20 -20 -20 -20 -20 -20 -20 -20 -20 -20 -20 -20 -20 -20 -20 -20 -20 -20 -20 -20 -20 -20 -20 -20

GFSMA_prec_radar_048.txt.gz
Reflectivity
-20 -20 -20 -20 -20 -20 -20 -20 -20 -20 -20 -20 -20 -20 -20 -20 -20 -20 -20 -20 -20 -20 -20 -20 -20 -20 -20 -20 -20 -20 -20 -20 -20 -20 -20 -20 -20 -20 -20 -20 -20 -20 -20
-20 -20 -20 -20 -20 -20 -20 -20 -20 -20 -20 -20 -20 -20 -20 -20 -20 -20 -20 -20 -20 -20 -20 -20 -20 -20 -20 -20 -20 -20 -20 -20 -20 -20 -20 -20 -20 -20 -20 -20 -20 -20 -20
-20 -20 -20 -20 -20 -20 -20 -20 -20 -20 -20 -20 -20 -20 -20 -20 -20 -20 -20 -20 -20 -20 -20 -20 -20 -20 -20 -20 -20 -20 -20 -20 -20 -20 -20 -20 -20 -20 -20 -20 -20 -20 -20
-20 -20 -20 -20 -20 -20 -20 -20 -20 -20 -20 -20 -20 -20 -20 -20 -20 -20 -20 -20 -20 -20 -20 -20 -20 -20 -20 -20 -20 -20 -20 -20 -20 -20 -20 -20 -20 -20 -20 -20 -20 -20 -20
-20 -20 -20 -20 -20 -20 -20 -20 -20 -20 -20 -20 -20 -20 -20 -20 -20 -20 -20 -20 -20 -20 -20 -20 -20 -20 -20 -20 -20 -20 -20 -20 -20 -20 -20 -20 -20 -20 -20 -20 -20 -20 -20
-20 -20 -20 -20 -20 -20 -20 -20 -20 -20 -20 -20 -20 -20 -20 -20 -20 -20 -20 -20 -20 -20 -20 -20 -20 -20 -20 -20 -20 -20 -20 -20 -20 -20 -20 -20 -20 -20 -20 -20 -20 -20 -20
-8 -20 -20 -20 -20 -20 -20 -20 -20 -20 -20 -3 -20 -20 -20 -20 -20 -20 -20 -20 -20 -20 -20 -20 -20 -20 -20 -20 -20 -20 -20 -20 -20 -20 -20 -20 -20 -20 -20 -20 -20 -20 -20
-20 -17 -20 -20 -20 -13 -20 -20 -20 9 -20 -20 -7 -20 -6 -20 -20 -20 -20 -20 -20 -20 -20 -19 -8 -20 -20 -20 -20 -20 -20 -20 -20 -20 -20 12 -20 -20 -20 -20 -20 -20 -20
-20 -20 -20 -20 -20 -20 -6 -20 -0 21 14 25 20 25 -20 -20 -20 -20 -20 -20 -20 -20 -20 -5 -18 -5 -5 -19 -20 -20 -0 1 -9 -20 -6 -20 -19 -20 -20 -20 -20 -20 -20
-20 -20 -20 -20 -20 -20 -20 -20 -19 -19 21 5 21 19 17 -20 -20 -20 -20 -20 -20 -20 -20 -20 -14 11 9 -5 17 -6 2 8 10 -10 4 4 10 14 -10 -16 -20 -20 -20
-20 -20 -20 -20 -20 13 -18 -20 -20 -20 -20 17 15 17 25 9 16 17 -20 -20 20 12 -20 -20 -18 -10 6 9 -5 20 23 -19 -20 -20 -20 -18 10 18 23 -10 -20 3 -17
-20 -20 -20 -20 -20 -20 -10 -19 -20 -20 -20 21 21 16 15 -20 8 19 2 17 20 3 -19 -17 -3 -11 17 30 29 28 21 10 4 -16 -5 -17 9 19 29 11 -3 21 -7
-20 -20 -20 -20 -20 -20 -20 -20 -20 16 -13 -15 4 12 19 -6 15 18 20 8 28 38 19 1 -8 -6 4 14 27 39 36 20 5 9 2 24 19 10 13 30 29 30 20
-20 -20 -20 -20 -20 -20 -20 -20 -20 -20 -7 6 -20 -20 -18 -14 -1 23 21 -17 17 -18 22 37 28 8 -3 7 5 17 29 37 32 35 32 38 33 29 28 38 34 32 24
-20 -20 -20 -20 -20 -20 -20 -20 -20 -20 -20 -19 3 7 -9 10 4 17 20 20 25 19 10 2 26 15 9 14 20 3 22 27 27 36 35 37 29 34 37 36 31 26 18
-20 -20 -20 -20 -20 -20 -20 -20 -20 -20 -20 -20 -20 -6 -20 -20 -12 -20 2 16 19 25 21 -13 -20 -2 10 15 21 5 24 27 30 29 35 25 23 31 31 30 31 21 9
-20 -20 -20 -20 -20 -20 -20 -20 -20 -20 -20 -20 -20 -20 -20 -4 -13 -20 -5 -16 -16 -2 12 9 -11 10 26 21 22 21 25 28 31 28 34 29 24 27 28 16 5 3 -5
-20 -20 -20 -20 -20 -20 -20 -20 -20 -20 -20 -20 4 -20 -20 -20 -20 6 4 10 3 11 -10 8 20 24 36 25 28 14 32 28 29 24 31 26 9 21 11 -11 4 -12 -20
-20 -20 -20 -20 -20 -20 -20 -20 -20 -20 -20 -20 -20 -20 -13 2 -19 6 3 10 4 -20 -6 23 24 5 29 28 33 34 25 35 20 23 23 12 3 -3 -13 -20 -20 -20 -20
-20 -20 -20 -20 -20 -20 -20 -20 -20 -20 -20 -20 -20 -20 -20 -20 -20 -18 -15 -19 -7 -15 9 2 -4 13 23 23 33 27 25 22 21 11 7 -3 -20 -20 -20 -20 -20 -20 -20
-20 -20 -20 -20 -20 -20 -20 -20 -20 -20 -20 -20 -20 -20 -20 -20 -6 1 -20 -20 -17 -19 21 32 22 14 2 4 5 19 1 7 9 -16 -20 -20 -20 -20 -20 -20 -20 -20 -20
-20 -20 -20 -20 -20 -20 15 11 -20 -20 -20 -20 -20 -20 -20 -20 -4 11 3 2 2 2 -20 -20 -11 -20 -13 -13 -14 -6 -14 -20 -20 -20 -20 -20 -20 -20 -20 -20 -20 -20 -20
-20 -20 -20 -20 -20 -20 2 1 -2 -20 -20 -20 -20 -20 -20 -20 -20 -20 -15 -19 -10 0 8 -20 -20 -20 -20 -20 -20 -20 -20 -20 -20 -20 -20 -20 -20 -20 -20 -20 -20 -20 -20
-20 -20 -20 -20 -20 -14 -13 -20 -20 -20 -20 -20 -20 -20 -20 -20 -20 -20 -20 -20 -20 -20 -20 -20 -20 -20 -20 -20 -20 -20 -20 -20 -20 -20 -20 -20 -20 -20 -20 -20 -20 -20 -20
-20 -20 -20 -20 -20 -20 -20 -20 -20 -20 -20 -20 -20 -20 -20 -20 -20 -20 -20 -20 -20 -20 -20 -20 -20 -20 -20 -20 -20 -20 -20 -20 -20 -20 -20 -20 -20 -20 -20 -20 -20 -20 -20
-20 -20 -20 -20 -20 -20 -20 -20 -20 -20 -20 -20 -20 -20 -20 -20 -20 -20 -20 -20 -20 -20 -20 -20 -20 -20 -20 -20 -20 -20 -20 -20 -20 -20 -20 -20 -20 -20 -20 -20 -20 -20 -20

GFSMA_prec_radar_051.txt.gz
Reflectivity
-20 -20 -20 -20 -20 -20 -20 -20 -20 -20 -20 -20 -20 -20 -20 -20 -20 -20 -20 -20 -20 -20 -20 -20 -20 -20 -20 -20 -20 -20 -20 -20 -20 -20 -20 -20 -20 -20 -20 -20 -20 -20 -20
-20 -20 -20 -20 -20 -20 -20 -20 -20 -20 -20 -20 -20 -20 -20 -20 -20 -20 -20 -20 -20 -20 -20 -20 -20 -20 -20 -20 -20 -20 -20 -20 -20 -20 -20 -20 -20 -20 -20 -20 -20 -20 -20
-20 -20 -20 -20 -20 -20 -20 -20 -20 -20 -20 -20 -20 -20 -20 -20 -20 -20 -20 -20 -20 -20 -20 -20 -20 -20 -20 -20 -20 -20 -20 -20 -20 -20 -20 -20 -20 -20 -20 -20 -20 -20 -20
-20 -20 -20 -20 -20 -20 -20 -20 -20 -20 -20 -20 -20 -20 -20 -20 -20 -20 -20 -20 -20 -20 -20 -20 -20 -20 -20 -20 -20 -20 -20 -20 -20 -20 -20 -20 -20 -20 -20 -20 -20 -20 -20
-20 -20 -20 -20 -20 -20 -20 -20 -20 -20 -20 -20 -20 -20 -20 -20 -20 -20 -20 -20 -20 -20 -20 -20 -20 -20 -20 -20 -20 -20 -20 -20 -20 -20 -20 -20 -20 -20 -20 -20 -20 -20 -20
-20 -20 -20 -20 -20 -20 -20 -20 -20 -20 -20 -20 -20 -20 -20 -20 -20 -20 -20 -20 -20 -20 -20 -20 -20 -20 -20 -20 -20 -20 -20 -20 -20 -20 -20 -20 -20 -20 -20 -20 -20 -20 -20
-20 -20 -20 -20 -20 -20 -20 -20 -20 -20 -20 -20 -20 -20 -20 -20 -20 -20 -20 -20 -20 -20 -20 -20 -20 -20 -20 -20 -20 -20 -20 -20 -20 -20 -20 -20 -20 -20 -20 -20 -20 -20 -20
-20 -20 -20 -20 -20 -20 -20 -20 -20 -20 -20 -20 -18 -9 -20 -20 -20 -20 -20 -20 -20 -20 -20 -20 -20 -20 -20 -20 14 -20 -20 -20 -20 -20 -20 -20 -20 -20 -20 -20 -13 -20 -20
-14 -20 -20 -11 -20 -20 -20 -20 -20 -20 19 -20 -20 18 -9 -20 -20 -20 -20 -20 -20 -20 -20 -20 -20 -20 -20 0 11 11 -8 -7 -20 -20 -20 -20 -14 -18 -20 -20 9 3 -20
-20 -20 -20 -20 -20 -20 -20 -20 -20 -20 -20 -5 -20 -20 -20 11 12 -20 -20 -20 -15 4 -14 -20 1 -20 -9 -16 -15 3 23 10 37 13 -20 -20 -20 -20 -20 -20 -1 5 5
-20 -20 -20 -20 -20 -20 -20 -20 -20 -20 -20 -2 -20 -20 -20 -1 -17 -20 6 -20 -20 -9 13 -20 -20 -20 -20 -7 -15 15 9 25 31 20 -16 -20 10 -13 -16 -15 -16 13 8
-20 -20 -20 -20 -20 -20 -20 -9 -20 -20 6 -20 -20 -9 9 -7 16 17 12 -7 -13 -12 -7 -20 -20 -20 -11 8 27 26 25 23 27 34 32 31 11 6 14 8 9 6 14
-20 -20 -20 -20 -20 -20 -15 -4 -20 -20 -12 -2 20 4 -13 -12 -5 -12 0 -3 -2 -11 -19 -20 -20 -12 -17 -17 23 32 30 21 39 34 36 36 36 13 24 5 16 25 29
-20 -20 -20 -20 -20 -20 -20 -20 -20 -20 -20 -20 -20 -20 -20 -20 -20 -15 13 11 21 6 -18 -20 -20 -20 -20 -20 3 17 40 33 28 24 28 32 29 28 32 26 35 31 26
-20 -20 -20 -20 -20 -20 -20 -20 -20 -20 -17 -16 -20 -20 -13 -10 -20 -20 -20 -15 -17 -8 -18 8 0 -5 -4 -20 -20 -16 23 39 37 24 27 17 26 18 23 21 26 16 21
-20 -20 -20 -20 -20 -20 -20 -20 -20 -20 -14 -3 6 -13 -0 -19 -16 5 -1 19 -5 18 10 -18 -20 -19 -16 -20 -20 -20 20 27 33 25 22 27 21 27 25 21 20 24 24
-20 -20 -20 -20 -20 -20 -20 -20 -20 -20 -20 -20 -20 -20 11 5 -9 9 14 -2 -20 -12 -13 -10 -16 -13 -20 -20 7 -3 16 27 31 29 26 25 25 18 28 30 23 25 23
-20 -20 -20 -20 -20 -20 -20 -20 -20 -20 -20 -20 -20 -1 -20 -20 -20 -19 1 -6 16 -9 2 16 -16 -20 -6 -3 19 18 37 28 23 30 22 24 32 26 17 22 12 6 -3
-20 -20 -20 -20 -20 -20 -20 -20 -20 -20 -20 -20 -20 -20 -20 -20 -20 -18 -16 5 -3 1 -18 -14 -19 -20 -3 -5 15 22 16 30 28 33 27 27 18 9 7 9 13 11 -2
-20 -20 -20 -20 -20 -20 -20 -20 -20 -20 -20 -20 -20 -20 -20 -20 -20 -20 -20 -20 -20 -20 -20 -20 -20 21 -5 -5 4 -11 -1 15 11 2 8 5 -11 -12 -13 -10 -12 -20 -20
-20 -20 -20 -20 -20 -20 -20 -20 -20 -20 -20 -20 -20 -20 -20 -0 12 -0 -19 -20 -20 -20 -20 -20 -20 -20 -9 -16 -20 -6 -8 -8 -4 1 -18 -20 -20 -20 -20 -20 -20 -20 -20
-20 -20 -20 -20 -20 4 14 10 3 -20 -20 -20 -20 -20 -20 -10 6 11 14 17 -4 -20 -20 -20 -20 -20 -20 -20 -20 -20 -20 -20 -20 -20 -20 -20 -20 -20 -20 -20 -20 -20 -20
-20 -20 -20 -20 -20 -19 10 4 -12 -20 -20 -20 -20 -20 -20 -20 -20 -20 -20 -20 -20 -19 3 -20 -20 -20 -20 -20 -20 -20 -20 -20 -20 -20 -20 -20 -20 -20 -20 -20 -20 -20 -20
-20 -20 -20 -20 -20 -20 -20 -20 -20 -20 -20 -20 -20 -20 -20 -20 -20 -20 -20 -20 -20 -20 -20 -20 -20 -20 -20 -20 -20 -20 -20 -20 -20 -20 -20 -20 -20 -20 -20 -20 -20 -20 -20
-20 -20 -20 -20 -20 -20 -20 -20 -20 -20 -20 -20 -20 -20 -20 -20 -20 -20 -20 -20 -20 -20 -20 -20 -20 -20 -20 -20 -20 -20 -20 -20 -20 -20 -20 -20 -20 -20 -20 -20 -20 -20 -20
-20 -20 -20 -20 -20 -20 -20 -20 -20 -20 -20 -20 -20 -20 -20 -20 -20 -20 -20 -20 -20 -20 -20 -20 -20 -20 -20 -20 -20 -20 -20 -20 -20 -20 -20 -20 -20 -20 -20 -20 -20 -20 -20

GFSMA_prec_radar_054.txt.gz
Reflectivity
-20 -20 -20 -20 -20 -20 -20 -20 -20 -20 -20 -20 -20 -20 -20 -20 -20 -20 -20 -20 -20 -20 -15 -20 -20 -20 -20 -20 -20 -20 -20 -20 -20 -20 -20 -20 -20 -20 -20 -20 -20 -20 -20
-20 -20 -20 -20 -20 -20 -20 -20 -20 -20 -20 -20 -20 -20 -20 -20 -20 -20 -20 -20 -20 -20 -20 -20 -20 -20 -12 -20 -20 -20 -20 -20 -20 -20 -20 -20 -20 -20 -20 -20 -20 -20 -20
-20 -20 -20 -20 -20 -20 -20 -20 -20 -20 -20 -20 -20 -20 -20 -20 -20 -20 -20 -20 -20 -20 -20 -20 -20 -20 -20 16 -5 -20 -20 -20 -20 -20 -20 -20 -20 -20 -20 -20 -20 -20 -20
-20 -20 -20 -20 -20 -20 -20 -20 -20 -20 -20 -20 -20 -20 -20 -20 -20 -20 -20 -20 -20 -20 -20 -20 -20 -20 -20 -20 14 -20 -20 -15 -20 -20 -20 -20 -20 -20 -20 -20 -20 -20 -20
-20 -20 -20 -20 -20 -20 -20 -20 -20 -20 -20 -20 -20 -20 -20 -20 -20 -20 -20 -20 -20 -20 -20 -20 -20 -20 -20 -20 -20 -20 -20 -20 -13 -20 -20 -20 -20 -20 -20 -20 -20 -20 -20
-20 -20 -20 -20 -20 -20 -20 -20 -20 -20 -20 -20 -20 -20 -20 -20 -20 -20 -20 -20 -20 -20 -20 -20 -20 -20 -20 -20 -20 -20 -20 9 -20 -20 -20 -20 -20 -20 -20 -20 -20 -20 -20
-20 -20 -20 -20 -20 -20 -20 -20 -20 -20 -20 -20 -17 -20 -20 -20 -20 -20 -20 20 -20 -20 -20 -20 5 -20 -20 -20 -20 -20 -20 -20 2 -20 -20 -20 -20 -20 -20 -20 -20 -20 -20
-20 -20 -20 -20 -20 -20 -20 -20 -20 -20 -20 -20 -20 -20 -20 -18 -20 -20 -20 -20 -20 -20 -20 -20 -20 -20 -20 -20 -20 -20 -18 -17 4 2 -5 -20 -20 -20 -20 -20 -9 -15 2
-20 -20 -20 -20 -20 -20 -20 -20 -20 -20 -15 -20 -20 -10 -20 -13 -18 -20 -20 -20 -20 -20 -20 -20 -20 -20 -20 -20 -20 -20 -4 8 14 11 10 7 -20 -20 -20 -20 -15 7 6
-20 -20 -20 -20 -20 -20 -20 -20 -20 -20 -0 -20 -20 -20 -20 -20 -10 -19 -6 -14 -18 -20 -20 -20 -20 -20 -20 5 12 8 4 12 12 7 26 26 35 27 28 -6 -15 4 -19
-20 -20 -20 -20 -20 -20 -20 -20 -20 -20 -20 1 -20 -20 -8 -6 1 16 8 9 -19 -15 -20 -20 -20 -20 -20 -7 -20 2 14 15 25 35 32 27 24 30 40 21 10 7 7
-20 -20 -20 -20 -20 -4 9 9 -19 -17 -20 -20 -20 -2 -20 -19 -11 -10 11 -20 -20 -20 -20 -20 -18 -20 -20 -20 12 1 4 -1 -9 21 34 39 33 24 32 38 31 22 18
-20 -20 -20 -20 -20 -20 -20 -8 8 -17 -20 -3 6 -13 -20 -16 -20 -20 -16 -20 -20 -20 -20 -20 -16 -20 -20 -20 -20 -20 -20 -20 2 14 27 28 33 27 32 36 29 30 35
-20 -20 -20 -20 -20 -20 -20 -20 -20 -19 -12 -3 11 13 -18 -20 -20 -20 -18 -20 -20 -20 -20 -20 -20 -20 -20 -20 -19 -9 -5 -3 -9 14 25 24 34 35 27 28 31 29 24
-20 -20 -20 -20 -20 -20 -20 -20 -20 2 -15 11 2 -17 -3 8 -20 -20 -7 -18 -19 -11 -2 -4 -20 -4 -20 -20 -16 -20 -20 -20 -16 9 20 22 37 34 28 28 29 27 22
-20 -20 -20 -20 -20 -20 -20 -20 -20 -20 -20 -20 -20 -18 -5 8 -20 5 -10 -7 3 -14 14 -18 16 14 -9 -6 -9 -20 -15 9 11 -1 22 24 33 34 35 22 23 27 27
-20 -20 -20 -20 -20 -20 -20 -20 -20 -20 -20 -19 -20 -20 -20 -10 -19 -20 -20 -20 5 -15 -20 -20 -20 -20 -20 -20 -20 -20 -20 -20 -2 26 28 24 23 33 19 29 29 31 30
-20 -20 -20 -20 -20 -20 -20 -20 -20 -20 -20 -20 -20 -20 -20 -20 -20 -20 -20 -5 -20 -20 -20 -4 -20 -20 -20 -13 -20 -20 -20 -11 -8 15 25 24 23 15 26 22 25 21 26
-20 -20 -20 -20 -20 -20 -20 -20 -20 -20 -20 -20 -20 -20 -20 -20 -20 -20 -20 -20 -20 -20 -20 -20 -20 -20 -20 -20 -20 -20 -16 -20 -19 11 1 8 10 20 21 22 26 17 21
-20 -20 -20 -20 -20 -20 -20 -20 -20 -20 -20 -20 -20 -20 -20 -20 -20 -20 -20 -20 -20 -20 -20 -20 -20 -20 -20 -20 -20 -20 -20 -20 -20 -12 8 13 14 19 10 14 2 -3 7
-20 -20 -20 -20 -20 -20 -20 -20 -20 -20 -20 -20 -20 -20 -20 -0 11 -5 -20 -20 -20 -20 -20 -20 -20 -20 -20 -20 -20 -20 -20 -20 -20 -20 -20 -20 -20 -19 -20 -20 -20 -20 -20
-20 -20 -20 -5 -20 -20 10 14 4 -20 -20 -20 -20 -20 -20 -16 -20 -5 -20 0 -10 -20 -20 -20 -20 -20 -20 -20 -20 -20 -20 -20 -20 -20 -20 -20 -20 -20 -20 -20 -20 -20 -20
-20 -20 -20 -18 -17 -10 13 9 -16 -20 -20 -20 -20 -20 -20 -20 -20 -20 -20 -20 -20 -20 -20 -20 -20 -20 -20 -20 -20 -20 -20 -20 -20 -20 -20 -20 -20 -20 -20 -20 -20 -20 -20
-20 -20 -20 -20 -20 -20 -16 -20 -20 -20 -20 -20 -20 -20 -20 -20 -20 -20 -20 -20 -20 -20 -20 -20 -20 -20 -20 -20 -20 -20 -20 -20 -20 -20 -20 -20 -20 -20 -20 -20 -20 -20 -20
-20 -20 -20 -20 -20 -20 -20 -20 -20 -20 -20 -20 -20 -20 -20 -20 -20 -20 -20 -20 -20 -20 -20 -20 -20 -20 -20 -20 -20 -20 -20 -20 -20 -20 -20 -20 -20 -20 -20 -20 -20 -20 -20
-20 -20 -20 -20 -20 -20 -20 -20 -20 -20 -20 -20 -20 -20 -20 -20 -20 -20 -20 -20 -20 -20 -20 -20 -20 -20 -20 -20 -20 -20 -20 -20 -20 -20 -20 -20 -20 -20 -20 -20 -20 -20 -20

GFSMA_prec_radar_057.txt.gz
Reflectivity
-20 -20 -20 -20 -20 -20 -20 -20 -20 -20 -20 -20 -20 -20 -20 -20 -20 -20 -20 -20 -20 -20 0 -20 -20 -20 -20 -20 -20 -20 -20 -20 -20 -20 -20 -20 -20 -20 -20 -20 -20 -20 -20
-20 -20 -20 -20 -20 -20 -20 -20 -20 -20 -20 -20 -20 -20 -20 -20 -20 -20 -20 -20 -20 -20 -20 -20 -20 -20 -20 1 -20 -20 -20 -20 -20 -20 -20 -20 -20 -20 -20 -20 -20 -20 -20
-20 -20 -20 -20 -20 -20 -20 -20 -20 -20 -20 -20 -20 -20 -20 -20 -20 -20 -20 -20 -20 -20 -20 -20 -20 -20 -19 -18 9 11 -7 -20 -20 -20 -20 -20 -20 -20 -20 -20 -20 -20 -20
-20 -20 -20 -20 -20 -20 -20 -20 -20 -20 -20 -20 -20 -20 -20 -20 -20 -20 -20 -20 -20 -20 -20 -20 -20 -20 -9 1 -14 11 10 -16 -20 -20 -20 -20 -20 -20 -20 -20 -20 -20 -20
-20 -20 -20 -20 -20 -20 -20 -20 -20 -20 -20 -20 -20 -20 -20 -20 -20 -20 -20 -20 -20 -20 -20 -20 -20 -20 -20 -20 1 2 13 7 -20 -20 -20 -20 -20 -20 -20 -20 -20 -20 -20
-20 -20 -20 -20 -20 -20 -20 -20 -20 -20 -20 -20 -20 -20 -20 -20 -20 -20 -20 -20 -20 -20 -20 -20 -20 -20 -20 -20 -20 -18 3 13 0 -20 -20 -20 -20 -20 -20 -20 -20 -20 -20
-20 -20 -20 -20 -20 -20 -20 -20 -20 -20 -20 -20 -20 -20 -20 -20 -20 -20 -20 -20 -20 -20 -20 -20 -20 -20 -20 -20 -20 -20 -20 -2 10 -12 -20 -20 -20 -20 -20 -20 -20 -4 -2
-20 -20 -20 -20 -20 -20 -20 -20 -16 -20 -20 -20 -20 -20 -17 -20 -20 -20 -20 -20 -20 -20 -20 -20 -20 -20 -20 -20 -20 -20 -17 -13 10 17 14 -11 -0 -11 9 3 -15 -14 -20
-20 -20 -20 -20 -20 -20 -20 -20 -20 -20 -10 -20 -20 -20 -14 -20 -20 -20 -20 -20 -20 -20 -20 -20 -20 -20 -20 -20 -20 -9 -7 -13 -20 -4 19 26 10 -10 -1 14 23 -10 11
-20 -20 -20 -20 7 -7 -20 -9 -20 -20 -20 -20 -20 -20 -20 -20 -20 -20 -20 -20 -19 -20 -20 -20 -20 -20 -20 -20 15 6 6 -20 -18 -4 -20 14 26 36 18 12 20 35 32
-20 -20 -20 -20 -20 -20 -8 -19 -1 4 -16 11 12 -20 -20 -20 -12 -7 6 -4 -6 -8 -20 -20 -20 -20 -20 -17 -20 -15 6 10 -19 -3 19 24 16 25 26 30 35 33 30
-20 -20 -20 -20 -20 -20 -20 -20 -11 -7 -16 6 -4 1 -10 -20 -11 -20 -12 -20 -20 -16 -11 -20 -20 -20 -20 -20 -4 -19 -20 -12 11 -14 22 21 22 29 19 12 28 20 30
-20 -20 -20 -20 -20 -20 -20 -20 1 -2 -8 -20 -1 12 1 9 -3 5 -20 -20 -7 -8 -19 -20 -20 -20 -20 -10 -20 -20 -20 -20 -3 -2 7 24 27 21 24 18 8 28 30
-20 -20 -20 -20 -20 -20 -20 -20 -20 -10 7 -1 9 9 7 -8 16 9 -17 -20 -20 -8 -1 -20 -20 -20 -20 -20 -20 -20 -20 -20 -20 -19 -6 11 23 27 23 18 23 35 30
-20 -20 -20 -20 -20 -20 -20 -20 -20 -20 -19 -4 15 -16 -6 -20 -20 -18 -0 1 -20 -16 -6 -6 -20 -20 -20 -20 3 -20 -20 -20 -20 -19 -20 -20 -14 21 24 19 28 26 32
-20 -20 -20 -20 -20 -20 -20 -20 -20 -20 -20 -20 -5 -19 -15 -20 -20 -16 6 -12 7 -20 -20 -20 -19 -20 -20 -20 -3 -20 -15 -20 -9 1 -4 -20 14 11 9 25 23 31 34
-20 -20 -20 -20 -20 -20 -20 -20 -20 -20 -20 -20 -20 -20 -20 -20 -20 -20 -19 -20 -20 -20 -20 -20 -20 -20 -20 -20 -6 -13 -20 -20 -12 -17 18 15 21 17 21 5 15 19 19
-20 -20 -20 -20 -20 -20 -20 -20 -20 -20 -20 -20 -20 -20 -20 -20 -20 -20 -20 -20 -20 -20 -20 -20 -20 -20 -20 -20 -20 -20 -20 -20 -20 -17 9 16 18 12 13 12 -19 -18 -11
-20 -20 -20 -20 -20 -20 -20 -20 -20 -20 -20 -20 -20 -20 -20 -20 -20 -20 -20 -20 -20 -20 -20 -20 -20 -20 -20 -20 -17 -20 -20 -20 -20 -15 -20 -20 -20 -20 -20 -8 10 10 16
-20 -20 -20 -20 -20 -20 -20 -20 -20 -20 -20 -20 -20 -20 -20 -20 -20 -20 -20 -20 -20 -20 -20 -20 -20 -20 -18 -20 -16 -17 -20 -20 -20 -20 -0 -16 -14 -11 -13 -15 -5 -6 -12
-20 -20 -20 -20 -20 -20 -20 -20 -20 -20 -20 -20 -20 -20 -20 -8 -4 -5 -20 -20 -20 -20 -20 -20 -20 -20 -20 -20 -20 -20 -20 -20 -20 -20 -20 -20 -20 -20 -20 -20 -20 -20 -20
-20 -20 -20 -20 -20 -20 15 7 -20 -20 -20 -20 -20 -20 -20 -7 -5 11 10 6 -18 -20 -20 -20 -20 -20 -20 -20 -20 -20 -20 -20 -20 -20 -20 -20 -20 -20 -20 -20 -20 -20 -20
-17 -20 -20 -20 -20 -4 11 -3 -20 -20 -20 -20 -20 -20 -20 -20 -20 -20 -20 -20 -20 -20 -20 -20 -20 -20 -20 -20 -20 -20 -20 -20 -20 -20 -20 -20 -20 -20 -20 -20 -20 -20 -20
-20 -20 -20 -20 -20 -20 -11 -20 -20 -20 -20 -20 -20 -20 -20 -20 -20 -20 -20 -20 -20 -20 -20 -20 -20 -20 -20 -20 -20 -20 -20 -20 -20 -20 -20 -20 -20 -20 -20 -20 -20 -20 -20
-20 -20 -20 -20 -20 -20 -20 -20 -20 -20 -20 -20 -20 -20 -20 -20 -20 -20 -20 -20 -20 -20 -20 -20 -20 -20 -20 -20 -20 -20 -20 -20 -20 -20 -20 -20 -20 -20 -20 -20 -20 -20 -20
-20 -20 -20 -20 -20 -20 -20 -20 -20 -20 -20 -20 -20 -20 -20 -20 -20 -20 -20 -20 -20 -20 -20 -20 -20 -20 -20 -20 -20 -20 -20 -20 -20 -20 -20 -20 -20 -20 -20 -20 -20 -20 -20

GFSMA_prec_radar_060.txt.gz
Reflectivity
-20 -20 -20 -20 -20 -20 -20 -20 -20 -20 -20 -20 -20 -20 -20 -20 -20 -20 -20 -20 -20 -20 -10 4 -14 -20 -20 -20 -20 -20 -20 -20 -20 -20 -20 -20 -20 -20 -20 -20 -20 -20 -20
-20 -20 -20 -20 -20 -20 -20 -20 -20 -20 -20 -20 -20 -20 -20 -20 -20 -20 -20 -20 -20 -20 -20 -20 -1 5 -7 14 9 1 -20 -20 -20 -20 -20 -20 -20 -20 -20 -20 -20 -20 -20
-20 -20 -20 -20 -20 -20 -20 -20 -20 -20 -20 -20 -20 -20 -20 -20 -20 -20 -20 -20 -20 -20 -20 -20 -20 -2 1 -14 10 4 2 2 -6 -20 -10 -20 -20 -20 -20 -20 -20 -20 -20
-20 -20 -20 -20 -20 -20 -20 -20 -20 -20 -20 -20 -20 -20 -20 -20 -20 -20 -20 -20 -20 -20 -20 -20 -20 -20 -8 8 5 1 9 -16 -20 -20 -20 -20 -20 -20 -20 -20 -20 -20 -0
-20 -20 -20 -20 -20 -20 -20 -20 -20 -20 -20 -20 -20 -20 -20 -20 -20 -20 -20 -20 -20 -20 -20 -20 -20 -20 -20 -20 -11 14 10 10 -20 -20 -20 -20 -20 -20 -20 -20 -20 -20 -20
-20 -20 -20 -20 -20 -20 -20 -20 -20 -20 -20 -20 -20 -20 -20 -20 -20 -20 -20 -20 -20 -20 -20 -20 -20 -20 -20 -20 -20 -8 11 14 10 -20 -20 -20 -20 -20 -0 -20 -20 -20 -20
-20 -20 -20 -20 -20 -20 -20 -20 -20 -20 -20 -20 -20 -20 -20 -20 -20 -20 -20 -20 -20 -20 -20 -20 -20 -20 -20 -20 -20 -20 -20 -4 -5 11 -5 -20 -20 -20 -20 -20 -20 -14 -20
-20 -20 -20 -20 -20 -20 -20 -20 -20 -20 -20 -20 -9 -9 -16 -20 -20 -20 -20 -20 -20 -20 -20 -20 -20 -20 -20 -20 -20 -20 -20 -3 12 19 24 13 -7 -15 -20 -20 -9 15 -5
-20 -20 -8 -5 -6 -11 -20 -10 -5 -3 1 -7 -20 -9 -6 -17 -20 -20 -20 -20 -20 -20 -20 -20 -20 -20 -20 -20 -20 -20 4 -16 9 17 12 18 24 23 14 -8 -20 -20 -19
-20 -20 -20 -16 -7 -2 6 -1 -16 4 7 1 -6 -20 -1 6 -5 -2 -20 -20 -20 -20 -20 -20 -20 -20 -20 -20 -2 14 2 -19 9 1 20 20 27 30 17 23 3 0 -15
-20 -20 -20 -20 -20 -20 -20 -20 -20 -18 3 0 9 -20 -20 -18 -19 -20 -9 -20 -20 -20 -20 -20 -20 -20 -20 -20 -20 -20 -5 10 1 -14 -20 7 24 15 28 1 13 7 -18
-20 -20 -20 -20 -20 -20 -20 -20 -20 -20 -20 -14 9 8 -5 -4 -20 -20 -20 -20 -17 -13 -20 -20 -20 -20 -20 -20 -20 -20 -6 6 -20 -20 -20 -10 18 22 27 17 23 24 28
-20 -20 -20 -20 -20 -20 -20 -20 -19 -18 -8 3 -19 11 3 12 14 -4 -6 8 -13 -9 -20 -20 -20 -20 -20 -20 -20 -20 -17 -20 -20 -20 -20 4 11 18 20 27 23 27 23
-20 -20 -20 -20 -20 -20 -20 -20 -20 5 2 12 -2 7 2 -12 2 -16 -14 18 15 0 -20 -20 -20 -20 -20 -20 -20 -15 -20 -20 -20 -20 -20 -18 -20 -20 -6 29 25 25 2
-20 -20 -20 -20 -20 -20 -20 -20 -8 -0 -20 -20 -20 -2 14 3 14 -4 6 -20 -20 -9 -2 -20 -20 -20 -20 -20 -20 -20 -20 -20 -20 -19 -19 -20 -20 -20 -3 -20 19 13 7
-20 -20 -20 -20 -20 -20 -20 -20 -20 -20 -20 -20 -20 -13 -9 0 -0 3 -0 -17 -20 -20 -20 -20 -20 -20 -20 -20 -20 -20 -20 -20 -11 5 6 -9 -12 -4 -8 -20 1 15 12
-20 -20 -20 -20 -20 -20 -20 -20 -20 -20 -18 -20 -20 -20 -20 -20 -20 -20 -20 -20 -20 -20 -20 -20 -8 -20 -20 -20 -20 -20 -9 -20 -20 1 -8 12 4 5 18 -0 18 20 17
-20 -20 -20 -20 -20 -20 -20 -20 -20 -20 -20 -20 -20 -20 -20 -20 -20 -20 -20 -20 -20 -20 -20 -5 -20 -20 -20 -20 -20 -20 -20 -20 -20 -8 4 -0 3 -20 -17 -10 -20 -19 -20
-20 -20 -20 -20 -20 -20 -20 -20 -20 -20 -20 -20 -20 -20 -20 -20 -20 -20 -20 -20 -20 -20 -20 -20 -9 -20 -20 -20 -19 -20 -20 -20 -20 -20 -20 -20 -4 -12 0 -9 -9 -20 -20
-20 -20 -20 -20 -20 -20 -20 -20 -20 -20 -20 -20 -20 -20 -20 -20 -20 -20 -20 -20 -20 -20 -20 -20 -20 -20 -20 -20 -20 -20 -20 -20 -20 -20 -20 -20 -20 -20 -20 -20 -20 -18 -13
-20 -20 -20 -20 -20 -20 -20 -20 -20 -20 -20 -20 -20 -20 -20 -17 -15 -20 -20 -20 -20 -20 -20 -20 -20 -20 -20 -20 -20 -20 -20 -20 -20 -20 -20 -20 -20 -20 -20 -20 -20 -20 -20
-20 -20 -20 -20 -20 -20 11 5 -1 -17 -20 -20 -20 -20 -20 -6 -20 4 -20 -20 -20 -20 -20 -20 -20 -20 -20 -20 -20 -20 -20 -20 -20 -20 -20 -20 -20 -20 -20 -20 -20 -20 -20
-20 -20 -20 -12 -5 -2 9 -16 -20 -20 -20 -20 -20 -20 -20 -20 -20 -20 -20 -20 -20 -20 -20 -20 -20 -20 -20 -20 -20 -20 -20 -20 -20 -20 -20 -20 -20 -20 -20 -20 -20 -20 -20
-20 -20 -20 -16 -20 -14 -1 -20 -20 -20 -20 -20 -20 -20 -20 -20 -20 -20 -20 -20 -20 -20 -20 -20 -20 -20 -20 -20 -20 -20 -20 -20 -20 -20 -20 -20 -20 -20 -20 -20 -20 -20 -20
-20 -20 -20 -20 -20 -20 -20 -20 -20 -20 -20 -20 -20 -20 -20 -20 -20 -20 -20 -20 -20 -20 -20 -20 -20 -20 -20 -20 -20 -20 -20 -20 -20 -20 -20 -20 -20 -20 -20 -20 -20 -20 -20
-20 -16 -17 -20 -20 -20 -20 -20 -20 -20 -20 -20 -20 -20 -20 -20 -20 -20 -20 -20 -20 -20 -20 -20 -20 -20 -20 -20 -20 -20 -20 -20 -20 -20 -20 -20 -20 -20 -20 -20 -20 -20 -20

GFSMA_prec_radar_063.txt.gz
Reflectivity
-20 -20 -20 -20 -20 -20 -20 -20 -20 -20 -20 -20 -20 -20 -20 -20 -20 -20 -20 -20 -20 -20 -20 5 -10 -20 -20 -20 -20 -20 -20 -20 -20 -20 -20 -20 -20 -20 -20 -20 -20 -20 -20
-20 -20 -20 -20 -20 -20 -20 -20 -20 -20 -20 -20 -20 -20 -20 -20 -20 -20 -20 -20 -20 -20 -20 -20 -13 -4 -19 -5 -8 -5 -15 -8 -20 -20 -20 -20 -20 -20 -20 -20 -20 -20 -20
-20 -20 -20 -20 -20 -20 -20 -20 -20 -20 -20 -20 -20 -20 -20 -20 -20 -20 -20 -20 -20 -20 -20 -20 -20 -20 -13 -4 2 -20 -20 -19 -20 -20 -20 -20 -20 -20 -20 -20 -20 -20 -20
-20 -20 -20 -20 -20 -20 -20 -20 -20 -20 -20 -20 -20 -20 -20 -20 -20 -20 -20 -20 -20 -20 -20 -20 -20 -20 -20 -20 -0 2 4 -20 -20 -20 -20 -20 -20 -20 -20 -20 -20 -20 -20
-20 -20 -20 -20 -20 -20 -20 -20 -20 -20 -20 -20 -20 -20 -20 -20 -20 -20 -20 -20 -20 -20 -20 -20 -20 -20 -20 -20 -20 -7 10 12 -20 -20 -20 -20 -20 -20 -20 -20 -20 -20 -20
-20 -20 -20 -20 -20 -20 -20 -18 -20 -20 -20 -20 12 -9 -16 -20 -20 -20 -20 -20 -20 -20 -20 -20 -20 -20 -20 -20 -20 -20 -18 12 23 1 -20 -20 -20 -20 -20 -20 -20 -20 -20
-20 -20 -20 -20 -20 -17 -20 -9 -0 4 -20 -5 -6 -20 -20 -20 -20 -20 -20 -20 -20 -20 -20 -20 -20 -20 -20 -20 -20 -20 -20 -3 19 20 16 11 -17 -20 -20 -20 -20 -20 -20
-20 -20 -20 -20 -20 -8 -20 -20 -19 -20 -20 -3 -0 19 1 -20 -20 -20 -20 -20 -20 -20 -20 -20 -20 -20 -20 -20 -20 -20 -20 -10 18 23 23 26 19 7 3 -20 -20 -20 -20
-20 -20 -20 2 1 5 -1 -2 -1 9 6 -1 9 10 8 -16 -20 -20 -20 -20 -20 -20 -20 -20 -20 -20 -20 -20 -11 -20 -20 4 -15 1 14 23 25 27 24 11 -4 -19 -20
-20 -20 -20 -17 -20 -19 -16 -20 -20 2 13 6 -20 -19 5 2 8 1 -20 -20 -20 -20 -20 -20 -20 -20 -20 -20 -20 -5 -20 -20 -16 1 -20 1 22 21 27 6 16 11 -19
-20 -20 -20 -20 -20 -20 -20 -20 -20 -20 -20 -2 6 9 -19 -18 1 -12 10 -10 13 -20 -20 -20 -20 -20 -20 -20 -20 -20 -20 -20 -20 -20 2 -2 -20 0 24 28 27 27 -18
-20 -20 -20 -20 -20 -20 -20 -20 -20 -20 -20 -20 -15 -14 -1 -2 -20 -17 -0 -1 8 -20 -18 -2 -20 -20 -20 -20 -20 -20 -20 -20 -20 -7 -12 -20 3 21 6 23 27 27 20
-20 -20 -20 -20 -20 -20 -20 -20 -20 -20 -20 -0 7 -6 3 -1 -7 -20 -8 9 4 -20 -18 17 -18 -20 -20 -20 -20 -20 -20 -20 -20 -20 -20 -19 -13 -20 -20 -20 -18 2 33
-20 -20 -20 -20 -20 -20 -20 -20 -20 -20 -4 13 -13 14 11 8 11 12 -2 -20 -2 15 -0 -19 -20 -20 -20 -20 -20 -20 -20 -20 -20 -20 -20 -20 -20 -20 -20 -20 -20 -11 -3
-20 -20 -20 -20 -20 -20 -20 -20 -20 -15 1 -20 -20 -20 6 16 -17 -19 11 6 -4 -20 -16 -20 -20 -20 -20 -20 -20 -20 -20 -18 -3 9 5 -19 -20 -20 -18 -0 5 -19 -19
-20 -20 -20 -20 -20 -20 -20 -20 -20 -20 -20 -16 -20 1 8 -20 2 -20 -1 13 12 -2 -17 -20 -20 -20 -20 -20 -20 -20 -20 13 11 8 13 11 8 14 15 13 14 9 7
-20 -20 -20 -20 -20 -20 -20 -20 -20 -20 -20 -20 -13 2 -6 -20 -20 -20 -20 -20 -20 -20 -20 -20 -20 -20 -20 -20 -20 -20 -12 -16 -4 -4 0 3 9 14 16 16 17 -6 10
-20 -20 -20 -20 -20 -20 -20 -20 -20 -20 -20 -20 -20 -20 -20 -20 -20 -20 -20 -20 -20 -20 -20 -20 -20 -20 -20 -20 -20 -20 -20 -20 -20 -20 -20 -20 -16 -1 5 11 7 2 6
-20 -20 -20 -20 -20 -20 -20 -20 -20 -20 -20 -20 -20 -20 -20 -20 -20 -20 -20 -20 -20 -20 -20 -20 -20 -20 -20 -20 -20 -20 -20 -20 -20 -20 -20 -20 -7 -20 -14 5 2 11 6
-20 -20 -20 -20 -20 -20 -20 -20 -20 -20 -20 -20 -20 -20 -20 -20 -20 -20 -20 -20 -20 -20 -20 -20 -20 -20 -20 -20 -20 -20 -20 -20 -20 -20 -20 -20 -20 -20 -20 -20 -20 -20 -20
-20 -20 -20 -20 -20 -20 -20 -20 -20 -20 -20 -20 -20 -20 -20 -20 -20 -20 -20 -20 -20 -20 -2 -16 -14 -20 -20 -20 -20 -20 -20 -20 -20 -20 -20 -20 -20 -20 -20 -20 -20 -20 -20
-20 -20 -20 -20 -20 -20 -20 6 7 -20 -20 -20 -20 -20 -20 -20 -20 -20 -20 -20 -20 -20 -20 -20 8 -20 -20 -20 -20 -20 -20 -20 -20 -20 -20 -20 -20 -20 -20 -20 -20 -20 -20
-20 -20 -20 -20 -20 -20 10 8 9 -20 -20 -20 -20 -20 -20 -20 -20 -20 -20 -20 -20 -20 -20 -20 -20 -20 -20 -20 -20 -20 -20 -20 -20 -20 -20 -20 -20 -20 -20 -20 -20 -20 -20
-20 -20 -20 -20 -20 -18 12 -20 -20 -20 -20 -19 -20 -20 -20 -20 -20 -20 -20 -20 -20 -20 -20 -20 -20 -20 -20 -20 -20 -20 -20 -20 -20 -20 -20 -20 -20 -20 -20 -20 -20 -20 -20
-20 -20 -20 -20 -20 -20 -20 -20 -20 -20 -20 -20 -20 -20 -20 -20 -20 -20 -20 -20 -20 -20 -20 -20 -20 -20 -20 -20 -20 -20 -20 -20 -20 -20 -20 -20 -20 -20 -20 -20 -20 -20 -20
-20 -20 -20 -20 -20 -20 -20 -20 -20 -20 -20 -20 -20 -20 -20 -20 -20 -20 -20 -20 -20 -20 -20 -20 -20 -20 -20 -20 -20 -20 -20 -20 -20 -20 -20 -20 -20 -20 -20 -20 -20 -20 -20

GFSMA_prec_radar_066.txt.gz
Reflectivity
-20 -20 -20 -20 -20 -20 -20 -20 -20 -20 -20 -20 -20 -20 -20 -20 -20 -20 -20 -20 -20 -20 -20 -20 -2 -18 -20 -20 -20 -20 -20 -20 -20 -20 -20 -20 -20 -20 -20 -20 -20 -20 -20
-20 -20 -20 -20 -20 -20 -20 -20 -20 -20 -20 -20 -20 -20 -20 -20 -20 -20 -20 -20 -20 -20 -20 -20 -20 6 -4 -20 -20 -20 -20 -20 -20 -20 -20 -20 -20 -20 -20 -20 -20 -20 -20
-20 -20 -20 -20 -20 -20 -20 -20 -20 -20 -20 -20 -20 -20 -20 -20 -20 -20 -20 -20 -20 -20 -20 -20 -20 -20 -20 -4 -6 -20 -20 -20 -20 -20 -20 -20 -20 -20 -20 -20 -20 -20 -20
-20 -20 -20 -20 -20 -20 -20 -20 -20 -20 -20 -20 -20 -20 -20 -20 -20 -20 -20 -20 -20 -20 -20 -20 -20 -20 -20 -20 -20 7 4 -20 -20 -20 -20 -20 -20 -20 -20 -20 -20 -20 -20
-20 -20 -20 -20 -20 -20 -20 -20 -20 -20 -20 -20 -13 -1 -4 1 -10 -20 -20 -20 -19 -17 -13 -20 -20 -20 -20 -20 -20 -16 22 19 5 -16 -20 -20 -20 -20 -20 -20 -20 -20 -20
-20 -20 -20 -20 -20 -20 -6 3 -16 -6 13 2 8 -1 0 -20 -20 -20 -20 -20 -20 -20 -20 -20 -20 -20 -20 -20 -20 -20 -20 -6 22 27 12 3 -19 -20 -20 -20 -20 -20 -20
-20 -20 -20 -20 -20 -7 1 5 6 6 -16 5 9 -20 -20 -20 -20 -20 -20 -20 -20 -20 -20 -20 -20 -20 -20 -20 -20 -20 -20 -20 0 24 24 20 7 6 -18 -20 -20 -20 -20
-20 -20 -20 -20 -20 -4 2 -11 11 4 -0 3 16 1 -2 -19 -20 -20 -20 -20 -20 -20 -20 -20 -20 -20 -20 -20 -6 -19 -20 -20 -7 22 17 26 13 25 -17 -19 -14 -20 -20
-20 -20 -20 -20 -10 -20 12 11 -5 -1 11 -8 13 18 12 -12 -20 -20 -20 -20 -20 -20 -20 -20 -20 -20 -20 -20 4 12 10 -10 -7 7 -9 1 15 26 5 31 13 -1 -2
-20 -20 -20 -20 -20 -20 -20 -20 -19 -20 7 -8 -14 8 12 12 14 -6 -20 -20 -20 -20 -20 -20 -20 -20 -20 -20 -20 -20 -13 -20 -20 -20 -20 -20 -5 -18 17 -5 27 22 -19
-20 -20 -20 -20 -20 -20 -20 -20 -20 -20 -20 -20 -20 -20 -19 4 2 11 1 -20 -20 -20 -6 -20 -20 -20 -20 -20 -20 -20 -20 -20 -20 -20 -20 -20 -20 6 12 11 20 28 29
-20 -20 -20 -20 -20 -20 -20 -20 -20 -20 -20 -20 -20 -20 -20 4 -16 -1 3 -20 -20 -20 -20 -20 -20 -20 -0 -20 -20 -20 -20 -20 -20 -20 -20 -3 -3 -11 -13 -11 -16 3 8
-20 -20 -20 -20 -20 -20 -20 -20 -20 -20 -20 -20 -20 -16 -14 -17 -11 10 -1 5 12 -20 16 -19 -20 -17 -20 -20 -20 -20 -20 -20 -20 -20 -20 -20 -20 -20 -20 -20 -20 -20 -20
-20 -20 -20 -20 -20 -20 -20 -20 -20 -20 -20 -20 -18 -17 2 -15 -17 20 -18 8 -13 2 -19 12 1 -20 -20 -20 -20 -20 -20 -20 -17 -20 -20 -20 -20 -20 -20 -20 -20 -19 -20
-20 -20 -20 -20 -20 -20 -20 -20 -20 -20 -20 -20 -20 -20 -20 -20 -20 -16 12 -9 -18 9 11 -19 -19 -20 -20 -20 -20 -20 -20 12 12 13 -12 1 -3 -20 -17 -16 13 8 -20
-20 -20 -20 -20 -20 -20 -20 -20 -20 -20 -20 -20 -20 -19 -12 -20 8 -18 -12 -15 23 20 17 -18 -12 -18 -20 -20 -20 -20 -14 12 11 15 15 -2 9 13 14 14 16 13 9
-20 -20 -20 -20 -20 -20 -20 -20 -20 -20 -20 -20 -20 -5 -5 -9 -17 -19 -19 -20 -20 -20 -20 -20 -18 -20 -20 -20 -20 -20 -12 -18 -9 14 16 14 -4 1 2 8 2 12 6
-20 -20 -20 -20 -20 -20 -20 -20 -20 -20 -20 -20 -20 -20 -20 -20 -20 -20 -20 -20 -20 -20 -20 -20 -20 -20 -20 -20 -20 -20 -20 -20 -20 -20 -19 6 -20 -18 11 12 12 6 -11
-20 -20 -20 -20 -20 -20 -20 -20 -20 -20 -20 -20 -20 -20 -20 -20 -20 -20 -20 -20 -20 -20 -20 -20 -20 -20 -20 -20 -20 -20 -20 -20 -20 -20 -20 -20 -20 -20 -20 -19 12 7 -3
-20 -20 -20 -20 -20 -20 -20 -20 -20 -20 -20 -20 -20 -20 -20 -20 -20 -20 -20 -20 -20 -20 -20 -20 -20 -20 -20 -20 -20 -20 -20 -20 -20 -20 -20 -20 -20 -20 -20 -20 -20 -11 -12
-20 -20 -20 -20 -20 -20 -20 -20 -20 -20 -20 -20 -20 -20 -20 -20 -14 -20 -20 -20 -20 -20 -20 -20 -20 -20 -20 -20 -20 -20 -20 -20 -20 -20 -20 -20 -20 -20 -20 -20 -20 -20 -20
-20 -20 -20 -20 -20 -20 9 4 -8 -20 -20 -20 -20 -20 -20 -20 -20 -20 -20 -20 -20 -20 -20 -20 -20 -20 -20 -20 -20 -20 -20 -20 -20 -20 -20 -20 -20 -20 -20 -20 -20 -20 -20
-20 -20 -20 -20 -20 -20 8 6 7 -20 -20 -20 -20 -20 -20 -20 -20 -20 -20 -20 -20 -20 -20 -20 -20 -20 -20 -20 -20 -20 -20 -20 -20 -20 -20 -20 -20 -20 -20 -20 -20 -20 -20
-20 -20 -20 -11 -17 -18 11 9 6 -20 -20 -20 -20 -17 -15 -20 -20 -20 -20 -20 -20 -20 -20 -20 -20 -20 -20 -20 -20 -20 -20 -20 -20 -20 -20 -20 -20 -20 -20 -20 -20 -20 -20
-20 -20 -20 -20 -20 -20 0 -20 -20 -20 -20 -20 -20 -20 -20 -20 -20 -20 -20 -20 -20 -20 -20 -20 -20 -20 -20 -20 -20 -20 -20 -20 -20 -20 -20 -20 -20 -20 -20 -20 -20 -20 -20
-20 -20 -18 0 11 -20 -20 -20 -20 -20 -20 -20 -20 -20 -20 -20 -20 -20 -20 -20 -20 -20 -20 -20 -20 -20 -20 -20 -20 -20 -20 -20 -20 -20 -20 -20 -20 -20 -20 -20 -20 -20 -20

GFSMA_prec_radar_069.txt.gz
Reflectivity
-20 -20 -20 -20 -20 -20 -20 -20 -20 -20 -20 -20 -20 -20 -20 -20 -20 -20 -20 -20 -20 -20 -20 -20 -19 -12 -20 -20 -20 -20 -20 -20 -20 -20 -20 -20 -20 -20 -20 -20 -20 -20 -20
-20 -20 -20 -20 -20 -20 -20 -20 -20 -20 -20 -20 -20 -20 -20 -20 -20 -20 -20 -20 -20 -20 -20 -20 -20 -13 14 -6 -20 -20 -20 -20 -20 -20 -20 -20 -20 -20 -20 -20 -20 -20 -20
-20 -20 -20 -20 -20 -20 -20 -20 -20 -20 -20 -20 -20 -20 -20 -20 -20 -20 -20 -20 -20 -20 -20 -20 -20 -20 -20 -20 4 20 -20 -20 -20 -20 -20 -20 -20 -20 -20 -20 -20 -20 -20
-20 -20 -20 -20 -20 -20 -20 -20 -20 -20 -20 -20 -20 -20 -20 -19 -20 -19 -5 -20 -20 -20 -20 5 0 -20 -20 1 -20 -4 18 28 -2 -20 -20 -20 -20 -20 -20 -20 -20 -20 -20
-20 -20 -20 -20 -20 -20 -20 -20 -20 -20 -19 -19 -9 -16 -17 3 10 -7 -20 -20 -20 -20 -20 -1 4 -20 -20 -20 -20 -20 2 25 -10 2 10 -20 -20 -20 -20 -20 -20 -20 -20
-20 -20 -20 -20 -20 -20 -19 3 -15 -9 -7 9 3 1 -20 -20 -20 -20 -20 -20 -20 -20 -20 -20 -20 -20 -20 -20 -20 -20 -20 -20 19 16 24 9 10 -19 -20 -20 -20 -20 -20
-20 -20 -20 -20 -20 -9 -18 -7 3 17 -20 -20 -20 -20 -20 -20 -20 -20 -20 -20 -20 7 -20 -20 -20 -20 -20 -20 -20 -20 -20 -20 -20 -9 22 25 21 -14 -2 -20 -20 -20 -20
-20 -20 -20 -20 -20 -20 1 -15 -13 6 5 -16 9 8 -20 -20 -20 -20 -20 -20 -20 -10 -20 -20 -20 -20 -20 -20 -11 -4 11 -17 -20 -20 7 -15 30 26 25 -10 -20 4 -20
-20 -20 -20 -20 -12 -19 -11 -19 4 11 10 -16 -9 8 -5 -17 -20 -20 -20 -20 -10 -4 -9 -20 -20 -20 -20 -20 4 -4 -20 -20 -20 -20 -20 -20 -20 1 5 27 27 33 1
-7 -20 -20 -20 -20 -18 -20 -20 -20 -20 -20 -20 -20 -20 -8 -3 13 -4 -20 -20 -20 -20 -20 -20 -20 -20 -20 -20 -20 -20 -20 -20 -20 -20 -20 -20 -20 -20 -1 3 -11 14 26
-20 -17 -20 -20 -20 -20 -20 -20 -20 -20 -20 -20 -20 -20 -20 -20 -20 -3 -20 -20 -20 -20 -20 -20 -20 -20 -20 -20 -20 3 -5 -20 -20 -20 -20 -20 11 12 3 -18 -11 -5 34
-15 -11 -20 -20 -20 -20 -20 -20 -20 -20 -20 -20 -20 -20 -20 -20 -20 -20 -3 -15 -20 -20 -20 -6 -20 -20 -20 -20 6 -20 -20 -20 -20 -20 -20 -20 -11 -20 -1 2 -13 -12 -10
-20 -20 -20 -20 -20 -20 -20 -20 -20 -20 -20 -20 -20 -20 -20 -18 -20 -20 -7 -14 13 -8 -20 -20 -7 -0 -20 4 -20 -20 -20 -20 -20 -20 -20 -20 -20 -20 -20 -20 -20 -20 -20
-20 10 3 -17 -20 -20 -20 -20 -20 -20 -20 -20 -20 -20 -20 -5 8 4 15 9 -20 -20 -20 -2 10 -20 -10 -19 -20 -20 -20 -20 -19 4 5 6 -20 -20 -20 -20 -20 -20 -20
-12 -15 9 -0 -20 -17 -20 -20 -20 -20 -20 -20 -20 -20 -20 -20 -20 -20 -9 7 -5 3 -20 -20 -19 7 -16 -20 11 -19 -20 -20 10 12 14 10 11 12 15 15 13 12 9
-12 -20 -20 -20 -15 -18 -20 -20 -20 -20 -20 -20 -20 -20 -20 -20 -20 -20 -20 -20 -20 -9 -11 -3 9 2 -20 -20 11 -14 -20 -20 -20 10 12 14 -3 6 12 12 12 11 15
-20 -20 -17 -17 -20 -20 -20 -20 -20 -20 -20 -20 -20 -20 -20 -20 -20 -20 -13 -10 15 -17 -4 -11 -11 -12 -20 -18 -19 -19 -14 -20 -17 11 7 13 5 3 -2 6 12 4 10
-20 -20 -9 -20 -20 -20 -20 -20 -20 -20 -20 -20 -20 -20 -20 -20 -20 -20 -20 -20 -20 -20 -20 -20 -20 -20 -20 -20 -20 -20 -20 -20 -20 -20 -19 10 -0 2 -20 5 11 -6 8
-20 -20 -20 -20 -20 -20 -20 -20 -20 -20 -20 -20 -20 -20 -20 -20 -20 -20 -20 -20 -20 -20 -20 -20 -20 -20 -20 -17 -20 -20 -20 -20 -20 -20 -20 -20 -20 -20 -17 -20 -17 -4 -2
-20 -20 -20 -20 -20 -20 -20 -20 -20 -20 -20 -20 -20 -20 -20 -20 -20 -20 -20 -20 -20 -20 -20 -20 -20 -20 -20 -20 -20 -20 -20 -20 -20 -20 -20 -20 -20 -20 -20 -20 -20 -20 -20
-20 -20 -20 -20 -20 -20 -20 -20 -20 -20 -20 -20 -20 -20 -20 -20 -20 -17 -20 -20 -20 -20 -20 -20 -20 -20 -20 -20 -20 -20 -20 -20 -20 -20 -20 -20 -20 -20 -20 -20 -20 -20 -20
-20 -20 -20 -20 -20 -20 6 5 4 -20 -20 -20 -20 -20 -20 5 -6 -3 -7 -20 -20 -20 -20 -20 -20 -20 -20 -20 -20 -20 -20 -20 -20 -20 -20 -20 -20 -20 -20 -20 -20 -20 -20
-20 -20 -20 -20 -20 -20 12 12 11 -20 -20 -20 -20 -20 -20 -20 -20 -20 -20 -20 -20 -20 -20 -20 -20 -20 -20 -20 -20 -20 -20 -20 -20 -20 -20 -20 -20 -20 -20 -20 -20 -20 -20
-20 -20 -20 -20 -20 -18 9 9 12 5 4 -14 -20 -20 -20 -20 -20 -14 -20 -20 -20 -20 -20 -20 -20 -20 -20 -20 -20 -20 -20 -20 -20 -20 -20 -20 -20 -20 -20 -20 -20 -20 -20
-20 -20 -20 -20 -20 -19 10 5 6 -20 -20 -20 -20 -20 -20 -20 -13 -10 -20 -20 -20 -20 -20 -20 -20 -20 -20 -20 -20 -20 -20 -20 -20 -20 -20 -20 -20 -20 -20 -20 -20 -20 -20
-20 -20 -20 -20 4 -16 3 -20 -20 -20 -20 -20 -20 -20 -20 -20 -2 -20 -20 -20 -20 -20 -20 -20 -20 -20 -20 -20 -20 -20 -20 -20 -20 -20 -20 -20 -20 -20 -20 -20 -20 -20 -20

GFSMA_prec_radar_072.txt.gz
Reflectivity
-20 -20 -20 -20 -20 -20 -20 -20 -20 -20 -20 -20 -20 -20 -20 -20 -20 -20 -20 -20 -20 -20 -20 -20 -20 -12 -17 -20 -20 -20 -20 -20 -20 -20 -20 -20 -20 -20 -20 -20 -20 -20 -20
-20 -20 -20 -20 -20 -20 -20 -20 -20 -20 -20 -20 -20 -20 -20 -20 -20 -20 -20 -20 -20 -20 -20 -20 -20 -20 -8 -15 -15 -20 -20 -20 -20 -20 -20 -20 -20 -20 -20 -20 -20 -20 -20
-20 -20 -20 -20 -20 -20 -20 -20 -20 -20 -20 -20 -20 -20 -20 -20 -20 -20 -20 -20 -20 -20 -20 -20 -17 1 -11 -1 -20 23 12 5 -20 -20 -20 -20 -20 -20 -20 -20 -20 -20 -20
-20 -20 -20 -20 -20 -20 -20 -20 -20 -20 -20 -20 -20 -20 -20 -20 -20 -20 -9 -4 3 -20 -9 15 7 14 -20 -20 -20 -20 14 19 9 13 5 -20 -20 -20 -20 -20 -20 -20 -20
-20 -20 -20 -20 -20 -20 -20 -20 -20 -20 -20 -18 -20 -20 -20 7 -20 -6 -15 -14 -19 -16 -20 -20 10 13 -4 -20 -20 -20 -20 22 23 26 7 12 -2 -19 -20 -20 -20 -20 -20
-20 -20 -20 -20 -20 -20 -20 -20 -20 -7 -15 -6 2 -11 -20 -20 -20 -20 -20 -20 -20 -20 -20 -20 -20 -20 -20 -20 -20 -20 -20 13 11 4 11 29 6 11 -5 -20 -20 -20 -20
-20 -20 -20 -20 -20 -20 -20 -20 -15 -3 -12 6 -13 -20 -20 -20 -20 -20 -20 -20 -20 -20 -20 -20 -20 -20 -20 -20 -20 -20 -20 -20 -20 -20 1 28 29 20 4 9 -20 -20 -20
-14 -20 -20 -20 -20 -20 -20 -0 -3 1 -1 -20 -12 -3 -20 -20 -20 -20 -20 -20 -20 -20 -20 -20 3 4 -20 -20 -20 -20 -20 -20 -20 -20 -20 -20 -20 22 26 28 1 -12 -3
3 -16 -2 -20 -20 -6 -9 -9 -12 4 5 -16 -18 -5 -7 -20 -20 -20 -20 -20 -20 -20 -20 -20 -15 -20 -20 -20 -20 -20 -20 -20 -20 -20 -20 -20 -20 -20 -20 22 30 25 17
-8 -20 -20 -20 9 -20 -19 -19 -20 -20 -20 -20 -20 -20 -20 -20 10 -15 -20 -7 -20 -20 -20 -20 -18 -20 -20 -20 -20 -20 -20 -20 -20 -20 -20 -19 10 12 10 2 -8 -9 21
30 36 30 -13 -19 -20 -20 -20 -20 -20 -20 -20 -20 -20 -20 -20 -20 -20 -19 -20 -20 -20 -20 -20 -20 -9 -20 -20 -20 -20 -20 -20 -20 -20 -20 -20 0 -20 -16 11 6 -5 -8
27 22 28 30 8 -13 -20 -20 -20 -20 -20 -20 -20 -20 -20 -20 -20 -20 -20 -20 -20 -20 -20 -20 -18 -18 -16 -20 10 -18 7 -20 -20 -20 -20 -20 -20 -20 -20 -19 -4 0 -0
8 23 14 21 15 -10 -20 -20 -19 -20 -20 -20 -20 -20 -20 -20 -20 -20 -15 -18 -20 -20 -20 -20 -20 -20 -20 -20 -11 -14 0 -20 -20 -20 -20 -19 -13 -20 -20 -20 -20 -20 -15
16 15 16 5 -16 -20 -19 -20 -20 -20 -20 -20 -20 -20 -20 -20 -20 -20 -8 6 7 4 -11 -16 -20 -20 -20 12 3 5 -20 -20 -20 -20 -20 3 8 -3 -20 -20 -15 -3 -2
-8 -15 -7 23 -10 -20 -20 -20 -20 -20 -20 -20 -20 -20 -20 -20 -20 -20 -20 4 -20 4 9 -4 13 -20 -3 -15 16 -4 -20 -17 -20 -18 8 10 -20 0 18 16 12 15 11
10 16 20 -7 -20 -20 -20 -20 -20 -20 -20 -20 -20 -20 -20 -20 -20 -20 -20 -20 -19 16 13 -18 -20 -20 -14 15 -2 -2 -16 -2 -7 10 11 11 -4 2 7 14 13 6 -4
-20 -20 -20 -20 -20 -20 -20 -20 -20 -20 -20 -20 -20 -20 -20 -20 -20 -20 -20 -20 -20 -20 -20 -4 -7 16 20 14 -8 -17 -4 -20 -12 4 12 14 6 6 13 13 12 11 -12
-20 -16 -20 -20 -20 -20 -20 -20 -20 -20 -20 -20 -20 -20 -20 -20 -20 -20 -20 -20 -20 -20 15 -3 16 -13 -20 -20 -20 -20 -20 -20 -20 -20 -2 6 11 14 -3 10 15 14 -2
-20 -20 -20 -20 -20 -20 -20 -20 -20 -20 -20 -20 -20 -20 -20 -20 -20 -20 -20 -20 -20 -20 -20 -20 -20 -20 -20 -4 -20 -20 -20 -20 -20 -20 -20 -20 -20 -14 -2 9 -18 3 10
-20 -20 -20 -20 -20 -20 -20 -20 -20 -20 -20 -20 -20 -20 -20 -20 -20 -20 -20 -20 -20 -20 -20 -20 -20 -20 -20 -20 -20 -20 -20 -20 -20 -20 -20 -20 -20 -20 -20 -20 -20 -20 -20
-20 -20 -20 -20 -20 -20 -20 -20 -20 -20 -20 -20 -20 -20 -20 -19 -20 1 -20 -20 -19 -20 -20 -20 -20 -20 -20 -20 -20 -20 -20 -20 -20 -20 -20 -20 -20 -20 -20 -20 -20 -20 -20
-20 -20 -20 -20 -20 -20 -20 -4 4 -20 -20 -20 -20 -20 -15 6 4 -19 -20 9 5 -20 -20 -20 -20 -20 -20 -20 -20 -20 -20 -20 -20 -20 -20 -20 -20 -20 -20 -20 -20 -20 -20
-20 -20 -20 -20 -20 -20 -19 -2 7 -20 -20 -20 -6 1 3 -20 -20 -20 -20 -20 -20 -20 -20 -20 -20 -20 -20 -20 -20 -20 -20 -20 -20 -20 -20 -20 -20 -20 -20 -20 -20 -20 -20
-20 -20 -20 -20 -20 -20 -11 8 9 -20 -20 -20 0 9 -20 -20 -20 -20 -20 -20 -19 -20 -20 -20 -20 -20 -20 -20 -20 -20 -20 -20 -20 -20 -20 -20 -20 -20 -20 -20 -20 -20 -20
-20 -20 -20 -20 -20 -20 -20 1 -6 -20 -20 -5 3 -20 -20 -20 -20 -20 -20 -20 -16 11 16 -2 -20 -20 -20 -20 -20 -20 -20 -20 -20 -20 -20 -20 -20 -20 -20 -20 -20 -20 -20
-20 -20 -20 -20 -20 -20 -10 0 -12 -20 -20 -20 -20 -20 -20 -20 -20 -20 -20 -10 5 -7 -18 -20 -20 -20 -20 -20 -20 -20 -20 -20 -20 -20 -20 -20 -20 -20 -20 -20 -20 -20 -20

GFSMA_prec_radar_075.txt.gz
Reflectivity
-20 -20 -20 -20 -20 -20 -20 -20 -20 -20 -20 -20 -20 -20 -20 -20 -20 -20 -20 -20 -20 -20 -20 -20 -20 -18 -16 -20 -20 -20 -20 -20 -20 -20 -20 -20 -20 -20 -20 -20 -20 -20 -20
-20 -20 -20 -20 -20 -20 -20 -20 -20 -20 -20 -20 -20 -20 -20 -20 -20 -20 -20 -20 -20 -20 -20 -20 -20 -15 15 -20 -15 12 -7 -20 -20 -20 -20 -20 -20 -20 -20 -20 -20 -20 -20
-20 -20 -20 -20 -20 -20 -20 -20 -20 -20 -20 -20 -20 -20 -20 -20 -20 -20 -20 -20 -20 8 -20 9 -18 14 14 -17 15 -19 -12 -20 -7 -3 -20 -20 -20 -20 -20 -20 -20 -20 -20
-20 -20 -20 -20 -20 -20 -20 -20 -20 -20 -20 -20 -20 -20 -20 -20 -20 -20 -20 -20 -11 5 16 17 14 6 -9 -20 -14 6 11 6 5 1 12 9 7 -20 -20 -20 -20 -20 -20
-20 -20 -20 -20 -20 -20 -20 -20 -20 -20 -20 -20 -20 -20 -20 -20 -20 -20 -20 -20 -20 -20 -20 -12 -20 -16 12 -19 -20 -20 -20 13 14 -5 26 12 8 6 -17 -20 -20 -20 -20
-20 -20 -20 -20 -20 -20 -20 -20 -20 -20 -20 -20 -20 -19 -20 -20 -20 -20 -20 -20 -20 -20 -20 -20 -18 -20 -20 -20 -20 -20 -20 16 14 -6 -20 -12 27 3 11 4 -19 -20 -20
-20 -20 -20 -20 -20 -20 -20 -20 -20 -18 -4 -11 3 -20 -20 -20 -20 -20 -20 -20 -20 -20 -20 -20 -20 -20 16 2 -20 -20 -20 -20 -20 -20 -20 -20 -20 24 32 9 9 -20 -20
-3 -20 -20 -20 -20 -20 -20 -8 -5 -11 -14 6 -4 -18 -20 -20 -20 -20 -20 -20 -20 -20 -20 -20 -20 -20 -5 -9 1 -20 -20 -20 -20 -20 -20 -20 -20 -20 -20 31 28 17 5
-19 -20 -20 -20 -20 -20 -16 -7 -13 -3 -20 -20 -20 -17 -14 -20 -4 -1 -19 -20 -20 -20 -20 -20 -20 -20 -20 -20 -20 -20 -20 -20 -20 -20 -20 -20 -13 -20 -20 -20 9 28 33
29 -20 12 20 4 10 17 18 1 -6 -16 -20 -20 -20 -20 -15 9 -20 -18 -20 -20 -20 -20 -20 -20 -20 -20 -20 -20 -20 -20 -20 -20 -20 -20 -18 8 10 9 10 11 -13 10
30 28 31 31 29 26 26 26 30 -20 -20 -17 -20 -20 -20 -20 -20 1 -20 -20 -20 -20 -20 -20 -20 -20 -20 -17 -20 -20 -20 -20 -20 -6 -20 12 16 4 -20 -4 -20 0 -4
31 32 35 34 28 31 26 25 23 10 -19 -20 -20 -20 -20 -20 -20 -20 -20 -20 -20 -20 -20 -20 -20 -20 -20 -9 -20 7 18 -15 -20 -20 -20 3 7 -20 -20 -19 -14 -20 -20
17 32 30 26 20 10 20 -6 -3 -20 -20 -20 -20 -20 -20 -20 -20 -20 -20 -20 -20 -20 -20 -20 -20 -20 -20 -20 -5 -15 10 -1 -19 -20 -20 -13 5 1 -4 -20 -20 -20 -11
10 17 24 -3 6 15 12 -0 -20 -20 -20 -20 -20 -20 -20 -20 -20 -20 -9 3 -0 -20 -20 -20 -20 -0 -13 -20 -20 2 -9 14 -20 -20 -20 1 -1 6 11 -20 -12 10 -17
-20 13 -14 -15 -8 -18 -17 -20 -20 -20 -20 -20 -20 -20 -20 -20 -20 -20 -20 -3 11 12 7 -20 -19 -12 -20 9 -17 3 -3 24 -20 -20 -20 6 1 -20 7 10 16 16 18
-12 8 1 2 1 16 -12 -11 -20 -20 -20 -20 -20 -20 -20 -20 -20 -20 -20 -18 -13 6 5 -20 -2 -1 -13 -20 2 -3 5 -20 -20 -20 -20 -2 -10 3 1 -7 -1 13 14
-20 -20 -20 -16 -20 -20 -20 -20 -20 -20 -20 -20 -20 -20 -20 -20 -20 -20 -20 -20 -20 -8 9 -11 -17 3 -12 10 6 -0 9 -20 -20 -19 -5 -12 5 -20 -15 -16 -0 13 14
-19 -20 -20 -20 -20 -20 -20 -20 -20 -20 -20 -20 -20 -20 -20 -20 -20 -20 -20 -20 -20 -20 -6 9 -0 17 9 -2 8 -19 -20 -20 -20 2 9 8 -8 -11 -20 -20 9 13 2
-20 -20 -20 -20 -20 -20 -20 -20 -20 -20 -20 -20 -20 -20 -20 -20 -20 -20 -20 -20 -20 -20 -20 -16 -20 12 3 10 -16 -20 -13 -20 -20 -20 -20 -20 -20 -8 -2 -20 -20 -11 9
-20 -20 -20 -20 -20 -20 -20 -20 -20 -20 -20 -20 -20 -20 -20 -20 -20 -20 -20 -20 -8 3 1 7 3 -11 5 -4 -20 -20 -20 -20 -20 -20 -20 -20 -20 -20 -20 -20 -20 -20 -20
-20 -20 -20 -20 -20 -20 -20 -20 -20 -20 -20 -20 -20 -20 -20 -3 13 5 -16 -20 -20 -13 7 9 -7 -4 -20 -20 -20 -20 -20 -20 -20 -20 -20 -20 -20 -20 -20 -20 -20 -20 -20
-20 -20 -20 -20 -20 -20 -20 -20 -20 -20 -20 -20 -20 -20 8 9 9 11 12 11 5 -20 -5 14 13 -4 -20 -20 -20 -20 -20 -20 -20 -20 -20 -20 -20 -20 -20 -20 -20 -20 -20
-20 -20 -20 -20 -20 -20 -20 -20 -20 -20 -18 1 11 -9 -20 9 5 -20 -20 -20 -5 -2 -17 -15 -20 -20 -20 -20 -20 -20 -20 -20 -20 -20 -20 -20 -20 -20 -20 -20 -20 -20 -20
-20 -20 -20 -20 -20 -20 -20 -12 -18 -20 -19 18 7 -12 7 -4 -20 -20 -20 -20 -20 -20 -20 -20 -17 -4 -20 -20 -20 -20 -20 -20 -20 -20 -20 -20 -20 -20 -20 -20 -20 -20 -20
-20 -20 -20 -20 -20 -20 -20 -20 -20 -20 -20 -20 -20 -2 5 -20 -20 -20 -20 -20 -20 -20 -20 -20 -20 -13 -8 -18 -20 -20 -20 -20 -20 -20 -20 -20 -20 -20 -20 -20 -20 -20 -20
-20 -20 -20 -20 -20 -20 -20 -5 -13 -20 -20 -20 -9 8 -8 -20 -20 -20 -20 -19 3 -5 -6 -4 8 2 0 -12 -20 -20 -20 -20 -20 -20 -20 -20 -20 -20 -20 -20 -20 -20 -20

GFSMA_prec_radar_078.txt.gz
Reflectivity
-20 -20 -20 -20 -20 -20 -20 -20 -20 -20 -20 -20 -20 -20 -20 -20 -20 -20 -20 -20 -20 -20 -20 -20 -20 13 -20 -20 -20 -20 -20 -20 -20 -20 -20 -20 -20 -20 -20 -20 -20 -20 -20
-20 -20 -20 -20 -20 -20 -20 -20 -20 -20 -20 -20 -20 -20 -20 -20 -20 -20 -20 -20 -20 -20 -20 6 10 -20 17 -20 -20 -5 -18 -9 -14 -18 -20 -20 -20 -20 -20 -20 -20 -20 -20
-20 -20 -20 -20 -20 -20 -20 -20 -20 -20 -20 -20 -20 -20 -20 -20 -20 -20 -20 -20 -20 16 14 10 13 16 6 -20 7 -0 9 -17 9 -8 -17 -4 -19 -20 -20 -20 -20 -20 -20
-20 -20 -20 -20 -20 -20 -20 -20 -20 -20 -20 -20 -20 -20 -20 -20 -20 -20 -20 -20 -20 -20 -20 -0 17 17 14 -19 -14 -4 -20 14 -20 -20 -7 -19 1 2 -20 -20 -20 -20 -20
-20 -20 -20 -20 -20 -20 -20 -20 -20 -20 -20 -20 -20 -20 -20 -20 -20 -20 -20 -20 -20 -20 -20 -20 -9 -20 -5 -7 -20 -20 -20 15 -20 -20 3 -18 20 3 0 -20 -20 -20 -20
-20 -20 -20 -20 -20 -20 -20 -20 -20 -20 -20 -20 -20 -7 -20 -20 -20 -20 -20 -20 -20 -20 -20 -20 -20 -20 -10 -20 -20 -20 -20 -20 -20 -20 -20 -20 -20 2 8 4 -6 -16 -20
-20 -20 -20 -20 -20 -20 -20 -20 -20 -20 -20 -20 -20 -20 -20 -20 -20 -20 -20 -20 -20 -20 -20 -20 -20 -20 -20 -20 15 -4 -20 -20 -20 -20 -20 -20 -20 -3 10 24 18 -20 -20
11 28 0 -20 -20 -20 -20 -20 -20 -17 -11 1 3 -20 -20 -20 -20 -20 -20 -20 -20 -20 -20 -20 -20 -20 -20 -20 -15 0 -20 -20 -20 -20 -20 -20 -18 -20 -20 -20 2 28 20
-20 -18 -18 32 27 27 -9 12 26 2 -2 -20 -20 -13 -20 -20 -20 -20 -20 -20 -20 -20 -20 -20 -20 -20 -20 -20 -20 -16 -18 -20 -20 -20 -20 -20 -1 0 -4 -20 -17 -12 9
24 31 31 31 29 -2 2 29 27 19 -20 -20 -20 -20 -20 -16 1 -20 -20 -20 -20 -20 -20 -20 -20 -20 -20 -20 -16 12 -18 -20 -20 -20 -20 -18 -20 -13 -19 3 6 15 10
25 31 33 33 33 31 32 27 7 5 -11 -16 -20 -18 -20 -20 -20 -20 -20 -20 -20 -20 -20 -20 -20 -20 -20 -20 -20 -20 -18 -4 -19 -6 -20 -20 -15 14 -16 -20 -20 -20 -20
10 18 28 34 41 38 30 27 16 27 27 27 19 -20 -20 -20 -20 -20 -20 -20 -20 -20 -20 -20 -20 -20 -20 -20 -20 -7 16 12 -18 -0 -20 -20 -6 0 7 -20 -20 -20 3
-17 10 27 27 29 32 28 19 3 5 16 1 -13 -20 -20 -20 -20 -20 -20 -20 -20 -20 -20 -20 -20 -20 -20 -20 -6 10 -1 -20 17 -4 -20 -20 -12 -10 11 -16 -20 -20 11
32 8 29 15 -17 -8 -3 17 9 2 -20 -17 -20 -20 -20 -20 -20 -20 -20 -20 -20 -8 -20 -20 -20 -20 -20 -20 12 12 -14 2 0 -20 -19 -20 -20 -8 6 9 -2 11 -20
19 26 16 -0 -20 -6 -1 -20 -15 -20 -20 -20 -20 -20 -20 -20 -20 -20 -20 -3 -18 -17 -20 -20 -20 -20 -20 3 -20 -20 13 16 17 9 -17 -20 -20 -16 0 15 14 13 13
12 -20 -20 -20 -15 -15 -19 -20 -20 -20 -20 -20 -20 -20 -20 -20 -20 -20 -20 -20 -19 5 13 -20 -20 -20 -20 -16 -3 -8 -19 -5 -6 13 -20 -20 -20 4 13 7 12 13 11
19 2 -8 -20 -15 -20 -18 -17 -20 -20 -20 -20 -20 -20 -20 -20 -20 -20 -20 -20 -20 -18 9 -20 -20 1 -15 -20 2 -11 10 3 -1 8 -19 -14 -17 10 10 -7 9 10 13
-14 -13 -20 -20 -15 -20 -20 -20 -20 -20 -20 -20 -20 -20 -20 -20 -20 -20 -20 -20 -20 -20 -20 -2 -1 13 15 -5 4 14 -19 7 -15 -10 1 5 -20 12 13 -10 11 10 0
-20 -20 -20 -20 -20 -20 -20 -20 -20 -20 -20 -20 -20 -20 -20 -20 -20 -20 -20 -20 -20 -20 -5 -20 -20 -20 -7 1 6 6 -20 -20 -20 -20 -20 -20 -17 -2 -4 -20 -20 -8 9
-20 -20 -20 -20 -20 -20 -20 -20 -20 -20 -20 -20 -20 -20 -20 -20 -20 -10 -10 -7 -19 -10 -5 -3 8 9 -17 1 3 -20 -15 -20 -20 -20 -20 -20 -20 -20 -20 -20 -20 -20 -20
-20 -20 -20 -20 -20 -20 -20 -20 -20 -20 -20 -20 -20 -20 -20 5 14 -0 -16 -14 9 2 5 2 13 10 -8 -13 3 -1 -20 -20 -20 -20 -20 -20 -20 -15 -20 -20 -20 -20 -20
-20 -20 -20 -20 -20 -20 -20 -20 -20 -20 -20 -20 -20 -20 -20 6 9 11 11 12 9 -8 -2 -20 3 10 -13 7 10 1 -20 -20 -20 -20 -20 -20 -20 -20 -20 -20 -20 -20 -20
-20 -20 -20 -20 -20 -20 -20 -20 -20 -20 -20 -20 -20 -2 -12 -6 3 -20 9 -16 -3 5 6 -16 7 -4 -18 -20 -20 -11 -19 -20 -20 -20 -20 -20 -20 -20 -20 -20 -20 -20 -20
-20 -20 -20 -20 -20 -20 -20 -20 -7 -20 -20 -20 -12 4 2 14 2 -13 -20 -20 -20 -20 -20 -19 -20 -20 -20 -20 -6 -8 -20 -20 -20 -20 -20 -20 -20 -20 -20 -20 -20 -20 -20
-20 -20 -20 -20 -20 -20 -20 -20 -19 -20 -20 -20 -20 -20 -20 -1 17 -20 -20 -20 -20 -20 -20 -20 -20 -20 -20 -20 -2 5 -19 -20 -18 -20 -20 -20 -20 -20 -20 -20 -20 -20 -20
-20 -20 -20 -20 -20 -20 -20 -2 -11 -20 -20 -20 -20 -20 12 -0 -1 -20 -20 -20 -20 -20 -20 2 9 -12 -19 -3 -12 -20 -20 -4 1 -20 -20 -20 -20 -20 -20 -20 -20 -20 -20

GFSMA_prec_radar_081.txt.gz
Reflectivity
-20 -20 -20 -20 -20 -20 -20 -20 -20 -20 -20 -20 -20 -20 -20 -20 -20 -20 -20 -20 -20 -20 -20 -20 -17 -12 -2 -20 -20 -20 -20 -20 -20 -20 -20 -20 -20 -20 -20 -20 -20 -20 -20
-20 -20 -20 -20 -20 -20 -20 -20 -20 -20 -20 -20 -20 -20 -20 -20 -20 -20 -20 -20 -20 -20 -20 -20 -1 -5 -6 18 -13 -20 4 -20 -20 -20 -20 -20 -20 -20 -20 -20 -20 -20 -20
-20 -20 -20 -20 -20 -20 -20 -20 -20 -20 -20 -20 -20 -20 -20 -20 -20 -20 -20 -20 -20 -20 -20 -20 -20 -20 -20 -3 -15 20 -20 21 10 -20 -20 -20 -20 -20 -20 -20 -20 -20 -20
-20 -20 -20 -20 -20 -20 -20 -20 -20 -20 -20 -20 -20 -20 -20 -20 -20 -20 -20 -20 -20 -20 -20 -20 -20 -20 -17 1 -19 1 17 -20 -20 -20 -20 -15 -20 -19 -16 -20 -20 -20 -20
-20 -20 -20 -20 -20 -20 -20 -20 -20 -20 -20 -20 -20 -20 -20 -20 -20 -20 -20 -20 -20 -20 -20 -20 -20 -20 -20 8 -20 18 -6 -20 -20 -20 -20 -20 -20 -7 -20 -20 -20 -20 -20
-20 -20 -20 -20 -20 -20 -20 -20 -20 -20 -20 -20 -20 -20 -20 -20 -20 -20 -20 -20 -20 -20 -20 -20 -20 -20 -20 -11 -15 -2 -0 -20 -20 -20 -20 -20 -20 -20 9 25 -20 -13 -20
-20 -20 -20 -20 -20 -20 -20 -20 -20 -20 -20 -20 -20 -20 -20 -20 -20 -20 -20 -20 -20 -20 -20 -20 -20 -20 -20 -20 -20 -9 -20 -20 -20 -20 -20 -20 -20 -20 -20 -20 -4 28 -20
-2 29 -17 -6 -20 -20 -20 -20 -20 -12 -16 -12 11 -20 -17 -20 -20 -20 -20 -20 -20 -20 -20 -20 -20 -20 -20 -20 -20 -20 -17 -20 -20 -20 -20 -20 -20 -20 -20 -19 -3 -8 -6
33 33 33 31 28 30 27 -7 -20 -19 8 -15 -6 -0 -20 -20 -20 -20 -20 -20 -20 -20 -20 -20 -20 -20 -20 -20 3 12 5 -20 -20 -20 -20 -20 -20 -20 -20 -11 -5 9 -6
29 36 33 29 28 25 33 30 34 29 29 26 -20 -20 -20 -3 -3 -20 -11 -20 -20 -20 -20 -20 -20 -20 -20 -20 2 10 -3 -20 -20 -9 -16 -20 -20 -20 -20 -20 -20 -13 11
12 34 34 32 30 28 41 32 30 6 17 30 9 -20 -20 -20 -20 -20 -20 -13 -20 -20 -20 -20 -20 -20 -20 -20 -20 -20 -20 -20 0 -7 -3 -20 -19 -20 -20 -1 -20 -20 -20
37 36 32 16 11 21 30 41 33 27 31 30 10 -7 10 21 -20 -20 -20 -20 -20 -20 -20 -20 -20 -20 -20 -20 -15 -20 -19 -20 17 -13 9 1 -17 -20 -20 -1 -5 -20 -20
28 30 1 22 -6 13 32 38 35 34 9 -4 -17 -20 5 -17 -20 -20 -20 -20 -20 -20 -20 -20 -20 -20 -20 -20 -20 -20 -20 15 -20 -11 -9 14 -20 -20 -2 -4 -20 -20 -20
29 15 -19 0 23 29 20 25 17 17 10 5 -11 -20 -20 -20 -20 -20 -20 -18 -20 -18 -19 -20 -20 -20 -20 -7 7 -20 -5 -14 -5 -20 -20 -1 -6 -20 -19 2 18 17 15
-6 12 28 15 26 24 -18 2 11 -1 -5 -6 4 -10 -20 -20 -20 -20 -20 -18 -20 -7 -20 -18 -20 -20 -20 -20 4 -19 -19 11 -18 10 -1 4 -20 0 -2 -14 10 11 10
-20 -16 -20 5 -12 -12 -16 -20 -17 -19 -20 -20 -20 -20 -18 -20 -20 -20 -20 -20 -20 -14 -10 -20 -20 -18 -20 -20 -20 -19 -15 -0 -1 2 -5 -1 8 6 -6 3 1 -0 4
-20 -20 -20 -20 -14 -5 -18 -14 -18 -18 -20 -18 -20 -20 -20 -20 -20 -20 -20 -20 -20 -9 0 -15 -15 -20 -20 -20 -7 -20 -15 7 7 17 -1 -7 -5 8 10 14 -9 -18 4
-20 -20 -20 -20 -20 -20 -6 -9 -16 -20 -20 -20 -20 -20 -20 -20 -20 -20 -20 -20 -20 -20 -20 -20 -20 -19 -20 -20 -20 -2 -14 6 10 7 12 -18 -5 7 5 1 -20 -3 2
-20 -20 -20 -20 -20 -20 -20 -20 -20 -20 -20 -20 -20 -20 -20 -20 -20 -20 -20 -20 -20 -20 -20 -20 -20 -20 -20 -20 -20 -19 -2 -3 12 13 -8 -19 -0 10 8 -19 -20 -20 -8
-20 -20 -20 -20 -20 -20 -20 -20 -20 -20 -20 -20 -20 -20 -20 -20 -20 -20 -20 -20 -20 -20 -20 -20 -20 -12 -20 -20 -20 -20 -7 7 -7 -18 -20 -20 -20 -20 -18 -20 -20 -20 -20
-20 -20 -20 -20 -20 -20 -20 -20 -20 -20 -20 -20 -20 -20 -20 -20 -3 -19 -18 -20 -20 -20 -12 -3 -15 6 -18 -8 -10 -20 -0 -1 -14 -20 -20 -20 -20 -20 -20 -20 -20 -20 -20
-20 -20 -20 -20 -20 -20 -20 -20 -20 -20 -20 -20 -20 -20 -20 -20 -20 -16 -0 -5 3 -20 -12 -19 -17 -20 -20 -20 -18 12 -0 1 -20 -20 -20 -20 -20 -20 -20 -20 -18 -20 -20
-20 -20 -20 -20 -20 -20 -20 -20 -20 -20 -20 -20 -20 -20 -20 -20 -20 -20 8 10 -0 -6 0 -19 -20 -20 -20 -16 -20 -20 -11 -20 -18 10 6 -20 -16 -19 -20 -20 -20 -20 -20
-20 -20 -20 -20 -20 -20 -20 -20 -20 -20 -20 -20 -20 -20 -20 -20 -17 -18 -20 -20 -20 -20 -20 -20 -20 -20 -20 -20 -20 -20 -20 -20 9 1 -20 -10 0 -17 -20 -20 -20 -20 -20
-20 -20 -20 -20 -20 -20 -20 -20 -20 -20 -20 -20 -20 -20 -20 -20 -13 -7 -20 -20 -20 -20 -20 -20 -20 -20 -20 -20 -2 -20 -20 -14 18 15 -9 -20 -20 -20 -20 -20 -20 -20 -20
-20 -20 -20 -20 -20 -20 -20 -20 -2 -20 -20 -20 -20 -20 -20 -11 8 -6 -20 -20 -20 -20 -20 -20 -20 -20 -20 -20 -20 -20 -15 -20 -20 -20 -20 -12 -20 -20 -20 -20 -20 -20 -20

GFSMA_prec_radar_084.txt.gz
Reflectivity
-20 -20 -20 -20 -20 -20 -20 -20 -20 -20 -20 -20 -20 -20 -20 -20 -20 -20 -20 -20 -20 -20 -20 -20 -20 -20 16 -0 -20 -20 -20 -20 -20 -20 -20 -20 -20 -20 -20 -20 -20 -20 -20
-20 -20 -20 -20 -19 -20 -20 -20 -20 -20 -20 -20 -20 -20 -20 -20 -20 -20 -20 -20 -20 -20 -20 -20 -20 -20 -20 -7 -20 -20 9 -20 -20 -20 -20 -20 -20 -20 -20 -20 -20 -20 -20
-20 -20 -6 -15 -20 -20 -20 -20 -20 -20 -20 -20 -20 -20 -20 -20 -20 -20 -20 -20 -20 -20 -20 -20 -20 -20 -20 -20 -12 -5 -18 -20 -20 -20 -20 -20 -20 -20 -20 -20 -20 -20 -20
-20 -12 10 -20 -20 -20 -20 -20 -20 -20 -20 -20 -20 -20 -20 -20 -20 -20 -20 -20 -20 -20 -20 -20 -20 -20 -20 -20 18 25 -8 4 8 -2 -20 -20 -20 -20 -11 -20 -20 -20 -20
-20 5 -7 -20 -20 -20 -20 -20 -20 -20 -20 -20 -20 -20 -20 -20 -20 -20 -20 -20 -20 -20 -20 -20 -20 -20 -20 -20 -20 18 22 -4 -14 13 -20 -20 -20 -17 4 11 -20 -20 -20
0 14 -20 -20 -20 -20 -20 -20 -20 -20 -20 -20 -20 -20 -20 -20 -20 -20 -20 -20 -20 -20 -20 -20 -20 -20 -20 -20 -20 -3 -20 -20 -9 -20 -18 -20 -20 -20 -20 -15 -5 -9 -20
11 -6 -20 -20 -20 -20 -20 -20 -20 -20 -20 -20 5 -20 -20 -20 -20 -20 -20 -20 -20 -20 -20 -20 -20 -20 -20 -20 -20 -20 -20 -20 -20 -20 -20 -20 -20 -20 -20 -20 -2 -12 -10
-20 -2 -20 -13 -20 -20 -11 -20 -20 -20 -20 6 -15 10 -20 -20 -20 -20 -20 -20 -20 -20 -20 -20 -20 -20 -20 -20 -20 -18 -19 -20 -20 -20 -20 -20 -20 -20 -20 -20 -20 -20 -20
-17 -18 -1 4 26 -19 10 -0 -4 -2 13 -12 -20 -6 -16 -20 -20 -20 -20 -20 -20 -20 -20 -20 -20 -20 -20 -20 -20 -7 10 6 -20 -20 -20 -20 -20 -20 -20 -20 -20 -16 -20
10 28 36 27 23 35 27 28 29 24 28 27 23 24 -20 -20 -20 -20 -20 -20 -20 -20 -20 -20 -20 -20 -20 -20 -20 -20 -19 -20 -14 -20 -20 -20 -20 -20 -20 -20 -20 -20 5
4 15 26 34 36 38 38 33 34 9 34 30 29 30 33 -9 -4 0 -5 3 -2 -20 -20 -20 -20 -20 -20 -20 -20 -20 -20 -8 -20 -20 -20 -20 -17 -20 -20 -20 -20 -20 -20
24 30 33 30 36 37 34 32 28 29 34 25 29 31 34 31 -16 -20 -20 -20 -19 -20 -20 -20 -20 -20 -20 -20 -20 -20 -2 11 -2 -20 -14 6 -20 -20 -13 -10 -20 -20 -20
37 37 34 38 33 35 27 17 4 11 30 28 31 16 10 4 -20 -20 -20 -20 -20 -19 -20 -20 -20 -20 -20 -20 -20 -20 -5 -15 -20 15 -8 5 -20 -20 -12 8 -20 -20 -20
13 26 25 28 31 26 21 13 18 12 21 12 18 14 9 -5 -11 -20 -19 -18 -20 -20 -20 -20 -20 -20 -20 -20 -20 7 -9 -20 -20 -18 -20 -20 -20 -20 -8 -17 7 14 14
-3 2 19 13 30 31 17 -17 3 0 4 7 13 -0 -5 5 6 6 -1 -9 -18 -20 -20 -20 -20 -20 -20 -20 -20 -20 -20 -20 19 6 4 -19 6 14 3 -19 -9 -0 -3
-9 -8 9 -11 14 -13 20 -5 5 -7 -10 -13 -6 -5 -9 -7 -16 -20 -17 -9 -3 -20 -17 -20 -13 -20 -20 -20 -20 -20 -20 -9 5 1 -1 -7 2 -20 -18 5 6 3 -8
-20 -18 -20 3 -20 -20 -20 -20 -20 -20 -19 -17 -13 -20 -20 -20 -20 -20 -20 -20 -19 2 4 -17 -20 -20 -20 -20 -20 -20 -2 -20 -9 4 8 -0 6 -20 -20 -6 7 9 -20
-20 -20 -20 -19 -19 -20 -20 -20 13 -19 -19 -4 -14 -18 -20 -20 -20 -20 -20 -20 -11 3 8 -16 -20 -20 -20 -20 -20 -19 -19 -16 -12 15 1 11 -12 -19 -20 6 10 -19 -20
-17 -16 -20 -20 -20 -20 -20 -20 -20 -20 -20 -14 -20 -20 -20 -20 -20 -20 -20 -9 -15 -20 -20 -6 -5 -20 -20 -20 -20 -20 -20 -20 -9 19 9 -20 -20 -20 2 -7 -20 -20 -20
-20 -19 -20 -20 -20 -20 -20 -20 -20 -20 -20 -20 -20 -20 -20 -20 -20 -20 -20 -20 -20 -20 -20 -20 1 -20 -20 -20 -20 -20 -20 -20 -20 -20 13 4 -20 -20 -20 -20 -20 -20 -20
-20 -20 -20 -20 -20 -20 -20 -20 -20 -20 -20 -20 -20 -20 -20 -20 -20 -20 -20 -20 -20 -20 -20 -8 -20 -20 -20 -20 -20 -20 -20 -20 -20 -20 -20 -20 -20 -20 -20 -20 -20 -20 -20
-20 -20 -20 -20 -20 -20 -20 -20 -20 -20 -20 -20 -20 -20 -20 -20 -20 -20 -20 -20 -20 -20 -20 -20 -20 -20 -20 -20 -20 -20 -20 -20 -20 -20 -20 -20 -20 -20 -20 -20 -20 -20 -20
-20 -20 -20 -20 -20 -20 -20 -20 -20 -20 -20 -20 -20 -20 -20 -20 -20 -20 -20 -20 -20 -17 -6 -20 -20 -20 -20 -20 -20 -20 -20 -10 0 -18 -20 -20 -14 8 10 -20 -20 -20 -20
-20 -20 -20 -20 -20 -20 -20 -20 -20 -20 -20 -20 -20 -20 -20 -20 -20 -20 -20 -20 -20 -20 -20 -20 -20 -20 -20 -20 -20 -20 -20 -20 -20 -20 -20 -20 3 -4 -20 -20 -20 -20 -20
-20 -20 -20 -20 -20 -20 -20 -20 -20 -20 -20 -20 -20 -20 -20 -20 -20 -20 -20 -20 -20 -20 -20 -20 -20 -20 -20 -20 -20 -20 -20 -20 -20 -20 -20 -19 7 12 -18 -10 -19 -20 -20
-20 -20 -20 -20 -20 -20 -20 -20 -20 -20 -20 -20 -20 -20 -20 -20 -20 -20 -20 -20 -20 -20 -20 -20 -20 -20 -20 -20 -20 -20 -20 -20 -20 -20 -20 -20 -20 -20 -20 -20 -20 -20 -20

GFSMA_prec_radar_090.txt.gz
Reflectivity
-20 -20 -20 -20 -20 -20 -20 -20 -20 -20 -20 -20 -20 -20 -20 -20 -20 -20 -20 -20 -20 -20 -20 -20 -20 -20 -20 3 -15 -10 -20 -20 -20 -20 -20 -20 -20 -20 -20 -20 -20 -20 -20
-20 -20 -20 -20 -20 -20 -20 -20 -20 -20 -20 -20 -20 -20 -20 -20 -20 -20 -20 -20 -20 -20 -20 -20 -20 -20 -20 -20 -20 -4 19 -20 -18 -20 -20 -20 -20 -20 -20 -20 -20 -20 -20
-20 -20 -20 -20 -20 -20 -20 -20 -20 -20 -20 -20 -20 -20 -20 -20 -20 -20 -20 -20 -20 -20 -20 -20 -20 -20 -20 -20 -20 -5 -11 -20 -20 -20 -20 -20 -20 -20 -20 -20 -20 -20 -20
-20 -20 -20 -20 -20 -20 -20 -20 -20 -20 -20 -20 -20 -20 -20 -20 -20 -20 -20 -20 -20 -20 -20 -20 -20 -20 -20 -20 -20 -20 -12 -20 -20 -20 -20 -18 -20 -5 -2 -19 -16 -20 -20
-20 -20 -18 -20 -20 -20 -20 -20 -20 -20 -20 -20 -6 -20 -20 -20 -20 -20 -20 -20 -20 -20 -20 -20 -20 -20 -20 -20 -20 -20 -14 -20 -20 -20 -20 -20 -20 -20 -20 -20 -20 4 -19
-20 -20 -20 -20 -20 -20 -20 -20 -10 -14 -20 9 -9 -20 -20 -20 -20 -20 -20 -20 -20 -20 -20 -20 -20 -20 -20 -20 -20 -20 -20 -20 -20 -20 -20 -20 -20 -20 -20 -20 -20 -20 -20
7 7 -20 -20 -20 -20 -20 4 16 9 -8 12 -19 -20 -20 -20 -20 -20 -20 -20 -20 -20 -20 -20 -20 -20 -20 -20 -20 -20 -20 -20 -20 -20 -20 -20 -20 -20 -20 -20 -20 -20 -20
8 0 6 -12 -20 6 18 -0 -20 -2 -20 2 1 -16 -20 -20 -20 -20 -20 -20 -20 -20 -20 -20 -20 -20 -20 -20 -20 -20 -20 -20 -14 -20 -20 -20 -20 -20 -20 -20 -20 -20 -20
13 2 4 9 15 -6 -13 -20 -8 -20 -20 2 0 17 0 -20 -20 -20 -20 -20 -20 -20 -20 -20 -20 -20 -20 -20 -20 -20 -20 -20 -20 -2 -7 -20 -20 -20 -20 -20 -20 -20 -20
29 26 4 18 -8 -2 -12 -14 27 28 23 6 3 27 26 13 -20 -20 -20 -20 -20 -20 -20 -20 -20 -20 -20 -20 -20 -20 -20 -20 -20 -20 16 6 -20 -20 -20 -20 -20 -20 -20
14 16 -8 -16 24 28 15 28 25 -18 30 29 34 37 36 33 16 20 -7 -15 -18 -19 -19 -7 -20 -20 -20 -20 -20 -20 -20 -20 -20 -20 18 -16 11 -20 -20 -20 -19 -20 -20
17 29 23 17 21 9 18 23 4 3 23 19 18 26 38 34 32 34 30 29 36 11 -15 -20 -20 -20 -20 -20 -20 -20 -20 -20 -20 -20 3 -1 -15 -17 -20 -20 -18 -9 -20
31 20 9 13 4 -15 -3 6 13 -7 25 16 32 25 31 35 31 33 21 16 16 6 5 0 -4 -15 -20 -20 -20 -20 -20 -20 -20 6 -8 10 3 -13 -18 -20 -11 6 4
24 28 26 4 4 3 18 13 -18 16 23 30 28 22 31 29 36 31 14 14 2 -16 -16 -19 -17 -2 -19 -20 -20 -20 -20 -11 -6 -5 -18 -7 -16 -13 -8 -20 -20 2 5
-11 3 18 -4 5 7 -11 28 29 21 34 32 19 11 16 20 23 20 14 10 3 -6 -19 -20 -20 -20 -20 -20 -20 -20 -19 -20 -20 -20 -20 -5 -14 7 10 -6 -20 -20 -7
19 5 32 26 24 31 11 15 29 30 28 25 7 5 -10 -4 3 15 17 11 -7 -8 -4 -5 -4 -16 -20 -20 -12 -20 -20 1 8 -20 -16 -15 -2 -4 -5 -20 -7 -20 -20
23 20 13 26 14 2 2 19 12 22 16 28 13 -17 4 -20 -20 -16 -20 -20 -20 -20 -20 -20 -20 -20 -20 -20 -20 -20 -20 -6 -10 -20 4 -20 -19 -1 -6 -18 -20 -20 8
-20 -20 -9 -6 1 3 -11 4 5 24 8 -2 21 10 6 -11 -15 -20 -16 -20 -20 -20 -20 -20 -20 -20 -20 -20 -20 -20 -20 -20 -20 -7 2 -20 -11 -12 7 8 11 -12 -20
-20 -20 -20 -20 -20 -8 4 -12 17 4 -9 -15 -20 -20 -20 -20 -20 -20 -20 -20 -20 -20 -20 -20 -20 -20 -20 -20 -20 -20 -20 -20 -20 -20 -20 6 -12 -2 -11 -16 -20 -20 -20
-20 -20 -20 -20 -20 -11 8 5 -1 20 1 -19 -20 -20 -0 -20 -20 -20 -20 -20 -20 -20 -20 -20 -2 -9 -20 -20 -20 -20 -20 -20 -20 -20 -2 -5 -16 -20 -20 -15 -20 -20 -20
-20 -20 -20 -20 -20 -20 -16 -17 4 10 -20 -20 11 -5 15 11 5 -20 -20 -20 -20 -20 -20 -20 -20 -17 -20 -20 -20 -20 -20 -20 -20 -20 -20 -20 -20 -19 -16 8 -20 -20 -20
-20 -20 -20 -20 -20 -20 -20 4 1 10 14 6 6 -12 -0 17 -19 -20 -20 -20 -20 -20 -20 -20 -20 -20 -20 -20 -20 -20 -20 -20 -20 -20 -20 -20 -20 -20 -20 -20 -20 -20 -20
-20 -20 -20 -20 -20 -20 -20 -20 -13 -8 10 19 10 -5 -20 -20 -5 -20 -20 -20 -20 -20 -20 -20 -20 -20 -20 -20 -20 -20 -20 -17 -5 -20 -20 -20 -20 -20 -20 -20 -20 -20 -20
-20 -20 -20 -20 -20 -20 -20 -20 -20 -20 -20 -20 -20 -20 -20 -20 -20 -20 -20 -20 -20 -20 -20 -20 -20 -20 -20 -20 -20 -20 -20 -20 -20 -20 -20 -20 -20 -20 -20 -20 -20 -20 -20
-20 -20 -16 -20 -20 -20 -20 -20 -20 -20 -20 -20 -20 -20 -20 -20 -20 -20 -20 -20 -20 -20 -20 -20 -20 -20 -20 -20 -20 -20 -20 -20 -20 -20 -20 -20 -20 -20 -20 -20 -20 -20 -20
5 -17 -20 2 7 -20 -20 -20 -20 -20 -20 -20 -20 -20 -12 -20 -20 -2 -20 -20 -20 -20 -20 -20 -20 -20 -20 -20 -20 -20 -20 -20 -20 -20 -20 -20 -20 -20 -20 -20 -20 -20 -20

GFSMA_prec_radar_093.txt.gz
Reflectivity
3 -8 -9 -20 -20 -20 -20 -20 -20 -20 -20 -20 -20 -20 -20 -20 -20 -20 -20 -20 -20 -20 -20 -20 -20 -20 -20 -3 5 -7 -20 -20 -20 -20 -20 -20 -20 -20 -20 -20 -20 -20 -20
11 13 -5 -20 -20 -20 -20 -20 -20 -20 -20 -20 -20 -20 -20 -20 -20 -20 -20 -20 -20 -20 -20 -20 -20 -20 -20 -20 -20 -20 -2 -9 1 -20 -20 -20 -20 -20 -20 -20 -20 -20 -20
19 -20 -20 -20 -20 -20 -20 -20 -20 -20 -20 -20 -20 -20 -20 -20 -20 -20 -20 -20 -20 -20 -20 -20 -20 -20 -20 -20 -20 -20 10 19 17 -5 -20 -20 -20 -20 -20 -20 -20 -20 -20
-19 -20 -20 -20 -20 -20 -20 -20 -20 -20 -20 -20 -20 -20 -20 -20 -20 -20 -20 -20 -20 -20 -20 -20 -20 -20 -20 -20 -20 -20 2 -20 -20 -20 -20 -20 -20 -20 -20 -13 -20 -16 -19
-8 -20 -20 -20 -20 -20 -20 -20 -20 -20 -20 -20 -20 -20 -20 -20 -20 -20 -20 -20 -20 -20 -20 -20 -20 -20 -20 -20 -20 -20 -20 -20 -20 -20 -20 -20 -20 -20 -20 -20 -20 -14 -5
-20 -20 -20 -20 -20 -20 -20 -20 -20 -20 -20 -20 -20 -20 -13 -18 -2 -20 -20 -20 -20 -20 -20 -20 -20 -20 -20 -20 -20 -20 -20 -20 -20 -20 -20 -20 -20 -20 -20 -20 2 -12 -14
-20 -20 -20 -20 -20 -20 -20 -20 -20 -20 -20 -20 -20 -13 12 12 -4 -20 -20 -20 -20 -20 -20 -20 -20 -20 -20 -20 -20 -20 -20 -20 -20 -3 -14 -20 -20 -20 -20 -20 -20 -20 -20
-11 -16 -20 -20 -20 -20 -16 -9 -20 -20 -19 -16 -11 6 -4 -6 -20 -18 -20 -4 -20 -20 -20 -20 -20 -20 -20 -20 -20 -20 -20 -20 4 -20 -20 -20 -20 -20 -20 -20 -20 -20 -20
30 4 -13 -12 -20 -20 10 -9 -20 -19 8 7 17 -12 -15 -8 -18 -19 -18 -20 -20 -20 -20 -20 -20 -20 -20 -20 -20 -20 -20 -20 13 -16 -7 -20 -20 -20 -20 -20 -20 -20 -20
36 30 31 36 1 6 5 9 9 13 5 29 2 -20 -20 -20 -18 -18 -20 17 -16 -20 -20 -20 -20 -20 -20 -20 -20 -20 -20 -20 -20 5 -13 21 -20 -20 -20 -20 -20 -20 -20
30 26 27 35 35 33 24 33 32 13 28 29 30 29 22 -1 28 32 18 -19 -19 6 -17 -20 -20 -17 -20 -20 -20 -20 -20 -20 -20 -6 -10 10 6 -20 -20 -20 -20 0 -19
32 25 36 36 30 20 25 33 14 13 13 15 25 30 16 21 23 31 32 29 22 30 15 7 19 -20 -20 -20 -20 -20 -20 -20 -20 9 10 17 2 -20 -14 -20 -20 2 -2
32 22 -3 6 12 20 28 32 17 8 13 8 -7 13 1 12 16 23 27 35 32 11 11 3 11 -9 -19 -20 -20 -20 -20 -20 -20 -20 -4 8 -1 -16 -12 -20 -16 11 -20
28 15 28 14 2 18 22 28 24 -2 -20 -20 3 -13 -20 -2 22 16 29 35 32 10 -20 -20 -12 -19 -18 -9 -13 -20 -20 -20 -20 -17 4 -8 -9 -6 -9 -11 -16 -14 16
29 19 31 31 24 14 -6 24 1 -10 -9 15 16 18 -6 -18 14 27 28 29 22 13 8 -6 -18 -9 -20 -20 -20 -20 -19 -15 -3 4 -1 1 -16 -3 11 -4 -20 7 14
26 30 29 22 12 23 23 28 9 19 -6 22 29 32 30 30 26 17 11 4 9 -13 -9 -8 -20 -20 -20 -20 -20 -20 -20 -20 -20 -17 -20 -20 -20 9 8 -20 -20 -20 -20
31 29 30 37 37 32 31 29 29 6 24 16 23 20 28 27 9 -4 -3 22 21 12 -2 -20 -20 -20 -19 -20 -20 -20 -20 -20 -17 8 -11 -11 -7 -1 -9 2 -20 -20 -20
-20 -19 -3 -2 -7 0 5 24 0 -1 -11 3 12 17 18 25 17 21 13 -14 -17 -20 -10 -20 -20 -20 -20 -20 -20 -20 -20 -20 -20 -3 -19 -13 -19 -20 -20 -20 -20 -4 -13
0 -17 -20 -20 -9 -7 -1 5 -11 -4 -1 -13 17 16 16 12 16 15 -16 -20 -17 -13 -18 -20 -20 -20 -20 -20 -20 -20 -20 -20 -20 12 2 3 -20 -20 -20 -10 -5 0 -20
-20 -10 -15 -20 -20 -15 -13 -20 -15 -2 22 18 13 9 24 20 -20 -20 -20 17 -17 -19 -20 -20 -20 -20 -20 -20 -20 -20 -20 -20 -20 -20 -20 -20 -20 -20 -19 -20 -20 -20 -20
-20 -20 -20 -20 -20 -20 -20 -20 -20 -19 -2 9 15 14 7 20 -20 -20 -15 16 -20 -20 -20 -20 -20 -20 -20 -20 -20 -20 -20 -20 -20 -20 -20 -20 -20 -20 -18 5 -17 -20 -20
-20 -20 -20 -20 -20 -20 -20 -20 -5 -20 -20 -20 -20 -6 -5 20 17 -2 15 16 20 12 -20 -20 -20 -20 -20 -20 -20 -20 -20 -20 -20 -20 -20 -20 -20 -20 -20 -20 -20 -20 -20
-20 -20 -20 -20 -20 -20 -20 -20 -20 -20 -20 -20 -20 -19 -11 -11 13 5 13 14 -20 2 -20 -20 -20 -20 -20 -20 -20 -20 -20 -20 -20 -20 -20 -20 -20 -20 -20 -20 -20 -20 -20
-20 -20 -20 -20 -20 -20 -20 -20 -20 -20 -20 -20 -10 -9 1 -20 -4 -3 -17 -20 -20 -20 -20 -20 -20 -20 -20 -20 -20 -20 -20 -20 -20 -20 -20 -20 -20 -20 -20 -20 -20 -20 -20
-20 -20 -20 -20 -20 -6 12 -20 -20 -20 -20 -20 -20 -20 -20 -9 20 8 -13 -20 -20 -20 -20 -20 -20 -20 -20 -20 -20 -20 -20 -20 -20 -20 -20 -20 -20 -20 -20 -20 -20 -20 -20
-20 -20 -20 -20 2 -20 15 9 3 -20 -20 -20 -20 -20 -20 -20 -20 -20 -20 -20 -20 -20 -20 -20 -20 -20 -20 -20 -20 -20 -20 -20 -20 -20 -20 -20 -20 -20 -20 -20 -20 -20 -20

GFSMA_prec_radar_096.txt.gz
Reflectivity
13 9 -15 8 1 -11 -20 -20 -20 -20 -20 -20 -20 -20 -20 -20 -20 -20 -20 -20 -20 -20 -20 -20 -20 -20 -20 -20 -20 -20 -20 -20 -20 -20 -20 -20 -20 -20 -20 -20 -20 -20 -20
28 34 34 12 -7 -20 -20 -20 -20 -20 -20 -20 -20 -20 -20 -20 -20 -20 -20 -20 -20 -20 -20 -20 -20 -20 -20 -20 -20 -20 -20 -20 -20 -20 -20 -20 -20 -20 -20 -20 -20 -20 -20
-2 21 20 21 -20 -20 -19 -20 -20 -20 -20 -20 -20 -20 -20 -20 -20 -20 -20 -20 -20 -20 -20 -20 -20 -20 -20 -20 -15 8 11 23 -20 -19 -20 -20 -20 -20 -0 -20 -20 -20 -20
-9 21 27 31 27 19 -19 -20 -20 -20 -20 -20 -20 -20 -20 -20 -20 -20 -20 -20 -20 -20 -20 -20 -20 -20 -20 -20 -20 -20 -20 -16 -20 -20 -15 -18 -20 -20 -20 -20 16 -4 1
-11 -0 15 22 -8 -8 7 -20 -20 -20 -20 -20 -20 -20 -20 -20 -20 -20 -20 -20 -19 -20 -20 -20 -20 -20 -20 -20 -20 -20 -20 -20 -5 -20 -20 7 -20 -20 -20 -20 -20 -20 -9
28 16 -1 9 -1 -20 -20 -20 -20 -20 -20 -20 -20 -20 -20 -20 -20 -20 -20 -18 2 -1 -20 -20 -20 -20 -20 -20 -20 -20 -20 -20 -20 -16 -20 6 -20 -20 -20 -20 -20 -20 -20
8 29 11 5 14 -12 -20 -17 -8 -20 -20 -20 -20 -20 -20 -20 -18 -4 -10 -9 14 -4 -20 -20 -20 -20 -20 -20 -20 -20 -20 -20 -20 -20 -20 -20 -20 -20 -20 -20 -20 -20 -20
11 -11 -20 -3 -1 -20 1 -12 -12 0 -13 -20 -20 -20 -20 -20 3 -3 -20 -19 1 6 -20 -20 -20 -20 -20 -20 -20 -20 -20 -20 -19 -5 -20 -20 -20 -20 -20 -20 -20 -20 -20
20 -5 1 -6 2 -18 -19 -19 -20 -20 -20 -20 -20 -20 -7 7 14 2 -12 -20 -20 -20 -20 -20 -20 -20 -20 -20 -20 -20 -20 -20 4 -2 -20 -20 -20 -20 -20 -20 -20 -20 -7
29 23 8 -11 -17 -12 -1 -13 -7 -14 -20 -20 10 12 -15 -8 2 -20 -20 -20 -20 -20 -20 -20 -20 -20 -20 -20 -20 -20 -20 -20 10 12 -19 16 -15 -20 -20 -20 -20 -20 9
30 18 20 29 29 28 23 16 31 30 15 13 26 14 26 30 25 -2 -20 -20 -20 -15 2 18 23 -20 -5 -20 -20 -20 -20 -20 -20 -20 14 -13 21 14 -18 -20 -20 -19 4
35 23 24 35 36 29 20 29 9 9 26 12 34 22 29 22 34 31 2 -3 -6 2 21 23 7 7 7 -7 8 -17 -20 -20 -20 -20 7 -8 11 10 -13 -20 -18 -11 -7
35 25 32 29 31 31 34 34 27 12 17 1 10 30 31 8 9 6 4 11 16 13 17 25 19 -13 -3 -20 -20 -20 -20 -20 -20 -20 -7 13 -18 9 -5 -20 -16 -20 13
32 33 34 29 28 32 35 35 33 28 17 18 30 33 31 3 -8 -20 -20 -20 -20 -20 -15 19 23 0 -4 -20 -20 -20 -20 -20 -20 -11 -10 -18 5 6 -20 -20 -20 -20 -18
31 34 32 32 26 33 32 31 30 32 29 25 23 25 17 -13 -20 -20 -17 -18 -11 6 26 28 2 -19 -20 -20 -20 -20 -20 -20 -20 -20 9 -20 11 10 -20 1 0 6 -20
36 36 27 26 27 29 31 31 23 22 23 21 10 21 7 15 28 29 18 26 33 12 4 28 25 14 -16 -16 -20 -20 -20 -20 -20 -20 -17 -7 -16 -11 -20 -16 -1 6 -20
20 31 32 32 32 33 31 27 24 31 28 27 32 1 -2 26 33 31 27 6 28 6 -10 -8 -15 -19 -20 -20 -20 -20 -20 -20 -19 -13 -20 3 -20 -20 -14 -20 -20 -20 -20
8 8 9 15 14 15 30 34 34 27 18 22 31 32 25 22 20 23 -15 7 10 13 15 12 -4 -12 -20 -17 -12 -9 -7 -5 -20 -20 -20 2 -20 -9 -13 -11 -20 -20 -20
-20 -9 7 10 3 -4 9 3 20 20 -1 -13 6 -20 -9 31 20 3 3 -18 -1 29 7 4 3 -5 -16 -20 -20 -20 -20 -20 -20 -17 6 -17 -18 7 -20 -20 -20 -20 -20
-16 -14 -12 -11 -17 0 4 1 -0 -1 6 12 12 11 6 13 7 -3 34 19 23 23 -20 -20 -16 -14 -20 -20 -20 -20 -20 -20 -20 -20 7 -0 -20 -20 -20 -20 -20 -20 -20
-20 -20 -20 -20 -20 -20 -20 -5 -0 6 6 -0 0 -6 -1 11 15 23 25 39 18 -20 -20 -20 -20 -20 -20 -20 -20 -20 -20 -20 -20 -20 -20 -20 -20 -20 -20 -20 -20 -6 -20
-20 -20 -20 -20 -20 -20 -20 -20 -20 -20 -20 -20 -20 -1 12 14 5 -1 17 13 17 -20 -20 -20 -20 -20 -20 -20 -20 -20 -20 -20 -20 -20 -20 -20 -20 -20 -20 -20 -20 -20 -20
-20 -20 -20 -20 -20 -20 -20 -20 -20 -20 -20 -20 -20 -20 -3 6 18 -12 -20 16 4 -2 28 13 -7 35 25 -20 -20 -20 -20 -20 -20 -20 -20 -20 -20 -20 -20 -20 -20 -20 -20
-20 -20 -20 -20 -20 -20 -20 -5 3 -20 -20 -20 -20 -20 -19 -5 5 11 -18 -5 1 -11 5 4 -13 -19 -5 -20 -20 -20 -20 -20 -20 -20 -20 -20 -20 -20 -20 -20 -20 -20 -20
-20 -20 -20 -20 -20 -20 -20 -20 -8 -20 -20 -20 -20 -20 -20 -20 12 5 7 1 15 -5 19 1 12 -8 4 -20 -20 -20 -20 -20 -20 -20 -20 -20 -20 -20 -20 -20 -20 -20 -20
-20 -20 -20 -20 -20 -20 4 -13 5 -19 -20 -20 -20 -20 -20 -2 -9 2 -12 -18 -18 -15 2 -20 1 7 -19 -20 -20 -20 -20 -20 -20 -20 -20 -20 -20 -20 -20 -20 -20 -20 -20

GFSMA_prec_radar_099.txt.gz
Reflectivity
-20 -20 11 3 -20 14 -4 7 -12 -20 -20 -20 -20 -20 -20 -20 -20 -20 -20 -20 -20 -20 -20 -20 -20 -20 -20 -20 -20 -20 -20 -20 -20 -20 -20 -20 -20 -20 -20 -20 -20 -20 -20
-20 -20 15 25 -19 -20 10 -16 -15 -20 -20 -20 -20 -20 -20 -20 -20 -20 -20 -20 -20 -20 -20 -20 -20 -20 -20 -20 -20 -20 -20 -20 -5 -20 -20 -20 -20 -20 -20 -20 -20 -20 -20
-20 -4 9 27 23 28 -7 -9 -20 -20 -20 -20 -20 -20 -20 -20 -20 -20 -20 -20 -20 -20 -20 -20 -20 -20 -20 -20 -20 4 11 -17 -20 20 10 -20 -20 -20 -20 -19 -20 -20 -20
-20 -20 21 14 32 34 27 8 -13 -20 -20 -20 -20 -20 -20 -20 -20 -20 -20 -20 -20 -20 -20 -20 -20 -20 -20 -20 6 -20 -20 -4 -20 0 -20 -20 -13 -20 -20 -20 -18 -14 -9
-12 -20 22 32 17 5 32 27 -5 -20 -20 -20 -20 -20 -20 -20 -20 -20 -20 -20 -20 -20 -20 -20 -20 -20 -20 -20 -20 -20 -20 -20 -20 -4 -20 -19 -20 -20 -20 -20 -20 -20 -20
-20 22 -5 -6 29 16 14 12 -3 -4 -20 -20 -20 -20 -20 -20 -20 -20 -20 -20 -20 -20 -20 -20 -20 -20 -20 -20 -20 -20 -20 -20 -20 -7 -14 -20 -20 -20 -20 -20 -20 -20 -20
-16 -20 -19 29 4 35 21 12 12 30 -11 10 3 -12 -20 -20 -9 -20 -20 -11 -13 -20 -20 -20 -20 -11 -20 -20 -20 -20 -20 -20 -20 -20 -20 -20 -20 -20 -20 -20 -20 -20 -20
-16 -15 4 22 26 14 24 10 -16 -16 -20 -20 -20 -20 -16 -18 -20 -13 -20 -20 -20 -20 -20 -20 -16 -20 -20 -20 -20 -20 -20 -20 -20 -3 -9 -20 -20 -20 -20 -20 -20 -20 -20
28 2 -13 23 21 18 -10 -19 3 -6 -20 -12 -7 -19 -20 -20 -4 0 -3 3 -20 -20 -14 3 -4 -20 -20 -20 -20 -20 -20 -20 -20 8 8 -20 -20 -20 -20 -20 -20 -14 3
20 24 11 16 24 24 8 -6 13 -0 -11 -20 -0 -7 -20 -8 -10 4 -10 -2 -5 4 14 -16 -20 -20 -20 -20 -20 -20 -20 -20 -20 6 14 -1 3 -20 0 -20 -20 -18 -19
8 25 30 30 25 18 4 0 -12 -20 -20 -7 5 -20 -19 -19 6 13 9 8 29 9 17 15 -20 -20 -20 -19 16 5 1 -20 -20 -20 -20 5 21 15 -6 9 2 -12 6
-0 15 30 31 33 27 12 -2 -3 -18 -15 28 -14 -17 10 2 -6 -8 -20 -20 22 15 22 -14 -20 -20 8 12 27 8 12 -20 -20 2 -20 14 17 5 -20 9 -14 -19 10
-13 25 27 33 31 27 29 23 -2 -3 17 -11 23 21 28 26 22 24 19 17 15 11 -3 -8 -20 -8 -17 -20 3 24 13 -20 -16 -17 -20 16 15 -3 -20 -7 -20 -20 5
13 18 21 25 23 30 35 35 20 18 26 26 25 23 18 28 19 28 27 24 21 -19 -20 -20 -20 -20 -20 -20 22 25 6 -20 -20 -20 -10 7 8 -6 -20 -18 3 -20 -19
20 31 28 32 28 32 36 35 31 30 31 27 29 25 18 17 20 20 16 33 20 13 -13 -20 -19 -12 -15 20 28 1 -15 -20 -20 -20 -20 -20 -20 -20 2 4 -20 -20 -20
17 17 27 30 34 34 35 37 34 29 32 34 34 33 23 22 22 28 29 24 -7 18 3 19 15 2 30 28 15 2 -20 -20 -20 -20 -20 -20 -20 -20 -11 -7 -20 -20 -20
23 23 26 34 33 33 30 30 32 33 37 31 34 34 17 20 24 5 -10 18 30 33 24 26 29 34 24 28 17 -18 -20 -15 -14 -20 -20 -20 -20 -20 -19 -20 -20 -20 -20
-18 12 25 31 30 29 30 31 31 29 29 34 32 29 24 30 25 17 7 22 23 27 28 29 34 28 31 34 24 17 -3 -20 -20 -3 -14 -20 -20 -20 -20 -20 -20 -20 -2
-19 -20 -20 -5 10 14 14 5 16 25 26 17 10 19 27 30 31 28 23 15 20 17 -14 -20 20 1 12 16 10 5 -4 -3 -13 -18 -17 -20 -20 -20 -20 -3 -20 -8 -9
-3 -19 -20 -20 -18 -19 -11 -6 2 8 9 11 16 23 16 12 24 16 15 25 23 23 12 14 33 15 -2 10 20 -9 -20 -20 -20 -20 -20 -9 6 -3 -6 3 -20 -20 -20
-18 -17 -0 -13 -20 -20 -19 -12 -2 -2 5 6 9 9 14 15 25 19 10 22 34 24 23 39 34 31 34 -20 -17 -14 -20 -20 -20 -20 -20 -20 -20 -20 -20 -20 -20 -0 2
-20 -10 -19 -20 -20 -20 -20 -20 -20 -20 -19 -7 -14 -20 -10 11 12 19 20 14 4 -5 33 14 39 33 -13 -6 -20 -20 -20 -20 -20 -20 -20 -20 -20 -20 -20 -20 -20 -13 2
-20 -20 -20 -20 -20 -20 -20 -20 -20 -20 -20 -20 -20 -20 -20 -20 -2 -18 13 12 18 17 22 3 38 28 -1 -2 8 -16 -16 -20 -20 -20 -20 -20 -20 -20 -20 -20 -12 -20 -20
-20 -20 -20 -20 -20 -20 -20 -20 -20 -20 -20 -20 -20 -20 -20 -20 -12 -5 -20 -19 -16 8 7 14 17 18 4 18 27 31 33 12 -8 -20 -20 -20 -20 -20 -20 -20 -20 -20 -20
-20 -20 -20 -20 -20 -20 -20 -20 -17 -20 -20 -20 -20 -20 -20 -20 8 11 -0 -7 15 7 16 27 25 37 22 25 28 24 7 -3 1 2 -20 -20 -20 -20 -20 -20 -20 -20 -20
-20 -20 -20 -20 -20 -20 -20 -20 -20 -7 -4 -19 -20 -20 -13 2 -18 6 1 -3 -13 -13 15 -7 0 10 -3 26 -3 -14 -9 -15 -20 -20 -20 -20 -20 -20 -20 -20 -20 -20 -20

GFSMA_prec_radar_102.txt.gz
Reflectivity
24 -20 24 24 -20 -20 -18 -18 -19 -20 -20 -20 -20 -20 -20 -20 -20 -20 -20 -20 -20 -20 -20 -20 -20 -20 -20 -20 -20 -20 -20 -20 -20 -20 -20 -20 -20 -20 -20 -20 -20 -20 -20
-16 26 10 27 -0 9 -5 1 -20 -20 -20 -20 -20 -20 -20 -20 -20 -20 -20 -20 -20 -20 -20 -20 -20 -20 -20 -20 -19 7 -17 7 -20 -11 -20 -20 -20 -20 -20 -20 -20 -20 -20
-20 -20 -20 -20 25 -17 -5 -20 -17 -20 -20 -20 -20 -20 -20 -20 -20 -20 -20 -20 -20 -20 -20 -20 -20 -20 -20 -20 -20 -13 15 -17 14 -20 -20 -20 -20 -20 -20 -17 -3 -8 -6
-20 -20 -20 -20 8 -20 -1 34 16 -18 -18 -20 -20 -20 -20 -20 -20 -20 -20 -20 -20 -20 -20 -20 -20 -20 7 -14 11 13 -20 -20 -17 -20 -20 -20 -20 11 -15 -20 -20 -20 -20
-20 -20 -20 12 22 6 14 10 42 25 14 -6 -20 -20 -20 -20 -20 -20 -20 -20 -20 -20 -20 -20 -20 -20 -20 -19 -20 -12 -20 -20 -20 -20 8 -20 -17 -20 -20 -20 -20 -20 -20
-7 -17 -11 -10 20 24 26 2 26 23 28 28 16 -20 -20 -20 -20 -20 -20 -20 -20 -20 -20 -20 -20 -20 -20 -20 -20 -20 -20 -20 -20 -20 -20 8 -20 -20 -20 -20 -20 -20 -20
-20 -20 2 3 23 -20 -20 12 37 25 29 10 22 -14 -20 -20 -20 -20 -20 -20 -20 -20 -15 1 -20 -20 -20 -20 -20 -20 -20 -20 -20 -20 -20 -20 -20 -20 -20 -20 -20 -20 -20
-20 -20 -20 -16 24 21 6 -20 -16 10 32 26 -10 -20 -20 -20 -20 -6 -17 -17 -14 0 1 -1 -20 -20 -20 -20 -20 -20 -20 -20 -20 -18 -19 -20 -20 -20 -20 -20 -20 -20 -20
-20 -20 -14 15 -2 20 13 19 24 21 12 29 21 -7 -20 -14 12 13 -19 -20 -16 -8 8 -13 -20 -20 -20 -20 -20 -20 -20 -20 -20 -9 5 -0 -20 -13 -20 -20 -20 -20 -20
-20 -20 -20 -6 10 23 26 23 18 8 22 7 10 -10 -20 -20 -20 -20 -20 -20 0 2 8 4 13 13 -2 -20 -20 -20 -20 -20 -20 -9 -1 8 3 7 -20 -18 9 -18 -19
-20 -20 -20 -7 14 21 23 24 20 22 19 -17 -20 -20 -20 -20 -20 -20 -19 14 8 17 16 -19 -20 -20 -20 -19 -20 -19 -20 11 29 24 5 7 10 12 13 -20 -20 2 -19
-20 -20 -20 -20 -10 7 21 23 24 30 20 20 -4 23 -10 -18 -20 -7 -1 11 20 -20 -7 -20 -18 -20 5 -17 4 -10 -20 -16 -20 -18 7 -18 14 16 -5 6 -20 -2 -12
-17 -20 -18 -20 -12 -12 3 35 30 33 26 21 6 27 -7 -20 -6 -5 22 19 -1 -10 5 -20 -20 11 6 24 7 -9 -20 -20 -20 8 16 6 12 1 10 -15 -15 -20 -20
18 -5 -11 -5 5 9 18 20 37 29 25 24 25 3 -6 13 21 3 19 24 15 -12 -17 -20 -16 -3 -10 -20 -20 -19 -16 12 13 26 15 1 -19 -1 11 8 -20 -20 -20
1 4 14 -11 24 33 27 24 31 30 29 30 19 -1 1 8 20 14 23 29 27 22 8 -20 -20 -7 -1 12 -20 -9 13 23 20 21 -15 -20 -11 5 -13 -20 -20 -20 -20
22 25 11 9 17 26 28 33 35 36 31 24 25 20 17 23 26 18 25 31 26 25 15 -0 -5 -10 -13 -5 18 25 33 28 17 11 -10 -20 -20 -20 -20 -20 -20 -20 -20
19 16 16 30 30 19 27 33 25 23 30 38 34 24 25 18 28 33 31 30 25 24 24 22 26 9 22 24 23 28 25 14 26 17 13 -3 -10 -20 -20 -20 -20 -20 -20
-17 6 14 18 17 30 22 26 27 13 29 29 29 25 22 27 33 33 30 29 22 20 23 27 20 27 21 9 27 30 26 30 26 19 14 1 -20 -20 -20 -20 -20 -20 -20
-9 3 1 5 -7 5 9 8 23 23 25 18 35 32 24 32 32 30 38 26 24 27 33 21 25 26 24 21 25 28 33 26 24 20 -17 -1 -20 -20 -20 -20 -20 -20 -20
-0 -16 -20 -20 -20 -20 -6 -9 -19 -10 3 11 18 24 20 36 38 33 31 31 30 33 30 22 23 13 -2 -8 18 21 27 10 12 -2 -20 -18 -20 -17 6 9 1 -20 -20
-20 -18 -14 -16 -20 -20 -20 -20 -20 -20 -8 -1 -10 -8 0 9 18 21 21 10 10 26 35 26 32 25 15 21 22 23 11 4 21 -19 -20 -20 -20 -20 -15 10 11 5 -20
-20 -20 -20 -20 -20 -14 -19 -18 -20 -20 -20 -20 -8 -2 -8 -19 -13 3 1 20 17 6 5 28 23 35 36 25 36 33 31 33 17 -20 -20 -20 -20 -20 -20 -20 -0 -2 -20
-20 -20 -20 -20 -20 -20 -20 -20 -20 -20 -20 -20 -20 -20 -20 -17 -20 -20 -19 -7 6 21 20 12 6 21 6 12 13 34 36 29 21 -5 -20 -20 -20 -20 -20 -20 -20 -20 -20
-20 -20 -20 -20 -20 -20 -20 -20 -20 -20 -20 -20 -20 -20 -20 -20 -20 -20 -20 -20 -20 -20 -6 13 17 7 16 18 25 16 29 33 26 8 -2 -17 -20 -20 -20 -20 -20 -20 -20
-20 -20 -20 -20 -20 -20 -20 -20 -20 -20 -20 -20 -20 -20 -20 -20 -20 -20 -20 -20 -20 -20 6 14 10 23 25 18 29 15 32 28 27 36 29 -6 -20 -5 -19 -18 -20 -20 -20
-20 -20 -20 -20 -20 -20 -20 -20 -20 -20 -20 -20 -20 -19 13 -18 8 -20 -12 -20 -14 -5 -20 -18 -1 -4 -2 29 14 36 13 34 34 34 14 14 9 8 0 -19 -20 -20 -20

GFSMA_prec_radar_105.txt.gz
Reflectivity
-1 28 -2 25 -20 -20 -20 -20 -20 -15 -20 -20 -20 -20 -20 -20 -20 -20 -20 -20 -20 -20 -20 -6 -20 -20 -20 -20 -20 -20 -20 -20 -20 -20 -20 -20 -20 -20 -20 -20 -20 -20 -20
-20 -20 28 3 28 -20 -20 -20 -20 -20 -20 -20 -20 -20 -20 -20 -20 -20 -20 -20 -20 -20 -20 -20 -20 -12 12 7 12 -20 -20 -20 -20 -20 -20 -20 -20 -20 -20 -20 -20 -20 -20
-20 -20 -20 -20 -20 -20 16 21 20 -20 -18 12 -20 -20 -20 -20 -20 -20 -20 -20 -20 -20 -20 -20 -20 -20 -19 -18 -19 -3 -19 -20 12 3 19 -20 -20 -20 -20 -20 -10 -18 -19
-16 -20 -20 -20 -20 -18 -20 -14 12 25 22 19 -14 -19 -20 -20 -20 -20 -20 -20 -20 -20 -20 -20 -20 -20 -20 -20 8 15 10 -20 -20 -20 -1 14 7 -6 -20 -20 -20 -20 -20
-20 -20 -20 -20 -20 -20 -20 -15 -0 2 19 28 18 -20 -20 -20 -20 -20 -20 -20 -20 -20 -20 -20 -20 -20 -20 -20 -20 -20 -20 -20 -20 -20 -20 -20 -20 -20 -20 -20 -20 -20 -20
-20 -20 -6 -11 6 13 2 3 1 12 19 14 34 18 -17 -16 -20 -20 -20 -20 -20 -20 -20 -20 -20 -20 -20 -20 -20 -20 -20 -20 -20 -20 -20 -20 -20 -20 -20 -20 -20 -20 -20
-20 -2 -20 9 -3 10 -8 -20 0 19 -14 30 18 19 29 12 24 10 -20 -20 -20 -20 -20 -20 -20 -20 -20 -20 2 -20 -20 -20 -20 -20 -20 -20 -20 -20 -20 -20 -20 -20 -20
-7 -9 -8 7 -4 -14 -20 -20 -20 -20 -20 -20 7 17 19 1 -19 11 17 12 -8 3 -20 -20 -20 -20 -20 -20 -20 -20 -20 -20 -20 -20 -20 -1 -20 -20 -20 -20 -20 -20 -20
-20 -20 -20 10 -15 -20 -20 -20 -20 -16 -20 -20 17 9 12 10 -0 6 -8 2 -19 -20 -20 -12 10 -3 13 -3 -18 -20 -20 -20 -20 -20 -12 8 -3 -20 -13 -20 -20 -20 -20
-20 -20 -20 -20 16 -19 -8 7 5 -12 5 -5 8 12 12 8 9 -6 -1 9 15 10 2 6 9 -13 -17 10 9 -15 -20 -20 -20 -20 -20 3 1 5 9 -16 -20 -20 -20
-20 -20 -20 -20 -20 3 -19 5 17 12 21 22 19 19 15 17 24 -12 -20 -19 -19 -20 -7 -20 -11 12 17 26 1 28 -20 -20 -20 -20 -20 -6 13 12 11 9 -7 -20 -20
-20 -20 -1 5 14 11 -4 -14 -20 6 12 -2 16 19 17 16 5 -17 -18 -3 11 -5 -20 2 -3 -2 19 26 -20 -8 -20 -20 -20 -16 -19 -6 -6 26 21 12 11 -20 -20
3 5 4 -16 10 9 11 4 3 -20 6 -0 -4 1 21 22 1 6 6 -16 10 3 -3 3 -6 -0 11 30 -20 -20 -14 18 -8 -7 -20 -11 -5 24 25 12 4 -19 -20
-3 -3 -20 16 15 14 15 3 18 -1 6 -2 13 22 20 25 23 26 11 12 19 -14 5 8 20 26 23 14 14 10 -4 -14 18 -17 -10 10 16 20 7 -1 11 8 -20
-6 24 14 0 -20 -1 -4 27 30 16 14 10 25 32 31 30 31 28 27 31 30 16 -13 1 22 27 23 29 25 22 -19 8 24 -1 -10 18 6 9 6 -3 -18 -20 -20
8 22 4 -8 22 19 20 16 6 14 17 36 25 20 25 30 27 27 30 31 28 23 -5 15 6 18 29 28 28 15 11 -11 13 21 15 24 7 6 -1 -4 -20 -20 -20
26 23 24 18 19 21 18 26 14 10 3 18 22 37 35 32 27 29 27 14 16 -6 -0 19 -12 -3 -4 20 21 28 23 10 10 27 20 14 11 7 4 -15 -18 -8 -20
-9 3 -5 -19 -13 -1 3 4 22 -13 4 16 27 25 29 32 35 32 32 27 25 20 30 26 16 6 -16 1 -3 9 33 30 29 24 22 8 25 3 -12 -20 -5 -20 -20
4 -6 5 -13 -20 -5 -4 16 14 16 15 10 23 27 19 30 32 31 30 32 19 30 33 33 30 19 11 9 16 26 27 31 27 28 22 27 23 15 -20 -20 -18 -18 -11
-6 -0 -20 -0 -6 -20 -20 -20 -20 -14 -8 0 11 5 3 22 20 23 22 24 27 33 33 30 32 19 10 13 25 26 27 22 22 25 22 19 19 -16 -20 -15 -19 -20 -20
-10 -20 -17 -12 -7 -20 -18 -17 -20 -20 -20 -20 -14 -15 -12 -15 7 8 4 14 24 29 30 34 31 31 21 13 21 10 26 24 24 21 17 14 0 -16 -3 1 -1 9 -20
-20 -7 -16 -19 -20 -20 -20 -20 -20 -20 -20 -20 -20 -20 -20 -20 -20 -20 -17 -12 2 15 18 17 22 20 27 30 31 29 19 35 33 27 25 19 -15 -20 -20 -20 14 9 -5
-20 -20 -20 -20 -20 -20 -20 -20 -20 -20 -20 -20 -20 -20 -20 -20 -20 -20 -20 -20 -20 -17 15 11 20 -5 6 12 21 33 25 30 34 20 33 34 29 -18 -20 -17 11 13 10
-20 -20 -20 -20 -20 -20 -20 -20 -20 -20 -20 -20 -20 -20 -20 -20 -6 -10 -20 -20 -20 -20 -20 -15 24 9 3 -4 3 22 31 26 23 19 26 27 21 21 13 -12 13 -8 -17
-20 -20 -20 -20 -20 -20 -20 -20 -20 -20 -20 -20 -20 -20 -20 -20 -20 -19 -5 -0 -20 -20 -20 -20 -20 18 27 12 19 12 18 16 34 35 21 14 21 27 14 -1 -11 5 5
-20 -20 -20 -20 -20 -20 -20 -20 -20 -20 -20 -20 -20 -20 -20 -10 2 7 10 3 -20 -20 -20 -20 -20 -20 0 9 22 9 21 3 1 12 18 23 33 35 8 -19 -20 -20 -19

GFSMA_prec_radar_108.txt.gz
Reflectivity
-0 -6 -20 7 8 10 17 28 23 -12 -20 -20 -20 -20 -20 -20 -20 -20 -20 -20 -20 -20 -20 0 -11 -20 -20 -20 -20 -20 -20 -20 -20 -20 -20 -20 -20 -20 -20 -20 -20 -20 -20
7 4 11 1 -20 -20 -20 -16 -2 -20 -14 -19 -20 -20 -20 -20 -20 -20 -20 -20 -20 -20 -20 -20 -10 10 -15 -6 -12 -15 -20 -20 -20 -20 -20 -20 -20 -20 -20 -20 -20 -20 -20
18 -20 -20 -20 -20 1 -0 0 26 5 20 -1 -20 -20 -20 -20 -20 -20 -20 -20 -20 -20 -20 -20 -20 -20 -18 3 14 -13 -20 -17 -18 1 -14 -20 -20 -20 -20 -20 -20 -13 -20
32 21 -20 -20 -18 -1 -1 4 -5 -15 20 9 27 14 -20 1 -20 -20 -20 -20 -20 -20 -20 -20 -20 -20 -20 -20 -20 -12 17 -10 -20 -20 -20 -20 -20 -20 -20 -20 -20 -20 -20
31 5 -19 -20 -15 7 13 19 15 10 -14 -2 -3 13 23 6 -17 -20 -20 -20 -20 -20 -20 -20 -20 -20 -20 -20 -20 -20 -16 -20 -20 -20 -20 -20 -20 -20 10 -12 -20 -20 -20
27 5 -20 -20 -20 -19 2 14 20 -5 19 19 -5 26 15 4 2 -7 -20 -20 -20 -20 -20 -20 -20 -20 -20 -20 -20 -20 -20 -20 -20 -10 -14 -20 -20 -20 -20 -20 -20 -20 -20
36 36 8 -2 2 -13 0 -17 -18 22 12 16 15 -12 0 -17 17 -4 8 -19 -15 -4 -18 -20 -20 -20 -20 -20 -20 -20 -20 -20 -20 -20 -20 -20 -20 -20 -20 -20 -20 -20 -20
17 13 15 14 8 2 6 6 9 8 12 16 6 -14 -6 -20 -9 -11 -20 -20 -3 1 20 15 6 -15 -20 -20 -20 -20 -20 -20 -20 8 -18 -20 -0 -7 -20 -20 -20 -20 -20
-17 5 -19 5 4 5 -15 7 21 10 16 10 -6 -17 -11 -20 -20 -20 -20 -20 -8 -8 -20 -5 -6 -9 -7 -20 -20 -20 -20 -19 -3 -11 4 -20 0 9 -7 -1 10 -20 -20
-2 3 8 -7 -3 2 10 7 24 20 21 -20 15 -16 -20 -4 -14 -20 -19 -10 -20 -19 -20 -20 -20 -18 -16 -13 -20 -20 4 15 1 -20 -19 -20 3 6 8 8 9 3 -20
0 -1 5 5 11 7 8 7 11 6 7 17 -8 -20 -20 -20 3 -8 -20 -20 -3 5 -0 -20 -20 -20 -20 -2 12 15 26 26 18 5 -20 -20 3 9 15 16 -6 11 7
24 7 14 8 10 12 11 15 2 12 21 -17 -20 17 17 -8 -15 -8 -18 -20 -7 -5 -20 -20 -20 -20 -20 -2 5 15 21 28 25 -1 -20 -20 -19 13 25 23 4 8 4
20 1 -20 -11 13 7 15 -0 14 4 21 12 9 -9 7 9 12 -14 -20 -20 -16 -10 -12 -20 -20 -20 -20 -20 -7 -3 29 7 31 -2 -20 -19 6 24 26 26 21 3 2
-20 -20 -12 -17 -3 11 4 7 17 11 11 8 6 4 9 1 2 13 17 -14 19 15 -4 -20 -20 -10 -20 -9 9 23 20 30 19 11 -12 12 -4 4 20 19 25 13 -8
5 2 -15 -20 -4 8 0 -5 -20 -17 17 27 25 8 29 6 11 11 3 27 29 26 28 15 -5 11 12 -2 7 22 21 21 24 27 -6 -12 6 15 15 -12 19 -15 -15
6 3 5 -4 8 5 -5 13 -17 8 -7 -4 19 29 30 21 15 27 31 29 28 29 21 4 4 5 15 11 6 13 24 27 22 0 10 -20 -7 15 10 11 23 -4 -20
19 12 9 16 6 16 9 10 10 14 8 11 13 -3 8 14 33 33 32 28 24 26 29 16 6 8 28 20 20 24 30 19 24 13 -1 4 7 22 18 11 9 -19 2
19 26 14 16 18 27 30 -12 15 23 1 24 16 16 12 24 26 26 29 25 24 26 29 30 19 23 19 17 12 18 14 6 5 13 22 20 21 19 22 16 -10 8 -17
-20 2 14 -6 -12 -17 -19 -16 -20 -18 -11 -7 0 9 20 21 22 27 28 22 31 32 26 27 25 16 -1 12 24 24 22 12 -17 27 24 26 26 23 19 16 24 8 -20
5 1 6 9 -8 -17 -16 -19 -20 -19 -18 -20 -12 6 8 7 17 8 4 22 20 23 26 26 22 22 15 1 25 20 17 12 15 21 29 26 31 30 27 24 16 -16 -20
-20 -20 -20 -20 -20 -20 -20 -20 -20 -14 -20 -20 -20 -11 -20 -20 -15 -18 -3 -6 -18 -2 -3 15 20 24 22 21 22 22 20 1 20 24 23 24 27 24 13 8 -10 -20 -20
-7 -15 -20 -20 -20 -15 -16 -20 -20 -20 -20 -20 -20 -20 -20 -20 -20 -20 -20 -20 -2 1 -13 -18 17 7 -1 8 -0 12 25 21 18 13 9 7 13 6 -7 8 -20 -20 -20
-20 -20 -20 -20 -20 -20 -20 -20 -20 -20 -20 -20 -20 -20 -20 -20 -20 -20 -20 -20 -19 -14 -1 2 -20 -4 15 -4 9 23 13 11 19 21 25 21 26 21 20 2 -13 -12 -20
-20 -20 -20 -20 -20 -20 -20 -20 -20 -20 -20 -20 -20 -20 -20 -20 -20 -20 -20 -20 -20 -20 -16 -19 3 -1 6 11 -2 5 10 32 29 27 30 20 21 15 17 23 0 -20 -20
-20 -20 -20 -20 -20 -20 -20 -20 -20 -20 -20 -20 -20 -20 -20 -20 -20 -20 -18 2 -6 -20 2 4 -16 -19 -20 -16 20 9 6 30 22 26 6 24 7 20 24 25 29 -2 -3
-20 -20 -20 -20 -20 -20 -20 -20 -20 -20 -20 -20 -20 -20 -20 -20 -20 -20 -20 -20 -3 -14 -3 -18 2 -19 2 -16 -19 10 13 11 19 32 27 14 15 12 28 32 30 17 9

GFSMA_prec_radar_111.txt.gz
Reflectivity
-20 -8 -20 -20 15 -7 18 9 -2 19 -20 -20 -20 -20 -20 -20 -20 -20 -20 -20 -20 -20 -20 -5 3 -20 -20 -20 -20 -20 -20 -20 -20 -20 -20 -20 -20 -14 -20 -20 -20 -20 -20
12 4 16 16 14 21 21 22 5 17 -1 -20 -7 -20 -20 -20 -20 -20 -20 -20 -20 -20 -20 -20 -13 9 -20 -20 -20 -20 -20 -20 -20 -20 -20 -20 -20 -20 -20 -20 -20 -20 -20
-2 10 22 19 18 23 24 25 26 23 28 12 5 10 -19 12 -20 -20 -20 -20 -20 -20 -20 -20 -20 -20 -20 -16 -18 -18 -20 -20 -20 -20 13 -20 -20 -20 -20 -20 -20 -20 -8
-18 -20 1 23 28 -8 10 -20 -17 19 27 7 27 23 25 18 15 -17 -20 -20 -20 -20 -20 -20 -20 -20 -20 -20 -18 3 -18 -20 -20 -20 -20 -20 -20 -20 -16 -19 -20 3 -20
-20 12 -4 32 27 5 28 19 26 10 19 21 -18 -9 -12 -20 -20 -5 -12 -14 -4 -20 -20 -20 -20 -20 -20 -20 -20 -20 -6 -20 -20 -20 -20 -20 -16 -4 -20 -14 -10 -20 -20
-1 8 6 30 34 14 9 -5 25 18 13 20 19 15 7 -20 -20 -12 -3 -18 -19 -20 -20 -20 -20 -20 -20 -20 -20 -20 -20 18 8 -20 -20 -20 -20 -20 -2 9 -6 -20 -20
-20 -20 -20 5 33 29 1 -12 9 14 12 24 13 12 22 9 -13 -20 -11 10 -20 -20 -20 -20 -20 -20 -20 -16 -20 -20 -20 -20 -20 -20 -20 -20 -20 -20 5 -8 9 -20 -20
-20 -20 -20 -20 4 14 27 2 -19 9 -12 5 9 20 12 -9 -20 -20 -20 -19 -20 -1 7 -19 -20 -20 3 8 6 11 -16 -20 -20 8 1 -20 -20 -20 -1 -6 5 -3 -20
-19 2 -20 -20 -20 23 8 11 16 4 9 13 13 1 -1 -18 -20 -20 -20 -20 -20 -20 -16 -12 -20 -20 -20 -20 -10 14 -1 -20 -20 -20 -10 2 -16 -9 4 9 11 8 -19
12 22 3 5 7 -19 13 12 9 2 8 25 21 18 -14 -12 -20 -20 -20 -20 -20 -20 -20 -20 -20 -20 -20 -20 -20 -18 -5 -16 3 -3 -10 30 -2 -3 6 10 11 14 -9
21 25 15 25 20 29 24 15 4 8 9 -15 25 20 1 -5 18 -19 12 -20 -20 -20 -19 -6 -12 -10 -20 -20 -20 -20 -20 -20 -20 -20 -12 3 -20 -20 -10 14 14 15 -19
26 -10 10 7 11 1 11 21 11 10 25 22 24 22 -14 -20 -20 -3 23 6 -18 -20 -12 20 -4 9 -11 -12 -20 -20 -20 -20 -20 -20 12 16 -20 -20 -18 29 27 23 17
-20 7 -5 4 -5 -3 -1 2 5 -9 23 8 0 21 13 12 -20 3 3 -19 19 -14 -4 2 6 -20 -14 -20 -20 -20 -20 -20 -20 -15 9 6 3 27 -10 28 29 28 18
-20 -10 -7 -3 -13 -20 -20 12 5 14 7 -3 16 24 17 14 22 22 18 11 19 6 -10 7 18 14 -8 11 -20 -20 -20 -20 -20 -15 25 1 21 23 22 28 28 28 26
-12 8 -6 13 3 -20 -7 14 -12 22 10 12 14 16 7 28 22 13 16 29 17 14 19 -1 3 26 14 25 7 -20 -20 -20 -20 7 -7 -20 12 16 20 21 21 27 25
-15 2 1 -17 -7 -7 -17 10 11 -20 6 21 -7 16 -3 -20 17 22 19 18 7 20 23 18 18 25 22 26 26 -20 -20 -3 -20 -20 4 3 16 12 18 12 21 19 15
12 10 18 -3 -12 -13 9 4 -9 -16 6 -20 12 8 20 -13 -20 14 23 24 31 28 32 24 27 11 24 17 28 27 14 -4 5 -6 -8 4 11 -8 4 -9 16 21 19
-20 -19 -15 -8 -11 23 -9 16 13 24 8 11 18 23 13 16 26 16 11 13 26 25 33 31 5 17 26 23 22 28 26 21 17 2 19 23 17 -18 -19 -9 20 23 23
-20 -20 -20 -20 -20 -17 -20 -20 6 -2 17 6 -6 -9 9 -4 2 21 26 22 30 25 31 31 32 24 33 3 19 23 19 6 10 23 14 21 23 6 -13 23 26 24 24
-8 -5 -14 -18 -19 -5 -2 -10 -18 -20 -20 -20 -20 -20 -20 -20 -20 -10 2 -1 20 22 25 25 25 23 27 12 23 14 24 7 -9 -17 13 20 18 19 23 28 24 26 28
-20 -20 -20 -20 -20 -20 -20 -20 -20 -20 -20 -20 -20 -20 -5 -20 -20 -0 12 16 -2 -1 -5 -12 -15 -8 -1 -19 -5 17 10 7 -3 -10 -17 7 13 17 15 20 22 24 28
-20 -20 -20 -20 -20 -20 -20 -20 -20 -20 -20 -20 -20 -20 -20 -19 -20 -16 -20 -4 -18 -20 -3 5 -5 11 -5 -19 -6 18 17 9 1 -7 -13 -1 9 20 11 8 19 19 20
-20 -20 -20 -20 -20 -20 -20 -20 -20 -20 -20 -20 -20 -20 -20 -20 -20 -20 -20 -20 -20 -20 -20 -20 1 6 12 2 1 -1 5 7 -9 -2 4 6 -2 8 -0 3 17 14 11
-20 -20 -20 -20 -20 -20 -20 -20 -20 -20 -20 -20 -20 -20 -20 -20 -20 -20 -20 -20 -20 -20 -20 -20 -19 -20 1 12 -14 3 15 8 1 15 15 21 6 -1 4 6 21 15 20
-20 -20 -20 -20 -20 -20 -20 -20 -20 -20 -20 -20 -20 -20 -20 -20 -20 -20 -20 -20 -20 -20 -20 -20 -20 -20 3 0 -7 5 -19 17 15 -1 -1 18 19 18 5 10 -0 16 11
-20 -20 -20 -20 -20 -20 -20 -20 -19 -20 -20 -20 -20 -20 -20 -20 -20 -14 -11 -20 -20 -20 -20 -20 -20 -20 -20 -20 -20 -20 8 0 13 10 -5 16 20 20 28 23 21 20 13

GFSMA_prec_radar_114.txt.gz
Reflectivity
-20 -20 -20 -20 12 5 -20 -20 -20 -20 -3 -20 -19 -20 -20 -20 -20 -20 -20 -20 -20 -20 -20 -20 -13 -20 -20 -20 -20 -20 -20 -20 -20 -20 -20 -20 -20 -20 -20 -20 -20 -20 -20
-20 -20 -20 -20 -16 -20 22 -20 -20 -14 16 26 -18 -2 -20 -20 -20 -20 -20 -20 -20 -20 -20 -20 -20 -2 -20 -20 -20 -20 -20 -20 -20 -20 -20 -20 -20 -20 -20 -20 -20 -20 -20
12 -20 -20 -20 13 24 26 4 18 24 7 19 -20 -20 -7 -20 -20 -20 -12 -19 -20 -20 -20 -20 -20 -20 -20 2 -2 -18 -20 -20 -20 -13 -20 -20 -20 -20 -20 -20 -20 -20 -20
-3 -20 -20 1 -20 29 26 22 29 27 26 26 24 21 -20 3 16 -13 7 12 -20 -6 -20 -20 -20 -20 -20 -20 -20 -5 9 -20 -20 -20 -20 -12 -20 -20 -20 -20 -20 -20 -8
-20 -20 -20 -20 -5 0 -20 6 27 28 28 26 30 18 26 1 -15 6 -19 -20 -20 -20 -20 -20 -20 -20 -20 -20 -20 -20 -15 -20 -20 -20 -20 -20 -20 -20 -20 -5 -20 -20 -18
-20 -8 14 -5 -20 -20 8 -12 32 26 25 21 27 17 11 -20 -20 -20 -20 -20 -20 -20 -20 -20 -20 -16 -18 -20 -20 -20 -20 -20 -20 -20 -20 -20 -20 -20 -20 3 7 -1 -8
-20 -20 -20 -20 -20 1 3 8 16 32 15 20 30 9 13 -11 17 -20 -20 -20 -20 -18 -20 -20 -20 -20 -20 -20 -20 -20 -20 -20 -20 -20 -20 -20 -20 -20 -20 -3 3 10 -20
-20 -17 -20 -20 -20 -2 6 -7 -20 24 20 27 19 2 -9 -14 11 -20 -20 -20 -20 -20 -20 -20 -20 -20 -16 -20 -20 -20 -20 -20 -16 -20 -20 -13 -19 -12 -20 -19 -1 13 -15
30 6 25 0 -20 -20 -20 -20 -20 -20 6 19 30 16 -9 -20 -20 -20 -20 -20 -20 -20 -20 -20 -16 -20 -5 -15 -20 -20 -20 -17 -20 -20 -20 23 6 -20 -16 -10 -0 12 -0
-3 33 46 23 -18 -9 -20 -20 -20 -13 31 20 10 5 19 12 -20 -18 -20 -20 -20 -20 -20 -20 -20 -20 -20 -20 -20 -20 -20 -20 -20 -20 -20 -20 20 -20 -10 7 -16 4 -7
32 27 2 8 -20 -20 -19 -20 -18 27 22 31 29 32 15 28 12 6 -19 -20 -20 -20 -20 -20 -20 -20 -20 -20 5 6 6 -12 -20 -20 -20 -20 29 -20 -20 -20 -3 -20 -14
30 40 36 27 26 -3 -10 -20 -20 -10 -1 9 24 20 27 20 12 11 1 -19 -11 -20 -9 14 -18 -20 -16 -20 -20 12 25 3 -20 -20 -20 -20 -20 -1 -20 -14 -20 13 27
44 45 35 19 -10 -20 -3 -7 -13 3 15 -5 -7 -2 25 4 6 15 10 8 -9 -19 -20 -20 -19 12 -1 8 -5 -6 3 4 -19 -20 -20 -19 -20 -7 -5 -20 -11 -13 35
38 37 21 -14 -20 -19 -15 -20 -20 -16 -17 -6 16 9 -7 -8 27 27 4 6 3 1 2 -20 -20 -20 -20 4 -18 19 22 10 -20 -20 -20 -17 10 -16 -20 -19 8 -0 31
12 17 -4 -20 -20 -20 4 -14 -20 -1 -0 13 -7 7 10 -2 -10 14 5 14 43 32 21 -5 10 -20 -20 -17 25 9 32 31 17 -14 -20 -20 -20 4 -20 -17 8 -19 17
-5 -20 -20 -20 -17 1 -18 -20 -20 -16 -20 15 -19 1 24 -0 -2 -7 6 6 11 23 16 23 5 -17 -20 -20 22 22 12 28 29 19 -19 -20 -20 -12 -20 -20 -13 9 17
-20 -20 -20 -17 -1 -4 11 11 9 3 10 11 4 9 -17 20 1 25 20 30 23 5 13 7 -10 20 23 16 20 28 19 12 24 30 9 13 28 3 -16 -20 -11 10 4
-20 -20 -20 -20 -20 -19 -20 -19 -19 -11 11 -4 11 8 19 4 -3 15 9 11 7 19 18 9 -14 13 23 24 16 19 18 26 27 28 24 23 17 12 -1 -20 -18 0 8
-6 -4 -14 -20 -20 -20 -20 -20 -20 -13 -9 -20 -19 10 28 29 28 23 11 23 22 6 27 18 12 28 29 25 36 33 34 31 29 29 30 27 19 20 12 16 -5 -18 2
-20 -20 -20 -20 -20 -17 -17 -7 -1 13 13 -3 -14 -9 3 -7 -18 5 15 -4 -5 2 5 5 8 19 32 32 36 33 27 27 23 19 27 28 24 5 5 8 20 20 14
-20 -20 -20 5 11 13 -3 7 1 -10 -13 -7 -16 -6 0 -3 -20 -20 -20 -20 -16 -15 9 -7 1 -7 -6 1 26 31 16 12 -8 9 -6 16 24 15 -1 10 13 19 21
-20 -20 -20 -20 -20 -20 -20 -20 -20 -20 -13 -20 -12 -20 -20 -20 -20 -20 -20 -20 -20 -20 -20 -5 5 10 10 11 8 5 6 8 -11 8 -12 -13 -20 -20 -16 -19 17 23 25
-20 -20 -20 -20 -20 -20 -20 -20 -20 -20 -20 -20 -20 -20 -20 -20 -20 -20 -20 -20 -20 -20 -20 -20 -20 -18 -0 1 -11 2 3 -3 9 0 2 -1 -20 -16 7 9 21 23 24
-20 -20 -20 -20 -20 -20 -20 -20 -20 -20 -20 -20 -20 -20 -20 -20 -20 -20 -20 -20 -20 -20 -20 -20 -20 -20 -20 -20 -20 -15 1 -19 -3 -10 -10 4 -8 -10 0 12 22 15 10
-20 -20 -20 -20 -20 -20 -20 -20 -20 -20 -20 -20 -20 -20 -20 -20 -20 -20 -20 -20 -20 -20 -20 -20 -20 -20 -20 -20 -20 -20 -20 -1 -5 -12 -20 -1 -2 0 12 2 10 19 -20
-20 -20 -20 -20 -20 -20 -20 -20 -20 -6 -7 -15 -20 -20 -20 -20 -20 -6 2 -3 -18 -20 -20 -20 -20 -20 -20 -20 -20 -20 -6 8 5 -9 -11 8 -5 -8 6 17 10 19 17

GFSMA_prec_radar_117.txt.gz
Reflectivity
-20 -20 -20 -20 -20 -20 -20 -20 -20 -20 -20 -20 -20 -20 -20 -20 -20 -20 -20 -20 -20 -20 -20 -20 -20 -20 -20 -20 -20 -20 -20 -20 -20 -20 -20 -20 -20 -20 -20 -20 -20 -20 -20
-20 -8 -20 -20 -20 -20 -20 -20 12 -20 -20 -20 -20 -20 -20 -20 -20 -20 -20 -20 -20 -20 -20 -20 -20 -17 -8 -20 -20 -20 -20 -20 -20 -20 -20 -20 -20 -20 -20 -20 -20 -20 -20
-20 -20 16 5 -20 -20 -10 24 22 28 -20 6 -18 -20 -20 -20 -18 -20 -20 -20 -20 -20 -1 -20 -20 -20 -19 -1 -3 -20 -20 -20 -20 -20 -20 -20 -20 -20 -20 -20 -20 -20 -20
-13 27 14 -4 -11 -20 -20 -20 -20 -7 27 25 23 12 -1 -14 -20 -20 -13 -19 1 -20 19 -13 -20 -20 -20 -20 -17 5 0 -16 -20 -20 -20 -20 -20 -17 -20 -17 -19 -20 -20
-2 2 -20 23 21 1 -20 30 -20 -20 6 16 19 38 35 37 33 31 8 -15 -1 2 -19 -20 -19 -20 -20 -20 -20 -20 -12 8 -20 -20 -20 -20 -20 -8 -20 -1 -11 3 -15
-14 26 -20 -13 21 9 14 -3 -20 -20 -20 3 24 30 22 29 31 22 12 21 -6 -20 -20 -20 -20 -20 -20 -20 -20 -18 -20 -20 -20 -20 -20 -20 -20 -20 -20 -18 -2 1 10
-20 -20 19 1 -20 -20 24 22 -20 -20 -20 -20 22 25 22 7 24 21 6 1 -20 -20 -15 -19 -20 -20 -20 1 -16 -20 -20 -20 -20 -20 -20 -20 -20 -20 -20 -20 -20 -19 10
-20 27 -20 -3 25 16 27 22 -20 -20 -13 -14 -1 9 16 20 19 23 23 -15 -20 -20 -20 -20 -20 -20 -20 -20 -20 -20 -15 -20 -20 -20 -20 -20 -20 -20 -20 -20 6 -2 10
-20 3 31 -20 -16 1 20 -1 3 -20 8 -18 18 -19 5 26 13 14 33 8 -20 -20 -20 -20 -20 -20 -20 -20 -20 -12 5 -1 -20 -20 -20 -20 -17 -20 -20 -20 -16 -1 -4
-20 -20 -11 32 27 23 12 7 26 -20 18 -20 25 17 27 -1 5 -3 30 23 0 -10 -20 -20 -20 -20 -20 -20 -20 -15 -6 13 -20 -20 -20 -20 21 -4 -20 -20 -10 -20 -16
-20 -20 -18 22 38 32 26 30 33 -16 -20 -3 4 -20 -20 23 31 28 14 16 23 19 17 -17 -20 -20 -20 -20 -20 -20 -20 -2 4 -18 -20 -20 -20 -20 -13 -20 -18 30 -16
23 19 -7 18 41 43 27 36 36 31 12 -17 8 -20 -7 20 17 31 30 8 6 -4 -5 -20 -20 -20 -20 7 -2 -15 -12 -20 6 14 9 -19 -20 5 23 -4 -14 17 10
3 -9 -12 25 40 43 39 33 30 23 12 -15 -20 -20 -7 -3 3 21 15 -17 3 -1 4 -10 -20 -20 -20 -20 -20 9 -7 25 -1 5 18 -11 -17 -20 14 23 -20 -15 14
11 17 18 32 33 43 39 32 20 7 -20 -20 -20 -19 -20 -2 12 10 5 4 -1 12 5 -12 -6 -20 -20 -20 -20 -20 -8 -18 9 19 23 28 -2 -8 -20 -20 -19 -20 12
5 24 32 33 37 33 23 9 -3 -20 -20 -20 -20 1 11 15 -5 -17 20 14 23 5 3 18 -13 -13 -6 -13 -16 -15 -17 -20 -17 -6 24 16 28 31 -14 -19 -20 -17 -17
11 0 -8 -5 7 11 -5 -20 -20 -20 -20 -20 -20 -20 -17 16 -20 12 10 -9 7 19 6 -4 4 3 -3 3 13 -1 -20 -8 17 28 17 25 25 27 8 15 12 13 8
-20 -16 -18 -17 -20 -20 -20 -20 -20 -20 -15 -19 -14 -20 -12 -17 -20 12 -9 7 6 12 7 -15 4 19 5 -8 1 -5 1 4 11 18 15 9 19 21 16 19 29 21 16
-20 -20 -20 -20 -20 -20 -20 -20 -20 -20 -20 -19 -19 -20 -19 -0 -5 8 25 -7 19 4 -6 19 -19 -7 -5 20 5 -2 24 26 34 33 18 15 13 16 23 27 24 29 23
-20 -20 -20 -20 -20 -20 -20 -20 -20 -20 -20 -20 -20 -20 -18 -20 -20 -20 -6 4 21 18 -6 4 -17 -1 12 16 28 21 -2 23 16 31 36 24 24 28 23 20 29 27 23
-20 -20 -20 -20 -20 -20 -20 -20 -20 -20 -20 -20 -20 -20 -11 21 -9 -20 -20 8 14 21 31 23 2 4 6 -20 -12 5 13 24 22 12 25 26 26 32 27 35 22 23 25
-20 -20 -20 -20 -20 -20 -20 -20 -20 -20 -20 -20 -11 -3 -11 -17 -15 -20 -20 -7 -7 -11 -20 -16 10 1 -20 -2 -1 -17 -20 22 32 33 34 26 33 29 19 21 13 11 -12
-20 -20 -20 -20 -20 -20 -20 -20 -20 -20 -20 -20 -20 -20 -20 -14 -11 -9 8 2 -20 -20 -1 -20 -20 -20 -20 -20 -12 -11 -20 -20 7 16 29 11 14 4 0 -16 24 25 16
-20 -20 -20 -20 -20 -20 -20 -20 -20 -20 -20 -20 -20 -20 -20 -20 -20 -20 -20 -20 -20 -20 -20 -20 -20 -20 -20 -20 -20 -20 -19 1 -2 1 -9 -7 -2 -12 4 -16 -13 -13 -20
-20 -20 -20 -20 -20 -20 -20 -20 -20 -20 -20 -20 -20 -20 -20 -20 -20 -20 -20 -20 -20 -20 -20 -20 -20 -20 -20 -20 -20 -20 -17 -20 -7 -19 2 13 -1 -13 -20 -14 2 4 -3
-20 -20 -20 -20 -19 -19 -19 -20 -20 -20 -20 -17 -19 -20 -20 -20 -20 -20 -20 -20 -20 -20 -20 -20 -20 -20 -20 -20 -20 -20 -20 -8 -17 -18 -0 6 -11 -20 -20 -20 -20 -19 16
-20 -20 -20 -20 -20 -20 -20 -20 -20 -20 -20 -20 -20 -20 -19 -20 -20 -16 1 -15 -0 -20 -20 -20 -20 -20 -20 -20 -20 -20 -4 8 -5 -20 -20 0 -4 11 1 -20 -20 -20 -16

GFSMA_prec_radar_120.txt.gz
Reflectivity
17 15 -20 -14 -20 -20 -20 -20 -20 -20 -20 -20 -20 -20 -7 -20 -20 -20 -20 -20 -20 -20 -20 -20 -20 -20 -20 -20 -20 -20 -20 -20 -20 -20 -20 -20 -20 -20 -20 -20 -20 -20 -20
-20 -11 30 -20 2 -20 -20 -17 24 -16 -20 -20 -20 -20 -20 -8 -20 -20 -20 -20 -20 -20 -20 -20 -20 -20 -20 -20 -20 -20 -20 -20 -20 -20 -20 -20 -20 -20 -20 -20 -20 -20 -20
-20 -20 -12 18 6 9 22 23 -20 -13 29 -20 -20 -20 -20 -20 20 -10 -20 -20 -20 -20 -20 -20 -20 -20 -20 -20 5 6 1 -2 -20 -20 -20 -20 -20 -20 -20 -20 -20 -20 -20
-20 -20 -20 -11 25 18 20 19 19 26 13 -20 -20 -19 24 -3 17 -16 -20 -18 -20 -20 -20 -20 -20 5 -5 -20 -12 7 10 -20 -20 -20 -20 -20 -20 -20 -20 -20 -16 -17 -20
-20 -20 -20 -20 9 23 25 20 23 27 10 1 -20 -2 16 27 22 24 15 15 16 -12 21 -8 4 -20 -2 -19 -20 -20 2 6 -4 -20 -20 -20 -20 -14 -20 -18 12 -1 -9
-20 -20 -20 -20 -11 -8 24 24 22 23 19 22 -5 5 13 19 19 37 35 37 36 31 10 11 -16 14 -16 -20 -17 -20 -20 -20 -20 -20 -20 -20 -20 -15 -20 -20 -5 5 3
-20 -20 -20 -20 -20 -20 -20 22 25 25 23 25 -20 -20 -20 -20 -0 29 35 37 32 31 28 2 6 10 -20 -20 -20 -20 -20 -20 -20 -20 -20 -20 -20 -20 -20 -20 -20 -20 0
-20 -20 -20 -20 -0 -16 -17 21 23 23 26 20 16 -20 -20 -20 -14 24 17 28 19 28 27 25 -10 -4 -4 -20 -20 -20 -20 -20 -2 -20 -20 -20 -13 -20 -20 -20 -7 -17 -20
-20 -20 -20 -20 -14 7 -6 21 23 21 22 -12 20 -3 -15 -20 -20 -3 5 5 26 25 13 27 13 15 11 -16 -20 -20 -20 -20 -15 -7 -20 3 -3 -17 -20 -17 -6 -8 -20
-20 -20 -20 -20 -20 -20 16 -1 23 20 22 20 21 11 7 -16 -20 -20 -20 -15 24 21 10 -4 30 22 -17 -17 -19 -20 -20 -20 -19 7 -20 -20 -20 -19 -20 -17 -20 0 -18
-18 -6 -20 -20 -20 -20 -20 30 22 23 26 11 28 19 24 -10 -20 16 1 -20 25 8 21 18 32 31 13 -4 -20 -20 -20 -20 -20 20 4 -20 -20 -18 -20 -6 -18 20 26
-20 16 15 15 -20 -20 -20 -4 42 42 31 -1 20 -7 -2 -9 17 9 18 -6 7 5 26 32 29 21 25 4 -20 -20 -20 -20 -20 -20 10 17 13 -20 -20 -20 -9 -0 8
-12 -11 -20 -20 -15 -20 -20 -17 30 40 40 43 40 31 22 18 -12 -7 3 3 -10 -12 6 15 25 27 21 23 -20 -20 -20 -14 -20 -20 -20 9 17 20 -2 1 -20 26 -17
23 2 11 24 -13 -20 -20 3 32 39 42 40 38 29 -7 -20 -20 -17 -8 -20 -20 -7 13 10 -9 -18 -11 -19 5 -17 -20 -20 -20 -20 -20 -20 14 -20 24 -9 1 18 -5
-20 -20 2 25 31 11 14 3 21 37 38 32 28 25 13 -20 -20 -13 -20 -19 -1 -14 -20 -8 -17 4 -20 -12 7 -16 -15 -18 -20 -20 -20 -20 -19 -5 15 9 15 26 31
-20 -20 -9 -3 12 1 -2 13 26 25 20 12 2 -8 -20 -20 -20 -20 13 -2 2 -20 0 -17 -19 -20 -17 -20 -20 -8 -1 -14 -19 -20 -20 -20 -20 -18 -6 3 9 15 21
-20 -20 -20 -20 -20 -18 -19 -18 -6 -15 -15 -18 -20 -20 -20 -20 -20 -20 -13 -19 -20 -4 10 -15 1 -8 -20 -4 -19 -6 -17 5 -19 16 17 -2 -19 -3 21 26 19 2 16
-20 -20 -20 -20 -20 -20 -20 -20 -20 -20 -20 -20 -20 -20 -20 -20 -19 -20 -20 -10 -4 -20 -19 9 -0 -9 22 2 9 15 13 -20 -17 -15 11 -20 8 25 23 24 18 12 28
-20 -20 -20 -20 -20 -20 -20 -20 -20 -20 -20 -20 -20 -20 -20 -20 -20 -20 -20 -20 -20 -20 -5 -18 -20 -20 2 9 -19 2 9 -19 -18 14 5 9 20 31 25 34 26 7 -3
-20 -20 -20 -20 -20 -20 -20 -20 -20 -20 -20 -20 -20 -20 -20 -20 -20 -20 -20 -20 -20 -20 -20 -19 -12 -16 -16 7 3 -20 -16 -6 -8 1 17 11 21 22 17 22 22 31 25
-20 -20 -20 -20 -20 -20 -20 -20 -20 -20 -20 -20 -20 -20 -20 -20 -20 -20 -15 -3 -18 -9 -11 -13 -17 -11 -20 -20 -8 5 2 -16 8 -6 -17 -2 15 15 7 24 28 26 17
-20 -20 -20 -20 -20 -20 -20 -20 -20 -20 -20 -20 -20 -20 -20 -20 -20 -20 -20 -20 -20 -19 -11 -12 -20 -20 -20 -14 -10 -20 -9 10 -0 12 -19 10 26 16 26 33 34 32 31
-20 -20 -20 -20 -20 -20 -20 -20 -20 -20 -20 -20 -20 -20 -20 -20 -20 -20 -20 -20 -20 -20 -20 -20 -20 -12 -5 -19 -19 1 -17 -20 -19 -15 -4 8 15 -6 27 33 31 25 23
-20 -20 -20 -20 -20 -20 -20 -20 -20 -20 -20 -20 -20 -20 -20 -20 -20 -20 -20 -20 -20 -20 -20 -20 -20 -20 -20 -12 -20 -20 -20 -20 -20 -20 -20 -11 -1 10 16 25 12 21 11
-20 -20 -20 -20 -20 -20 -20 -20 -20 -20 -20 -20 -20 -20 -20 -20 -20 -20 -20 -20 -20 -20 -20 -20 -20 -20 -20 -20 -20 -20 -20 -20 -20 -14 -20 -20 -20 -16 -10 11 13 -9 -7
-20 -20 -20 -20 -20 -20 -20 -20 -20 -20 -20 -20 -20 -20 -20 -20 -7 -5 3 -7 -17 -20 -20 -20 -20 -20 -20 -20 -20 -20 -20 -3 -3 -18 -20 -20 -20 -19 -8 -20 -20 -20 -19